[[{"header":{"parameterUnit":"m.s-1","parameterCategory":1,"la1":30.6,"la2":29.2853,"lo1":-89.7004,"lo2":-87.6739,"dy":0.0162,"dx":0.0183,"nx":112,"ny":82,"refTime":"2023-06-13T06:00:00:Z","depth":0,"parameterNumber":2,"parameterNumberName":"U-component_of_WINDS"},"data":[0.0,0.0,0.0,0.0,0.0,0.0,0.0,0.0,0.0,0.0,0.0,0.0,0.0,0.0,0.0,0.0,0.0,0.0,0.0,0.0,0.0,0.0,0.0,0.0,0.0,0.0,0.0,0.0,0.0,0.0,0.0,0.0,0.0,0.0,0.0,0.0,0.0,0.0,0.0,0.0,0.0,0.0,0.0,0.0,0.0,0.0,0.0,0.0,0.0,0.0,0.0,0.0,0.0,0.0,0.0,0.0,0.0,0.0,0.0,0.0,0.0,0.0,0.0,0.0,0.0,0.0,0.0,0.0,0.0,0.0,0.0,0.0,0.0,0.0,0.0,0.0,0.0,0.0,0.0,0.0,0.0,0.0,0.0,0.0,0.0,0.0,0.0,0.0,0.0,0.0,-4.5542,-4.7763,-4.9757,-5.1058,-5.1278,-4.9274,-4.7957,-4.7852,0.0,0.0,0.0,0.0,0.0,0.0,0.0,0.0,0.0,0.0,0.0,0.0,0.0,0.0,0.0,0.0,0.0,0.0,0.0,0.0,0.0,0.0,0.0,0.0,0.0,0.0,0.0,0.0,0.0,0.0,0.0,0.0,0.0,0.0,0.0,0.0,0.0,0.0,0.0,0.0,0.0,0.0,0.0,0.0,0.0,0.0,0.0,0.0,0.0,0.0,0.0,0.0,0.0,0.0,0.0,0.0,0.0,0.0,0.0,0.0,0.0,0.0,0.0,0.0,0.0,0.0,0.0,0.0,0.0,0.0,0.0,0.0,0.0,0.0,0.0,0.0,0.0,0.0,0.0,0.0,0.0,0.0,0.0,0.0,0.0,0.0,0.0,0.0,0.0,0.0,0.0,0.0,0.0,0.0,0.0,0.0,0.0,0.0,0.0,0.0,0.0,0.0,0.0,0.0,-4.5542,-4.7763,-4.9106,-4.9868,-4.9917,-4.8731,-4.7796,-4.7344,0.0,0.0,0.0,0.0,0.0,0.0,0.0,0.0,0.0,0.0,0.0,0.0,0.0,0.0,0.0,0.0,0.0,0.0,0.0,0.0,0.0,0.0,0.0,0.0,0.0,0.0,0.0,0.0,0.0,0.0,0.0,0.0,0.0,0.0,0.0,0.0,0.0,0.0,0.0,0.0,0.0,0.0,0.0,0.0,0.0,0.0,0.0,0.0,0.0,0.0,0.0,0.0,0.0,0.0,0.0,0.0,0.0,0.0,0.0,0.0,0.0,0.0,0.0,0.0,0.0,0.0,0.0,0.0,0.0,0.0,0.0,0.0,0.0,0.0,0.0,0.0,0.0,0.0,0.0,0.0,0.0,0.0,0.0,0.0,0.0,0.0,0.0,0.0,0.0,0.0,0.0,0.0,0.0,0.0,0.0,0.0,0.0,0.0,0.0,0.0,0.0,0.0,0.0,-4.615,-4.7112,-4.8696,-4.982,-5.0353,-5.0104,-4.9108,-4.8249,-4.7703,-4.6442,0.0,0.0,0.0,0.0,0.0,0.0,0.0,0.0,0.0,0.0,0.0,0.0,0.0,0.0,0.0,0.0,0.0,0.0,0.0,0.0,0.0,0.0,0.0,0.0,0.0,0.0,0.0,0.0,0.0,0.0,0.0,0.0,0.0,0.0,0.0,0.0,0.0,0.0,0.0,0.0,0.0,0.0,0.0,0.0,0.0,0.0,0.0,0.0,0.0,0.0,0.0,0.0,0.0,0.0,0.0,0.0,0.0,0.0,0.0,0.0,0.0,0.0,0.0,0.0,0.0,0.0,0.0,0.0,0.0,0.0,0.0,0.0,0.0,0.0,0.0,0.0,0.0,0.0,0.0,0.0,0.0,0.0,0.0,0.0,0.0,0.0,0.0,0.0,0.0,0.0,0.0,0.0,0.0,0.0,0.0,0.0,0.0,0.0,0.0,0.0,0.0,0.0,-4.7054,-4.8056,-4.9137,-5.0011,-5.0299,-4.996,-4.9197,-4.8466,-4.7957,-4.7149,0.0,0.0,0.0,0.0,0.0,0.0,0.0,0.0,0.0,0.0,0.0,0.0,0.0,0.0,0.0,0.0,0.0,0.0,0.0,0.0,0.0,0.0,0.0,0.0,0.0,0.0,0.0,0.0,0.0,0.0,0.0,0.0,0.0,0.0,0.0,0.0,0.0,0.0,0.0,0.0,0.0,0.0,0.0,0.0,0.0,0.0,0.0,0.0,0.0,0.0,0.0,0.0,0.0,0.0,0.0,0.0,0.0,0.0,0.0,0.0,0.0,0.0,0.0,0.0,0.0,0.0,0.0,0.0,0.0,0.0,0.0,0.0,0.0,0.0,0.0,0.0,0.0,0.0,0.0,0.0,0.0,0.0,0.0,0.0,0.0,0.0,0.0,0.0,0.0,0.0,0.0,0.0,0.0,0.0,0.0,0.0,0.0,0.0,0.0,0.0,0.0,0.0,-4.6183,-4.7041,-4.807,-4.8272,-4.83,-4.8286,-4.8192,-4.7916,-4.7403,-4.727,0.0,0.0,0.0,0.0,0.0,0.0,0.0,0.0,0.0,0.0,0.0,0.0,0.0,0.0,0.0,0.0,0.0,0.0,0.0,0.0,0.0,0.0,0.0,0.0,0.0,0.0,0.0,0.0,0.0,0.0,0.0,0.0,0.0,0.0,0.0,0.0,0.0,0.0,0.0,0.0,0.0,0.0,0.0,0.0,0.0,0.0,0.0,0.0,0.0,0.0,0.0,0.0,0.0,0.0,0.0,0.0,0.0,0.0,0.0,0.0,0.0,0.0,0.0,0.0,0.0,0.0,0.0,0.0,0.0,0.0,0.0,0.0,0.0,0.0,0.0,0.0,0.0,0.0,0.0,0.0,0.0,0.0,0.0,0.0,0.0,0.0,0.0,0.0,0.0,0.0,0.0,0.0,0.0,0.0,0.0,0.0,0.0,0.0,0.0,0.0,0.0,0.0,-4.7387,-4.7892,-4.9,-4.9107,-4.9005,-4.8694,-4.8666,-4.8436,-4.789,0.0,0.0,0.0,0.0,0.0,0.0,0.0,0.0,0.0,0.0,0.0,0.0,0.0,0.0,0.0,0.0,0.0,0.0,0.0,0.0,0.0,0.0,0.0,0.0,0.0,0.0,0.0,0.0,0.0,0.0,0.0,0.0,0.0,0.0,0.0,0.0,0.0,0.0,0.0,0.0,0.0,0.0,0.0,0.0,0.0,0.0,0.0,0.0,0.0,0.0,0.0,0.0,0.0,0.0,0.0,0.0,0.0,0.0,0.0,0.0,0.0,0.0,0.0,0.0,0.0,0.0,0.0,0.0,0.0,0.0,0.0,0.0,0.0,0.0,0.0,0.0,0.0,0.0,0.0,0.0,0.0,0.0,0.0,0.0,0.0,0.0,0.0,0.0,0.0,0.0,0.0,0.0,0.0,0.0,0.0,0.0,0.0,0.0,0.0,0.0,0.0,0.0,-4.7747,-4.8005,-4.839,-4.9159,-4.92,-4.9104,-4.8771,-4.8755,-4.8589,-4.8217,0.0,0.0,0.0,0.0,0.0,0.0,0.0,0.0,0.0,0.0,0.0,0.0,0.0,0.0,0.0,0.0,0.0,0.0,0.0,0.0,0.0,0.0,0.0,0.0,0.0,0.0,0.0,0.0,0.0,0.0,0.0,0.0,0.0,0.0,0.0,0.0,0.0,0.0,0.0,0.0,0.0,0.0,0.0,0.0,0.0,0.0,0.0,0.0,0.0,0.0,0.0,0.0,0.0,0.0,0.0,0.0,0.0,0.0,0.0,0.0,0.0,0.0,0.0,0.0,0.0,0.0,0.0,0.0,0.0,0.0,0.0,0.0,0.0,0.0,0.0,0.0,0.0,0.0,0.0,0.0,0.0,0.0,0.0,0.0,0.0,0.0,0.0,0.0,0.0,0.0,0.0,0.0,0.0,0.0,0.0,0.0,0.0,0.0,0.0,0.0,0.0,0.0,-4.7291,-4.7832,-4.8185,-4.8185,-4.8185,-4.8185,-4.8185,-4.8185,-4.8185,0.0,0.0,0.0,0.0,0.0,0.0,0.0,0.0,0.0,0.0,0.0,0.0,0.0,0.0,0.0,0.0,0.0,0.0,0.0,0.0,0.0,0.0,0.0,0.0,0.0,0.0,0.0,0.0,0.0,0.0,0.0,0.0,0.0,0.0,0.0,0.0,0.0,0.0,0.0,0.0,0.0,0.0,0.0,0.0,0.0,0.0,0.0,0.0,0.0,0.0,0.0,0.0,0.0,0.0,0.0,0.0,0.0,0.0,0.0,0.0,0.0,0.0,0.0,0.0,0.0,0.0,0.0,0.0,0.0,0.0,0.0,0.0,0.0,0.0,0.0,0.0,0.0,0.0,0.0,0.0,0.0,0.0,0.0,0.0,0.0,0.0,0.0,0.0,0.0,0.0,0.0,0.0,0.0,0.0,0.0,0.0,0.0,0.0,0.0,0.0,0.0,0.0,0.0,-4.7924,-4.8081,-4.8185,-4.8185,-4.8185,-4.8185,-4.8185,-4.8185,-4.8185,-4.8185,0.0,0.0,0.0,0.0,0.0,0.0,0.0,0.0,0.0,0.0,0.0,0.0,0.0,0.0,0.0,0.0,0.0,0.0,0.0,0.0,0.0,0.0,0.0,0.0,0.0,0.0,0.0,0.0,0.0,0.0,0.0,0.0,0.0,0.0,0.0,0.0,0.0,0.0,0.0,0.0,0.0,0.0,0.0,0.0,0.0,0.0,0.0,0.0,0.0,0.0,0.0,0.0,0.0,0.0,0.0,0.0,0.0,0.0,0.0,0.0,0.0,0.0,0.0,0.0,0.0,0.0,0.0,0.0,0.0,0.0,0.0,0.0,0.0,0.0,0.0,0.0,0.0,0.0,0.0,0.0,0.0,0.0,0.0,0.0,0.0,0.0,0.0,0.0,0.0,0.0,0.0,0.0,0.0,0.0,0.0,0.0,0.0,0.0,0.0,0.0,0.0,0.0,-4.8185,-4.8185,-4.8185,-4.8185,-4.8185,-4.8185,-4.8185,-4.8185,-4.8185,-4.8185,0.0,0.0,0.0,0.0,0.0,0.0,0.0,0.0,0.0,0.0,0.0,0.0,0.0,0.0,0.0,0.0,0.0,0.0,0.0,0.0,0.0,0.0,0.0,0.0,0.0,0.0,0.0,0.0,0.0,0.0,0.0,0.0,0.0,0.0,0.0,0.0,0.0,0.0,0.0,0.0,0.0,0.0,0.0,0.0,0.0,0.0,0.0,0.0,0.0,0.0,0.0,0.0,0.0,0.0,0.0,0.0,0.0,0.0,0.0,0.0,0.0,0.0,0.0,0.0,0.0,0.0,0.0,0.0,0.0,0.0,0.0,0.0,0.0,0.0,0.0,0.0,0.0,0.0,0.0,0.0,0.0,0.0,0.0,0.0,0.0,0.0,0.0,0.0,0.0,0.0,0.0,0.0,0.0,0.0,0.0,0.0,0.0,0.0,0.0,0.0,0.0,0.0,-4.8185,-4.8185,-4.8185,-4.8185,-4.8185,-4.8185,-4.8185,-4.8185,-4.8185,-4.8185,0.0,0.0,0.0,0.0,0.0,0.0,0.0,0.0,0.0,0.0,0.0,0.0,0.0,0.0,0.0,0.0,0.0,0.0,0.0,0.0,0.0,0.0,0.0,0.0,0.0,0.0,0.0,0.0,0.0,0.0,0.0,0.0,0.0,0.0,0.0,0.0,0.0,0.0,0.0,0.0,0.0,0.0,0.0,0.0,0.0,0.0,0.0,0.0,0.0,0.0,0.0,0.0,0.0,0.0,0.0,0.0,0.0,0.0,0.0,0.0,-5.9574,-5.9804,0.0,0.0,0.0,0.0,0.0,0.0,0.0,0.0,0.0,0.0,0.0,0.0,0.0,0.0,0.0,0.0,0.0,0.0,0.0,0.0,0.0,0.0,0.0,0.0,0.0,0.0,0.0,0.0,0.0,0.0,0.0,0.0,0.0,0.0,0.0,0.0,0.0,0.0,0.0,0.0,-4.8185,-4.8185,-4.8185,-4.8185,-4.8185,-4.8185,-4.8185,-4.8185,-4.8185,-4.8185,-4.8185,0.0,0.0,0.0,0.0,0.0,0.0,0.0,0.0,0.0,0.0,0.0,0.0,0.0,0.0,0.0,0.0,0.0,0.0,0.0,0.0,0.0,0.0,0.0,0.0,0.0,0.0,0.0,0.0,0.0,0.0,0.0,0.0,0.0,0.0,0.0,0.0,0.0,0.0,0.0,0.0,0.0,0.0,0.0,0.0,0.0,0.0,0.0,0.0,0.0,0.0,0.0,0.0,0.0,0.0,0.0,0.0,0.0,0.0,0.0,-5.8843,-5.8945,0.0,0.0,0.0,0.0,0.0,0.0,0.0,0.0,0.0,0.0,0.0,0.0,0.0,0.0,0.0,0.0,0.0,0.0,0.0,0.0,0.0,0.0,0.0,0.0,0.0,0.0,0.0,0.0,0.0,0.0,0.0,0.0,0.0,0.0,0.0,0.0,0.0,0.0,0.0,0.0,-4.8185,-4.8185,-4.8185,-4.8185,-4.8185,-4.8185,-4.8185,-4.8185,-4.8185,-4.8185,-4.8185,0.0,0.0,0.0,0.0,0.0,0.0,0.0,0.0,0.0,0.0,0.0,0.0,0.0,0.0,0.0,0.0,0.0,0.0,0.0,0.0,0.0,0.0,0.0,0.0,0.0,0.0,0.0,0.0,0.0,0.0,0.0,0.0,0.0,0.0,0.0,0.0,0.0,0.0,0.0,0.0,0.0,0.0,0.0,0.0,0.0,0.0,0.0,0.0,0.0,0.0,0.0,0.0,0.0,-5.7641,-5.7934,-5.8408,-5.7903,-5.7801,-5.8123,-5.8073,-5.7983,-5.7785,-5.7493,0.0,0.0,0.0,0.0,0.0,0.0,0.0,0.0,0.0,0.0,0.0,0.0,0.0,0.0,0.0,0.0,0.0,0.0,0.0,0.0,0.0,0.0,-4.8433,-4.8839,-4.8538,-4.8185,-4.8185,0.0,0.0,0.0,0.0,0.0,0.0,0.0,0.0,0.0,0.0,0.0,-4.8185,-4.8185,-4.8185,-4.8185,-4.8185,-4.8185,-4.8185,-4.8185,-4.8185,-4.8185,-4.8185,-4.8185,0.0,0.0,0.0,0.0,0.0,0.0,0.0,0.0,0.0,0.0,0.0,0.0,0.0,0.0,0.0,0.0,0.0,0.0,0.0,0.0,0.0,0.0,0.0,0.0,0.0,0.0,0.0,0.0,0.0,0.0,0.0,0.0,-4.1858,-4.24,0.0,0.0,0.0,0.0,0.0,0.0,0.0,0.0,0.0,0.0,0.0,0.0,0.0,-5.4914,-5.5561,-5.6269,-5.6763,-5.6948,-5.6948,-5.6994,-5.7071,-5.6979,-5.6946,-5.6974,-5.6779,0.0,-5.7102,-5.6594,0.0,0.0,0.0,0.0,0.0,0.0,0.0,0.0,0.0,0.0,0.0,0.0,0.0,0.0,0.0,0.0,0.0,0.0,0.0,0.0,0.0,0.0,-4.8852,-4.8407,-4.8237,-4.8185,-4.8185,-4.8185,-4.8185,-4.8185,-4.8185,-4.8185,0.0,0.0,0.0,0.0,0.0,0.0,-4.8185,-4.8185,-4.8185,-4.8185,-4.8185,-4.8185,-4.8185,-4.8185,-4.8185,-4.8185,-4.8185,-4.8185,-4.8185,-4.8185,0.0,0.0,0.0,0.0,0.0,0.0,0.0,0.0,0.0,0.0,0.0,0.0,0.0,0.0,0.0,0.0,0.0,0.0,0.0,0.0,0.0,0.0,0.0,0.0,0.0,0.0,0.0,0.0,0.0,-4.1908,-4.2435,-4.3218,-4.4115,-4.5534,0.0,0.0,0.0,0.0,0.0,0.0,0.0,0.0,0.0,-5.3698,-5.4329,-5.5037,-5.5684,-5.6455,-5.681,-5.681,-5.681,-5.681,-5.681,-5.681,-5.6713,-5.6567,-5.647,-5.6343,-5.6204,-5.5968,-5.5651,-5.5345,0.0,0.0,0.0,0.0,-5.5194,-5.5194,-5.5194,-5.5194,-5.4955,-5.3468,0.0,0.0,0.0,0.0,0.0,0.0,0.0,-4.9387,-4.9152,-4.8839,-4.859,-4.8669,-4.8433,-4.8185,-4.8185,-4.8185,-4.8185,-4.8185,-4.8185,-4.8185,-4.8185,-4.8185,0.0,0.0,0.0,-4.8185,-4.8185,-4.8185,-4.8185,-4.8185,-4.8185,-4.8185,-4.8185,-4.8185,-4.8185,-4.8185,-4.8185,-4.8185,-4.8185,-4.8185,-4.8185,0.0,0.0,0.0,0.0,0.0,0.0,0.0,0.0,0.0,0.0,0.0,0.0,0.0,0.0,0.0,0.0,0.0,0.0,0.0,0.0,0.0,0.0,0.0,0.0,0.0,0.0,0.0,0.0,-4.2204,-4.286,-4.389,-4.4988,-4.6584,0.0,0.0,0.0,0.0,0.0,0.0,-5.2713,-5.2867,-5.3283,-5.3914,-5.4637,-5.5299,-5.5961,-5.6548,-5.681,-5.681,-5.681,-5.681,-5.681,-5.681,-5.6664,-5.6421,-5.6421,-5.6077,-5.5581,-5.5581,-5.5431,-5.5194,-5.5194,-5.5194,-5.5194,-5.5194,-5.5194,-5.5194,-5.5194,-5.5194,-5.4962,-5.348,-5.2014,-5.0643,-4.9759,0.0,0.0,0.0,0.0,-4.8852,-4.8852,-4.8525,-4.8303,-4.8747,-4.8512,-4.8185,-4.8185,-4.8185,-4.8185,-4.8185,-4.8185,-4.8185,-4.8185,-4.8185,0.0,-4.8185,-4.8185,-4.8185,-4.8185,-4.8185,-4.8185,-4.8185,-4.8185,-4.8185,-4.8185,-4.8185,-4.8185,-4.8185,-4.8185,-4.8185,-4.8185,-4.8185,-4.8185,-4.8185,0.0,0.0,0.0,0.0,0.0,0.0,0.0,0.0,0.0,0.0,0.0,0.0,0.0,0.0,0.0,0.0,0.0,0.0,0.0,0.0,0.0,0.0,0.0,0.0,0.0,0.0,0.0,0.0,0.0,-4.4125,-4.5734,0.0,0.0,0.0,0.0,-5.2667,-5.2713,-5.2713,-5.2713,-5.3314,-5.3945,-5.4606,-5.5315,-5.5992,-5.6748,-5.6794,-5.681,-5.681,-5.681,-5.681,-5.681,-5.681,-5.6664,-5.6421,-5.6421,-5.6077,-5.5581,-5.5581,-5.5431,-5.5194,-5.5194,-5.5194,-5.5194,-5.5194,-5.5194,-5.5194,-5.5194,-5.5194,-5.4809,-5.2498,-5.0266,-4.8347,-4.8289,-4.827,0.0,0.0,-4.8198,-4.8237,-4.8237,-4.8211,-4.8198,-4.8224,-4.8198,-4.8185,-4.8185,-4.8185,-4.8185,-4.8185,-4.8185,-4.8185,-4.8185,0.0,-4.8185,-4.8185,-4.8185,-4.8185,-4.8185,-4.8185,-4.8185,-4.8185,-4.8185,-4.8185,-4.8185,-4.8185,-4.8185,-4.8185,-4.8185,-4.8185,-4.8185,-4.8185,-4.8185,-4.8185,-4.8185,0.0,0.0,0.0,0.0,0.0,0.0,0.0,0.0,0.0,0.0,0.0,0.0,0.0,0.0,0.0,0.0,0.0,0.0,0.0,0.0,0.0,0.0,0.0,0.0,0.0,0.0,0.0,0.0,-4.5052,-4.6555,0.0,-4.9995,-5.1506,-5.2452,-5.2698,-5.2713,-5.2713,-5.2713,-5.336,-5.3991,-5.4668,-5.5361,-5.6038,-5.6794,-5.681,-5.681,-5.681,-5.681,-5.681,-5.681,-5.681,-5.6761,-5.6664,-5.647,-5.6176,-5.583,-5.5681,-5.5431,-5.5194,-5.5194,-5.5194,-5.5194,-5.5194,-5.5194,-5.5194,-5.5194,-5.4692,-5.3637,-5.1278,-4.9489,-4.8185,-4.8185,-4.8185,-4.8185,-4.8185,-4.8185,-4.8185,-4.8185,-4.8185,-4.8185,-4.8185,-4.8185,-4.8185,-4.8185,-4.8185,-4.8185,-4.8185,-4.8185,-4.8185,-4.8185,-4.8185,-4.8185,-4.8185,-4.8185,-4.8185,-4.8185,-4.8185,-4.8185,-4.8185,-4.8185,-4.8185,-4.8185,-4.8185,-4.8185,-4.8185,-4.8185,-4.8185,-4.8185,-4.7997,-4.7997,-4.8185,-4.7762,-4.769,0.0,0.0,0.0,0.0,0.0,0.0,0.0,0.0,0.0,0.0,0.0,0.0,0.0,0.0,0.0,0.0,0.0,0.0,0.0,0.0,0.0,0.0,0.0,0.0,0.0,-4.2631,-4.3614,-4.5553,-4.7003,-4.8574,-5.0509,-5.1913,-5.2713,-5.2713,-5.2713,-5.2806,-5.3037,-5.3653,-5.4314,-5.5037,-5.5699,-5.6332,-5.681,-5.681,-5.681,-5.681,-5.681,-5.681,-5.681,-5.6713,-5.6616,-5.6519,-5.6274,-5.5979,-5.5731,-5.5531,-5.5345,-5.5194,-5.5194,-5.5194,-5.5194,-5.5194,-5.5194,-5.5194,-5.5194,-5.4149,-5.2537,-5.1017,-4.9432,-4.8185,-4.8185,-4.8185,-4.8185,-4.8185,-4.8185,-4.8185,-4.8185,-4.8185,-4.8185,-4.8185,-4.8185,-4.8185,-4.8185,-4.8185,-4.8185,-4.8185,-4.8185,-4.8185,-4.8185,-4.8185,-4.8185,-4.8185,-4.8185,-4.8185,-4.8185,-4.8185,-4.8185,-4.8185,-4.8185,-4.8185,-4.8185,-4.8185,-4.8185,-4.8185,-4.8185,-4.8185,-4.8185,-4.7997,-4.7997,-4.8185,-4.7573,-4.7455,-4.788,0.0,0.0,0.0,0.0,0.0,0.0,0.0,0.0,0.0,0.0,0.0,0.0,0.0,0.0,0.0,0.0,0.0,0.0,0.0,0.0,0.0,0.0,0.0,-4.2449,-4.2741,-4.3662,-4.5582,-4.7003,-4.8574,-5.0539,-5.1929,-5.2713,-5.2713,-5.2713,-5.3006,-5.3683,-5.4314,-5.5037,-5.5669,-5.644,-5.681,-5.681,-5.681,-5.681,-5.681,-5.681,-5.681,-5.681,-5.6519,-5.6274,-5.5979,-5.5731,-5.5481,-5.5194,-5.5194,-5.5194,-5.5194,-5.5194,-5.5194,-5.5194,-5.5194,-5.5194,-5.5194,-5.5143,-5.36,-5.1688,-5.1634,-5.0041,-4.8185,-4.8185,-4.8185,-4.8185,-4.8185,-4.8185,-4.8185,-4.8185,-4.8185,-4.8185,-4.8185,-4.8185,-4.8185,-4.8185,-4.8185,-4.8185,-4.8185,-4.8185,-4.8185,-4.8185,-4.8185,-4.8185,-4.8185,-4.8185,0.0,-4.8185,-4.8185,-4.8185,-4.8185,-4.8185,-4.8185,-4.8185,-4.8185,-4.8185,-4.8185,-4.8185,-4.8185,-4.8185,-4.8185,-4.8185,-4.8185,-4.7573,-4.7205,-4.7205,0.0,0.0,0.0,0.0,0.0,0.0,0.0,0.0,0.0,0.0,0.0,0.0,0.0,0.0,0.0,0.0,0.0,0.0,0.0,0.0,0.0,-4.198,-4.2128,-4.219,-4.3204,-4.4575,-4.6326,-4.7876,-4.9494,-5.1243,-5.2206,-5.2713,-5.2713,-5.2713,-5.3006,-5.3683,-5.4314,-5.5037,-5.5669,-5.644,-5.681,-5.681,-5.681,-5.681,-5.681,-5.681,-5.681,-5.681,-5.6713,-5.6567,-5.6274,-5.6028,-5.5731,-5.5481,-5.5295,-5.5194,-5.5194,-5.5194,-5.5194,-5.5194,-5.5194,-5.5194,-5.4976,-5.327,-5.223,-5.1415,-4.9716,-4.874,-4.8185,-4.8185,-4.8185,-4.8185,-4.8185,-4.8185,-4.8185,-4.8185,-4.8185,-4.8185,-4.8185,-4.8185,-4.8185,-4.8185,-4.8185,-4.8185,-4.8185,-4.8185,-4.8185,-4.8185,-4.8185,-4.8185,-4.8185,-4.8185,-4.8185,-4.8185,-4.8185,-4.8185,-4.8185,-4.8185,-4.8185,-4.8185,-4.8185,-4.8185,-4.8185,-4.8185,-4.8185,-4.8185,-4.7938,-4.7657,-4.7197,-4.7409,-4.7349,0.0,0.0,0.0,0.0,0.0,0.0,0.0,0.0,0.0,0.0,0.0,0.0,0.0,0.0,0.0,0.0,0.0,0.0,0.0,0.0,0.0,0.0,-4.2029,-4.2128,-4.2239,-4.3444,-4.4911,-4.6604,-4.8206,-4.9854,-5.1548,-5.2313,-5.2713,-5.2713,-5.2713,-5.3006,-5.3683,-5.4314,-5.5037,-5.5669,-5.644,-5.681,-5.681,-5.681,-5.681,-5.681,-5.681,-5.681,-5.681,-5.6567,-5.6372,-5.6225,-5.583,-5.5581,-5.5431,-5.5244,-5.5194,-5.5194,0.0,0.0,0.0,0.0,-5.486,-5.4237,-5.2886,-5.1783,-5.0698,-4.9388,-4.8566,-4.8185,-4.8185,-4.8185,-4.8185,-4.8185,-4.8185,-4.8185,-4.8185,-4.8185,-4.8185,-4.8185,-4.8185,-4.8185,-4.8185,-4.8185,-4.8185,-4.8185,-4.8185,0.0,-4.8185,-4.8185,-4.8185,-4.8185,-4.8185,-4.8185,-4.8185,-4.8185,-4.8185,-4.8185,-4.8185,-4.8185,-4.8185,-4.8185,0.0,0.0,0.0,-4.8185,-4.8185,-4.7997,0.0,0.0,0.0,-4.7172,-4.6614,-4.6768,0.0,0.0,-4.6539,-4.6616,0.0,0.0,0.0,0.0,0.0,0.0,0.0,0.0,0.0,0.0,0.0,0.0,0.0,0.0,0.0,0.0,-4.1993,-4.2289,-4.2631,-4.3784,-4.5149,-4.672,-4.8356,-5.0018,-5.164,-5.2359,-5.2713,-5.2713,-5.2713,-5.3006,-5.3683,-5.4314,0.0,0.0,0.0,-5.681,-5.681,-5.681,-5.681,-5.681,-5.681,-5.6761,-5.6713,-5.6274,-5.6028,-5.5929,-5.5431,-5.5244,-5.5194,-5.5194,-5.5194,-5.5194,-5.5194,-5.5194,-5.5194,-5.5194,-5.4524,-5.3585,-5.3308,0.0,0.0,-4.9802,-4.8988,-4.8185,-4.8185,-4.8185,-4.8185,-4.8185,-4.8185,-4.8185,-4.8185,-4.8185,-4.8185,-4.8185,-4.8185,-4.8185,-4.8185,-4.8185,-4.8185,-4.8185,-4.8185,-4.8185,-4.8185,-4.8185,-4.8185,-4.8185,-4.8185,-4.8185,-4.8185,-4.8185,-4.8185,-4.8185,-4.8185,0.0,-4.8185,-4.8185,-4.8185,-4.8185,-4.8185,-4.8185,-4.8185,-4.8185,-4.7841,-4.7116,-4.7057,-4.6735,-4.6125,-4.6125,-4.5874,-4.5409,-4.626,-4.6607,0.0,0.0,0.0,0.0,0.0,0.0,0.0,0.0,0.0,0.0,0.0,0.0,0.0,0.0,0.0,-4.198,-4.2239,-4.2763,-4.381,-4.5295,-4.6642,-4.7512,-4.9254,-5.0984,-5.2346,-5.2637,-5.2713,-5.2713,-5.2713,-5.3006,-5.3683,-5.4314,-5.5037,-5.5669,-5.644,-5.681,-5.681,-5.681,-5.681,-5.681,-5.681,0.0,-5.647,-5.6372,-5.6077,-5.5681,-5.5581,-5.5381,-5.5194,-5.5194,-5.5194,-5.5194,-5.5194,-5.5194,-5.5194,-5.5194,-5.5027,-5.4575,-5.2673,-5.1743,-5.1031,-4.9173,-4.8405,-4.8185,-4.8185,-4.8185,0.0,-4.8185,-4.8185,-4.8185,-4.8185,-4.8185,-4.8185,-4.8185,-4.8185,-4.8185,-4.8185,-4.8185,-4.8185,-4.8185,-4.8185,-4.8185,-4.8185,-4.8185,-4.8185,-4.8185,-4.8185,-4.8185,-4.8185,-4.8185,-4.8185,-4.8185,-4.8185,-4.8185,-4.8185,-4.8185,-4.8185,-4.8185,-4.8185,-4.8185,-4.8185,-4.7938,-4.7425,-4.6578,-4.6259,-4.5737,-4.4957,-4.4957,-4.4895,-4.4807,-4.5443,-4.5515,0.0,0.0,0.0,0.0,0.0,0.0,0.0,0.0,0.0,0.0,0.0,-4.1311,-4.1311,0.0,-4.1796,-4.2079,-4.2351,-4.279,-4.3505,-4.5456,-4.7245,-4.8394,-5.0093,-5.1605,-5.2606,-5.2713,-5.2713,-5.2713,-5.2713,-5.2867,-5.3206,-5.4129,-5.4837,-5.5207,-5.6223,-5.681,-5.681,-5.681,-5.681,-5.681,-5.681,-5.6713,-5.6616,-5.6323,-5.6077,-5.578,-5.5531,-5.5345,-5.5194,-5.5194,-5.5194,-5.5194,-5.5194,-5.5194,-5.5194,-5.5194,-5.4473,-5.327,-5.2122,-5.092,-4.9773,-4.8566,-4.8185,-4.8185,-4.8185,-4.8185,-4.8185,-4.8185,-4.8185,-4.8185,-4.8185,-4.8185,-4.8185,-4.8185,-4.8185,-4.8185,-4.8185,-4.8185,-4.8185,-4.8185,-4.8185,-4.8185,-4.8185,-4.8185,-4.8185,-4.8185,-4.8185,-4.8185,-4.8185,-4.8185,-4.8185,-4.8185,-4.8185,-4.8185,-4.8185,-4.8185,-4.8185,-4.8185,-4.7924,-4.7709,-4.7535,-4.7249,-4.6662,-4.5757,-4.5757,-4.5372,-4.4618,-4.4618,-4.448,-4.4217,-4.4505,-4.4631,0.0,0.0,0.0,0.0,0.0,0.0,0.0,-4.1311,-4.1311,-4.1311,-4.1311,-4.1311,-4.1311,-4.1511,-4.1796,-4.2079,-4.2351,-4.2644,-4.3115,-4.5383,-4.7559,-4.9,-5.0663,-5.1959,-5.2652,-5.2713,-5.2713,-5.2713,-5.2713,-5.2713,-5.2713,-5.3945,-5.4683,-5.4683,-5.6053,-5.681,-5.681,-5.681,-5.681,-5.681,-5.681,-5.6761,-5.6616,-5.6225,-5.5929,-5.583,-5.5396,-5.5194,-5.5194,-5.5194,-5.5194,-5.5194,-5.5194,-5.5194,-5.5194,-5.5194,-5.3875,-5.2014,-5.1797,-5.0322,-4.8508,-4.8289,-4.8185,-4.8185,-4.8185,-4.8185,-4.8185,-4.8185,-4.8185,-4.8185,-4.8185,-4.8185,-4.8185,-4.8185,-4.8185,-4.8185,-4.8185,-4.8185,-4.8185,-4.8185,-4.8185,-4.8185,-4.8185,-4.8185,-4.8185,-4.8185,-4.8185,-4.8185,-4.8185,-4.8185,-4.8185,-4.8185,-4.8185,-4.8133,-4.8028,-4.8028,-4.7963,-4.78,-4.7357,-4.7007,-4.672,-4.6451,-4.5912,-4.5043,-4.517,-4.4935,-4.4305,-4.4305,-4.4079,-4.3639,-4.3639,-4.3878,-3.4524,-3.5212,-3.634,-3.7583,-3.8859,-4.0083,0.0,-4.1311,-4.1311,-4.1311,-4.1311,-4.1311,-4.1311,-4.1511,-4.1796,-4.2079,-4.2351,-4.286,-4.3998,-4.6207,-4.8058,-4.9104,-5.0663,-5.1959,-5.2652,-5.2713,-5.2713,-5.2713,-5.2713,-5.2713,-5.2713,-5.3945,-5.4683,-5.4683,-5.6053,-5.681,-5.681,-5.681,-5.681,-5.681,-5.681,-5.6567,-5.6077,-5.6028,-5.5731,-5.5295,-5.5244,-5.5194,-5.5194,-5.5194,-5.5194,-5.5194,-5.5194,-5.5194,-5.5194,-5.5194,-5.4355,-5.3083,-5.2068,-5.0809,-4.9532,-4.8508,-4.8185,-4.8185,-4.8185,-4.8185,-4.8185,-4.8185,-4.8185,-4.8185,-4.8185,-4.8185,-4.8185,-4.8185,-4.8185,-4.8185,-4.8185,-4.8185,-4.8185,-4.8185,-4.8185,-4.8185,-4.8185,-4.8185,-4.8185,-4.8185,-4.8185,-4.8185,-4.8185,-4.8185,-4.8185,-4.8185,-4.8185,-4.7976,-4.7479,-4.7427,-4.709,-4.6285,-4.6491,-4.6452,-4.6099,-4.5819,-4.5379,-4.474,-4.4288,-4.3708,-4.3162,-4.3162,-4.3137,-4.3074,-4.3074,-4.3099,-3.5323,-3.6329,-3.7489,-3.8586,-3.9763,-4.0732,-4.1211,-4.1311,-4.1311,-4.1311,-4.1311,-4.1311,-4.1311,-4.1511,-4.1796,-4.2079,-4.2351,-4.3079,-4.4662,-4.6587,-4.8278,-4.9643,-5.1241,-5.2406,-5.2683,-5.2713,-5.2713,-5.2713,-5.2713,-5.2713,-5.2713,-5.3945,-5.4683,-5.4683,-5.6053,-5.681,-5.681,-5.681,-5.681,-5.681,-5.6664,-5.647,-5.6225,-5.5929,-5.5581,-5.5194,-5.5194,-5.5194,-5.5194,-5.5194,-5.5194,-5.5194,-5.5194,-5.5194,-5.5128,-5.4406,-5.3413,-5.2216,-5.1072,-4.9872,-4.8828,-4.8347,-4.8185,-4.8185,-4.8185,-4.8185,-4.8185,-4.8185,-4.8185,-4.8185,-4.8185,-4.8185,-4.8185,-4.8185,-4.8185,-4.8185,-4.8185,-4.8185,-4.8185,-4.8185,-4.8185,-4.8185,-4.8185,-4.7911,-4.7689,-4.7689,-4.7976,-4.8185,-4.8185,-4.7898,-4.7571,-4.7231,-4.7192,-4.71,-4.6852,-4.6839,-4.6608,-4.6021,-4.581,-4.5572,-4.5278,-4.4814,-4.442,-4.3972,-4.3693,-4.3368,-4.2974,-4.2974,-4.2974,-4.2974,-4.2974,-4.2974,-3.597,-3.7275,-3.8586,-3.939,-4.0453,-4.1311,-4.1311,-4.1311,-4.1311,-4.1311,-4.1311,-4.1311,-4.1311,-4.1461,-4.1696,-4.2029,-4.2239,-4.3063,-4.5046,-4.676,-4.838,-5.0016,-5.1668,-5.2713,-5.2713,-5.2713,-5.2713,-5.2713,-5.2713,-5.279,-5.2975,-5.4053,-5.476,-5.4991,-5.6146,-5.681,-5.681,-5.681,-5.681,-5.681,-5.6519,-5.6372,-5.6274,-5.5731,-5.5381,-5.5194,-5.5194,-5.5194,-5.5194,-5.5194,-5.5194,-5.5194,-5.5194,-5.5194,-5.5027,-5.348,-5.2391,-5.1525,-5.0294,-4.916,-4.8185,-4.8185,-4.8185,-4.8185,-4.8185,-4.8185,-4.8185,-4.8185,-4.8185,-4.8146,-4.7989,-4.795,-4.7911,-4.7754,-4.7715,-4.7715,-4.7715,-4.7715,-4.7715,-4.7715,-4.7715,-4.7715,-4.7715,-4.7375,-4.71,-4.71,-4.7453,-4.7715,-4.7715,-4.7349,-4.6944,-4.6525,-4.6473,-4.6408,-4.6264,-4.6238,-4.6061,-4.5542,-4.5154,-4.481,-4.4476,-4.4036,-4.364,-4.3394,-4.3338,-4.3184,-4.2974,-4.2974,-4.2974,-4.2974,-4.2974,-4.2974,-3.6177,-3.782,-3.9545,-3.9609,-4.0453,-4.1311,-4.1311,-4.1311,-4.1311,-4.1311,-4.1311,-4.1311,-4.1311,-4.1311,-4.1511,-4.2029,-4.2128,-4.2841,-4.4998,-4.676,-4.838,-5.0016,-5.1668,-5.2713,-5.2713,-5.2713,-5.2713,-5.2713,-5.2713,-5.2991,-5.3607,-5.4299,-5.5022,-5.5638,-5.6425,-5.681,-5.681,-5.681,-5.681,-5.681,-5.6519,-5.6274,-5.5979,-5.5446,-5.5194,-5.5194,-5.5194,-5.5194,-5.5194,-5.5194,-5.5194,-5.5194,-5.5194,-5.5194,-5.4911,-5.2619,-5.1743,-5.1525,-5.0294,-4.916,-4.8185,-4.8185,-4.8185,-4.8185,-4.8185,-4.8185,-4.8185,-4.8185,-4.8185,-4.8068,-4.7506,-4.7304,-4.7218,-4.6669,-4.6525,-4.6525,-4.6525,-4.6525,-4.6525,-4.6525,-4.6525,-4.6525,-4.6525,-4.6512,-4.6499,-4.6499,-4.6525,-4.6525,-4.6525,-4.6512,-4.6499,-4.6473,-4.6473,-4.6251,-4.5702,-4.565,-4.5236,-4.4403,-4.4351,-4.4187,-4.3925,-4.3598,-4.3394,-4.3394,-4.3129,-4.303,-4.2974,-4.2974,-4.2974,-4.2974,-4.2974,-4.2974,-3.8019,-3.9028,-3.9763,-4.0567,-4.0997,-4.1311,-4.1311,-4.1311,-4.1311,-4.1311,-4.1311,-4.1311,-4.1311,-4.1311,-4.1461,-4.2029,-4.2079,-4.3256,-4.65,-4.7442,-4.8835,-5.1561,-5.238,-5.2713,-5.2713,-5.2713,-5.2713,-5.2713,-5.2713,-5.3006,-5.3683,-5.4314,-5.5037,-5.5669,-5.644,-5.681,-5.681,-5.681,-5.681,-5.681,-5.6372,-5.588,-5.5481,-5.5295,-5.5194,-5.5194,-5.5194,-5.5194,-5.5194,-5.5194,-5.5194,-5.5194,-5.5194,-5.4692,-5.3808,-5.2284,-5.1182,-5.0364,-4.916,-4.8508,-4.8185,-4.8185,-4.8185,-4.812,-4.7728,-4.7623,-4.7545,-4.7153,-4.7048,-4.7009,-4.6813,-4.6774,-4.6721,-4.6525,-4.6473,-4.6473,-4.6473,-4.6473,-4.6473,-4.6473,-4.6473,-4.6473,-4.6473,-4.6173,-4.578,-4.5375,-4.5976,-4.6342,-4.5963,-4.5911,-4.5712,-4.51,-4.5048,-4.4983,-4.4733,-4.472,-4.4629,-4.4326,-4.4107,-4.401,-4.3899,-4.3432,-4.324,-4.3394,-4.3129,-4.2974,-4.2974,-4.2974,-4.2974,-4.2974,-4.2974,-4.2974,-3.9183,-3.9917,-4.0402,-4.111,-4.1311,-4.1311,-4.1311,-4.1311,-4.1311,-4.1311,-4.1311,-4.1311,-4.1311,-4.1311,-4.1461,-4.2029,-4.257,-4.4077,-4.7333,-4.829,-4.9637,-5.238,-5.2713,-5.2713,-5.2713,-5.2713,-5.2713,-5.2713,-5.2713,-5.3114,-5.3991,-5.4452,-5.5145,-5.6038,-5.6563,-5.681,-5.681,-5.681,-5.6713,-5.6519,-5.6077,-5.5631,-5.5194,-5.5194,-5.5194,-5.5194,-5.5194,-5.5194,-5.5194,-5.5194,-5.5194,-5.5194,-5.5194,-5.4458,-5.3256,-5.2108,-5.0837,-4.9489,-4.8558,-4.8054,-4.7885,-4.7885,-4.7741,-4.7506,-4.714,-4.7022,-4.6944,-4.6578,-4.6473,-4.6434,-4.6225,-4.6173,-4.612,-4.5911,-4.5859,-4.5859,-4.5859,-4.5859,-4.5859,-4.5859,-4.5859,-4.5859,-4.5859,-4.5545,-4.5125,-4.4787,-4.5375,-4.5673,-4.5197,-4.52,-4.5057,-4.4351,-4.4313,-4.4313,-4.4313,-4.4313,-4.4313,-4.4313,-4.4052,-4.3899,-4.3899,-4.3321,-4.3085,-4.324,-4.3085,-4.2974,-4.2974,-4.2974,-4.2974,-4.2974,-4.2974,-4.2974,-3.9661,-4.0465,-4.1311,-4.1311,-4.1311,-4.1311,-4.1311,-4.1311,-4.1311,-4.1311,-4.1311,-4.1311,-4.1311,-4.1311,-4.1461,-4.198,-4.3378,-4.5202,-4.7438,-4.9121,-5.0773,-5.2486,-5.2713,-5.2713,-5.2713,-5.2713,-5.2729,-5.276,-5.276,-5.3345,-5.4606,-5.4714,-5.5391,-5.6779,-5.681,-5.681,-5.681,-5.6761,-5.6519,-5.5979,-5.5731,-5.5446,-5.5194,-5.5194,-5.5194,-5.5194,-5.5194,-5.5194,-5.5194,-5.5194,-5.5194,-5.5194,-5.5128,-5.434,-5.3145,-5.1957,-5.045,-4.8906,-4.8302,-4.7741,-4.7239,-4.7239,-4.6917,-4.6473,-4.6447,-4.6434,-4.6434,-4.6395,-4.6395,-4.6264,-4.5728,-4.5529,-4.5386,-4.4866,-4.4668,-4.4668,-4.4668,-4.4668,-4.4668,-4.4668,-4.4668,-4.4668,-4.4668,-4.4668,-4.4668,-4.4668,-4.4668,-4.4626,-4.4367,-4.4518,-4.4572,-4.4313,-4.4258,-4.4258,-4.4258,-4.4258,-4.4258,-4.4258,-4.3997,-4.3899,-4.3899,-4.3321,-4.2974,-4.2974,-4.2974,-4.2974,-4.2974,-4.2974,-4.2974,-4.2974,-4.2974,-4.2974,-4.0618,-4.1097,-4.1311,-4.1311,-4.1311,-4.1311,-4.1311,-4.1311,-4.1311,-4.1311,-4.1311,-4.1311,-4.1311,-4.1311,-4.1411,-4.1746,-4.2671,-4.4362,-4.7094,-4.8406,-4.9959,-5.2426,-5.2713,-5.2713,-5.2713,-5.2713,-5.2929,-5.3437,-5.3468,-5.3791,-5.4637,-5.5176,-5.5853,-5.6779,-5.681,-5.681,-5.681,-5.6616,-5.6225,-5.5681,-5.5631,-5.5446,-5.5194,-5.5194,-5.5194,-5.5194,-5.5194,-5.5194,-5.5194,-5.5194,-5.5194,-5.5128,-5.4186,-5.2861,-5.1321,-5.016,-4.8647,-4.7146,-4.6966,-4.6813,-4.6695,-4.6695,-4.6591,-4.6408,-4.5976,-4.5846,-4.5754,-4.531,-4.5166,-4.514,-4.4996,-4.4957,-4.4918,-4.4761,-4.4668,-4.4668,-4.4668,-4.4668,-4.4668,-4.4668,-4.4668,-4.4668,-4.4668,-4.4668,-4.4668,-4.4668,-4.4668,-4.4681,-4.4626,-4.4463,-4.4313,-4.4052,-4.3751,-4.3628,-4.3628,-4.3628,-4.3751,-4.401,-4.3696,-4.3517,-4.3517,-4.3197,-4.2974,-4.2974,-4.2974,-4.2974,-4.2974,-4.2974,-4.2974,-4.2974,-4.2974,-4.25,-4.1161,-4.1311,-4.1311,-4.1311,-4.1311,-4.1311,-4.1311,-4.1311,-4.1311,-4.1311,-4.1311,-4.1311,-4.1311,-4.1311,-4.1411,-4.1647,-4.344,-4.5358,-4.7137,-4.9171,-5.1013,-5.2517,-5.2452,-5.239,-5.2683,-5.2436,-5.2667,-5.3652,-5.3729,-5.4145,-5.5099,-5.5499,-5.6023,-5.6794,-5.681,-5.6761,-5.6616,-5.6225,-5.588,-5.5581,-5.5481,-5.5345,-5.5194,-5.5194,-5.5194,-5.5194,-5.5194,-5.5194,-5.5194,-5.5194,-5.5029,-5.4645,-5.3488,-5.1962,-5.0247,-4.9091,-4.76,-4.6107,-4.6107,-4.5924,-4.5754,-4.6016,-4.5924,-4.565,-4.5323,-4.5232,-4.5098,-4.4826,-4.4668,-4.4668,-4.4668,-4.4668,-4.4668,-4.4668,-4.4668,-4.4668,-4.4668,-4.4668,-4.4668,-4.4668,-4.4668,-4.4668,-4.4668,-4.4668,-4.4668,-4.4668,-4.4668,-4.4681,-4.4518,-4.4518,-4.4313,-4.3955,-4.3708,-4.3572,-4.3394,-4.3394,-4.3462,-4.3653,-4.3517,-4.3394,-4.3394,-4.3129,-4.2974,-4.2974,-4.2974,-4.2974,-4.2974,-4.2974,-4.2974,-4.2974,-4.2444,-4.1797,-4.1311,-4.1311,-4.1311,-4.1311,-4.1311,-4.1311,-4.1311,-4.1311,-4.1311,-4.1311,-4.1311,-4.1311,-4.1311,-4.1311,-4.1387,-4.1702,-4.4581,-4.6928,-4.739,-5.0361,-5.2563,-5.2669,-5.2113,-5.1959,-5.2652,-5.2175,-5.2406,-5.3714,-5.3929,-5.4483,-5.5622,-5.5776,-5.6115,-5.6746,-5.6761,-5.6616,-5.6323,-5.583,-5.5581,-5.5531,-5.5295,-5.5194,-5.5194,-5.5194,-5.5194,-5.5194,-5.5194,-5.5194,-5.5179,-5.5089,-5.4665,-5.3878,-5.269,-5.1095,-4.9378,-4.8232,-4.6821,-4.5451,-4.5451,-4.5111,-4.4759,-4.5281,-4.5153,-4.4668,-4.4668,-4.4668,-4.4668,-4.4668,-4.4668,-4.4668,-4.4668,-4.4668,-4.4668,-4.4668,-4.4668,-4.4668,-4.4668,-4.4668,-4.4668,-4.4668,-4.4668,-4.4668,-4.4668,-4.4668,-4.4668,-4.4668,-4.4668,-4.4626,-4.4313,-4.4518,-4.4409,-4.3887,-4.3832,-4.3708,-4.3338,-4.3338,-4.3338,-4.3338,-4.3338,-4.3338,-4.3338,-4.3141,-4.2974,-4.2974,-4.2974,-4.2974,-4.2974,-4.2974,-4.2918,-4.2737,-4.1627,-4.0916,-4.1311,-4.1311,-4.1311,-4.1311,-4.1311,-4.1311,-4.1311,-4.1311,-4.1311,-4.1311,-4.1311,-4.1311,-4.1311,-4.1311,-4.1468,-4.204,-4.4122,-4.6196,-4.7629,-4.9852,-5.1712,-5.2608,-5.2113,-5.1959,-5.2652,-5.2606,-5.3098,-5.4406,-5.5053,-5.5453,-5.5684,-5.6301,-5.659,-5.6454,-5.647,-5.6225,-5.5731,-5.5631,-5.5481,-5.5295,-5.5244,-5.5194,-5.5194,-5.5194,-5.5194,-5.5194,-5.5194,-5.5194,-5.5149,-5.4596,-5.3766,-5.2683,-5.0971,-4.928,-4.7672,-4.6498,-4.5553,-4.4879,-4.4879,-4.4759,-4.4748,-4.4798,-4.4813,-4.4668,-4.4668,-4.4668,-4.4668,-4.4668,-4.4668,-4.4668,-4.4668,-4.4668,-4.4668,-4.4668,-4.4668,-4.4668,-4.4668,-4.4668,-4.4668,-4.4668,-4.4668,-4.4668,-4.4668,-4.4668,-4.4668,-4.4668,-4.4668,-4.4626,-4.4313,-4.4367,-4.4136,-4.3572,-4.3517,-4.3351,-4.3085,-4.3085,-4.3085,-4.3085,-4.3085,-4.3085,-4.3085,-4.303,-4.2974,-4.2974,-4.2974,-4.2974,-4.2974,-4.2974,-4.2444,-4.1444,-4.1215,-3.9966,-4.1311,-4.1311,-4.1311,-4.1311,-4.1311,-4.1311,-4.1311,-4.1311,-4.1311,-4.1311,-4.1311,-4.1311,-4.1311,-4.1733,-4.2288,-4.2951,-4.5296,-4.7443,-4.8555,-5.0566,-5.1987,-5.2176,-5.159,-5.1575,-5.2606,-5.239,-5.3037,-5.5084,-5.5515,-5.5853,-5.6223,-5.6625,-5.6761,-5.6616,-5.6323,-5.6077,-5.583,-5.5531,-5.5345,-5.5194,-5.5194,-5.5194,-5.5194,-5.5194,-5.5194,-5.5194,-5.5194,-5.5194,-5.5084,-5.3879,-5.2872,-5.1853,-4.9476,-4.7881,-4.6755,-4.5576,-4.4929,-4.4668,-4.4668,-4.4668,-4.4668,-4.4668,-4.4668,-4.4668,-4.4668,-4.4668,-4.4668,-4.4668,-4.4668,-4.4668,-4.4668,-4.4668,-4.4668,-4.4668,-4.4668,-4.4668,-4.4668,-4.4668,-4.4668,-4.4668,-4.4668,-4.4668,-4.4668,-4.4668,-4.4668,-4.4668,-4.4668,-4.4626,-4.4313,-4.4313,-4.4081,-4.3449,-4.3394,-4.3295,-4.303,-4.2974,-4.2974,-4.2974,-4.2974,-4.2974,-4.2974,-4.2974,-4.2974,-4.2974,-4.2974,-4.2974,-4.2974,-4.2331,-4.1684,-4.11,-3.9733,-3.8484,-4.1311,-4.1311,-4.1311,-4.1311,-4.1311,-4.1311,-4.1311,-4.1311,-4.1311,-4.1311,-4.1311,-4.1361,-4.1597,-4.2284,-4.3133,-4.4127,-4.6675,-4.878,-4.9577,-5.1394,-5.2467,-5.1775,-5.1359,-5.1544,-5.2606,-5.2498,-5.3283,-5.553,-5.5838,-5.6176,-5.6779,-5.681,-5.6761,-5.6616,-5.6225,-5.5929,-5.583,-5.5396,-5.5194,-5.5194,-5.5194,-5.5194,-5.5194,-5.5194,-5.5194,-5.5194,-5.5194,-5.5027,-5.4699,-5.3158,-5.196,-5.0809,-4.8326,-4.6865,-4.6088,-4.5085,-4.4668,-4.4668,-4.4668,-4.4668,-4.4668,-4.4668,-4.4668,-4.4668,-4.4668,-4.4668,-4.4668,-4.4668,-4.4668,-4.4668,-4.4668,-4.4668,-4.4668,-4.4668,-4.4668,-4.4668,-4.4668,-4.4668,-4.4668,-4.4668,-4.4668,-4.4668,-4.4668,-4.4668,-4.4668,-4.4668,-4.4668,-4.4626,-4.4313,-4.4258,-4.4039,-4.3572,-4.3449,-4.3295,-4.303,-4.2974,-4.2974,-4.2974,-4.2974,-4.2974,-4.2974,-4.2974,-4.2974,-4.2974,-4.2974,-4.2974,-4.2974,-4.1741,-4.0973,-4.0628,-3.8365,-3.7127,-4.1311,-4.1311,-4.1311,-4.1311,-4.1311,-4.1311,-4.1311,-4.1311,-4.1311,-4.1311,-4.1311,-4.1597,-4.2466,-4.2744,-4.3498,-4.5532,-4.7388,-4.8896,-5.0073,-5.1635,-5.2467,-5.1775,-5.219,-5.2575,-5.2698,-5.3775,-5.4807,-5.5622,-5.6347,-5.6748,-5.681,-5.681,-5.6567,-5.6077,-5.6028,-5.578,-5.5295,-5.5244,-5.5194,-5.5194,-5.5194,-5.5194,-5.5194,-5.5194,-5.5194,-5.5194,-5.5194,-5.4575,-5.3527,-5.2731,-5.1212,-4.92,-4.7771,-4.6611,-4.5577,-4.4931,-4.4668,-4.4668,-4.4668,-4.4668,-4.4668,-4.4668,-4.4668,-4.4668,-4.4668,-4.4668,-4.4668,-4.4668,-4.4668,-4.4668,-4.4668,-4.4668,-4.4668,-4.4668,-4.4668,-4.4668,-4.4668,-4.4668,-4.4668,-4.4668,-4.4668,-4.4668,-4.4668,-4.4668,-4.4668,-4.4668,-4.4668,-4.4626,-4.4313,-4.4107,-4.3899,-4.3832,-4.3585,-4.3295,-4.303,-4.2974,-4.2974,-4.2974,-4.2974,-4.2974,-4.2974,-4.2974,-4.2974,-4.2974,-4.2974,-4.2974,-4.2974,-4.1741,-4.0512,-3.9334,-3.7958,-3.6653,-4.1311,-4.1311,-4.1311,-4.1311,-4.1311,-4.1311,-4.1311,-4.1311,-4.1311,-4.1311,-4.1782,-4.2333,-4.2744,-4.3768,-4.5206,-4.7012,-4.8468,-4.987,-5.1331,-5.2215,-5.2467,-5.1775,-5.2298,-5.2867,-5.3283,-5.4129,-5.5176,-5.6301,-5.664,-5.6713,-5.6567,-5.6567,-5.647,-5.6274,-5.5929,-5.5631,-5.5431,-5.5295,-5.5194,-5.5194,-5.5194,-5.5194,-5.5194,-5.5194,-5.5194,-5.5194,-5.5194,-5.4524,-5.3303,-5.1986,-5.0507,-4.8937,-4.7411,-4.6497,-4.6068,-4.548,-4.5216,-4.5218,-4.4853,-4.4668,-4.4668,-4.4668,-4.4668,-4.4668,-4.4668,-4.4668,-4.4668,-4.4668,-4.4668,-4.4668,-4.4668,-4.4668,-4.4668,-4.4668,-4.4668,-4.4668,-4.4668,-4.4668,-4.4668,-4.4668,-4.4668,-4.4668,-4.4668,-4.4668,-4.4668,-4.4668,-4.4668,-4.4681,-4.4572,-4.4313,-4.4161,-4.4161,-4.353,-4.3252,-4.35,-4.3209,-4.3085,-4.324,-4.3085,-4.2974,-4.2974,-4.2974,-4.2974,-4.2974,-4.2974,-4.2974,-4.2974,-4.1741,-4.0454,-3.9157,-3.7899,-3.6592,-4.1311,-4.1311,-4.1311,-4.1311,-4.1311,-4.1361,-4.1683,-4.1733,-4.1819,-4.2115,-4.2757,-4.3307,-4.3626,-4.484,-4.6381,0.0,-4.9329,-5.0512,-5.1987,-5.2473,-5.2529,-5.2052,-5.2775,-5.3498,-5.3929,-5.4822,-5.573,-5.6748,-5.6713,-5.6616,-5.6421,-5.6274,-5.6176,-5.6176,-5.578,-5.5581,-5.5481,-5.528,-5.5194,-5.5194,-5.5194,-5.5194,-5.5194,-5.5194,-5.5194,-5.5194,-5.5194,-5.4304,-5.2789,-5.1587,-5.0188,-4.8675,-4.7284,-4.663,-4.6408,-4.5833,-4.5519,-4.5242,-4.4879,-4.4668,-4.4668,-4.4668,-4.4668,-4.4668,-4.4668,-4.4668,-4.4668,-4.4668,-4.4668,-4.4668,-4.4668,-4.4668,-4.4668,-4.4668,-4.4668,-4.4668,-4.4668,-4.4668,-4.4668,-4.4668,-4.4668,-4.4668,-4.4668,-4.4668,-4.4668,-4.4668,-4.4668,-4.4668,-4.4668,-4.4463,-4.4313,-4.4422,-4.3708,-4.3376,-4.3708,-4.3364,-4.3184,-4.3295,-4.3085,-4.2974,-4.2974,-4.2974,-4.2974,-4.2974,-4.2974,-4.2974,-4.2974,-4.1741,-4.0454,-3.9157,-3.7899,-3.6592,-4.1311,-4.1311,-4.1311,-4.1311,-4.1311,-4.1547,-4.2563,-4.2792,-4.3081,-4.4078,-4.4266,-4.4591,-4.5598,-4.5779,-4.6576,0.0,0.0,-5.0483,-5.1805,-5.2397,-5.2713,-5.2698,-5.3883,-5.4668,-5.4668,-5.5946,-5.6794,-5.681,-5.6567,-5.6421,-5.6421,-5.588,-5.5631,-5.5631,-5.5581,-5.5481,-5.5194,-5.5194,-5.5194,-5.5194,-5.5194,-5.5194,-5.5194,-5.5194,-5.5194,-5.5194,-5.5194,-5.3875,-5.1743,-5.1688,-5.0322,-4.8178,-4.7545,-4.6983,-4.6408,-4.5833,-4.519,-4.4681,-4.4668,-4.4668,-4.4668,-4.4668,-4.4668,-4.4668,-4.4668,-4.4668,-4.4668,-4.4668,-4.4668,-4.4668,-4.4668,-4.4668,-4.4668,-4.4668,-4.4668,-4.4668,-4.4668,-4.4668,-4.4668,-4.4668,-4.4668,-4.4668,-4.4668,-4.4668,-4.4668,-4.4668,-4.4668,-4.4668,-4.4668,-4.4463,-4.4422,-4.4681,-4.4203,-4.3776,-4.3449,-4.3394,-4.3295,-4.303,-4.2974,-4.2974,-4.2974,-4.2974,-4.2974,-4.2974,-4.2974,-4.2974,-4.2974,-4.1741,-4.0454,-3.9157,-3.7899,-3.6592,-4.1311,-4.1819,-4.2137,-4.1448,-4.2346,-4.3225,-4.2889,-4.3307,-4.3923,-4.4219,-4.4869,-4.5403,-4.5734,-4.6756,-4.7956,0.0,0.0,-5.0774,-5.1865,-5.2139,-5.2246,-5.2412,-5.3591,-5.4738,-5.5493,-5.6176,-5.647,-5.6274,-5.6323,-5.6225,-5.588,-5.5681,-5.5581,-5.5581,-5.5431,-5.5295,-5.5194,-5.5194,-5.5194,-5.5194,-5.5194,-5.5194,-5.5194,-5.5194,-5.4743,-5.3964,-5.3964,-5.2658,-5.0462,-5.0462,-4.9546,-4.8133,-4.7558,-4.6983,-4.6355,-4.5375,-4.4643,-4.4081,-4.3689,-4.3559,-4.3559,-4.3559,-4.3559,-4.3559,-4.3559,-4.4054,-4.4668,-4.4668,-4.4668,-4.4668,-4.4668,-4.4668,-4.4668,-4.4668,-4.4668,-4.4668,-4.4668,-4.4668,-4.4668,-4.4668,-4.4668,-4.4668,-4.4668,-4.4668,-4.4668,-4.4668,-4.4668,-4.4668,-4.4668,-4.4626,-4.4626,-4.4668,-4.4367,-4.4148,-4.4026,-4.3628,-4.3338,-4.3295,-4.3085,-4.2974,-4.2974,-4.2974,-4.2974,-4.2974,-4.2974,-4.2569,-4.1684,-4.1272,-3.9978,-3.7839,-3.6603,-3.5777,-4.2444,-4.2902,-4.3225,-4.2577,-4.3368,-4.4266,-4.4003,-4.4438,-4.4961,0.0,0.0,0.0,0.0,-4.7585,-4.8625,-4.9659,-5.0276,-5.0879,-5.1743,-5.1941,-5.2215,-5.2886,-5.3987,-5.5038,-5.5907,-5.6176,-5.6176,-5.6028,-5.6077,-5.5929,-5.5631,-5.5481,-5.5431,-5.5431,-5.5295,-5.5194,-5.5194,-5.5194,-5.5194,-5.5194,-5.5194,-5.5194,-5.5194,-5.4743,-5.4134,-5.3361,-5.2924,-5.1548,0.0,-4.9603,-4.8629,-4.7192,-4.6826,-4.6199,-4.5401,-4.4683,-4.4042,-4.3506,-4.3141,-4.3023,-4.3023,-4.3023,-4.3023,-4.3023,-4.3023,-4.352,-4.4081,-4.4081,-4.4081,-4.4134,-4.4343,-4.4408,-4.446,-4.467,-4.4668,-4.4668,-4.4668,-4.4668,-4.4668,-4.4668,-4.4668,-4.4668,-4.4668,-4.4668,-4.4668,-4.4668,-4.4668,-4.4668,-4.4668,-4.4668,-4.4681,-4.4572,-4.4422,-4.4203,-4.3971,-4.3628,-4.3338,-4.324,-4.3085,-4.2974,-4.2974,-4.2974,-4.2974,-4.2974,-4.2974,-4.2625,-4.1797,-4.0858,-3.9322,-3.7298,-3.6002,-3.5418,0.0,-4.4452,-4.4406,-4.4312,-4.4406,-4.473,-4.5598,0.0,0.0,0.0,0.0,0.0,0.0,-4.8401,-4.882,-5.0001,-5.0455,-5.0879,-5.1497,-5.1787,-5.2441,-5.3776,-5.4683,-5.5387,-5.5903,-5.5979,-5.5979,-5.5929,-5.5731,-5.5581,-5.5581,-5.5345,-5.5194,-5.5194,-5.5194,-5.5194,-5.5194,-5.5194,-5.5194,-5.5194,-5.5194,-5.5143,-5.5027,-5.3912,-5.3279,-5.3025,-5.1943,-5.0505,-4.8841,-4.8841,-4.7531,-4.5558,-4.5464,-4.4813,-4.3807,-4.3821,-4.3389,-4.2892,-4.2892,-4.2892,-4.2892,-4.2892,-4.2892,-4.2892,-4.2892,-4.2958,-4.3023,-4.3023,-4.3023,-4.3141,-4.3676,-4.382,-4.3938,-4.4487,-4.4604,-4.4563,-4.4657,-4.467,-4.467,-4.4668,-4.4668,-4.4668,-4.4668,-4.4668,-4.4668,-4.4668,-4.4668,-4.4668,-4.4668,-4.4668,-4.4626,-4.4313,-4.4313,-4.4081,-4.3449,-4.3394,-4.3295,-4.303,-4.2974,-4.2974,-4.2974,-4.2974,-4.2974,-4.2974,-4.2918,-4.2862,-4.2862,-4.0396,-3.8566,-3.7298,-3.6063,-3.5479,-4.6727,0.0,-4.5267,-4.4499,-4.5477,-4.6462,0.0,0.0,0.0,0.0,0.0,0.0,0.0,-4.9449,-4.9837,-5.0136,-5.0661,-5.1128,-5.1278,-5.1541,-5.2131,-5.3266,-5.3776,-5.4382,-5.5326,-5.5581,-5.5631,-5.5381,-5.5531,-5.5531,-5.528,-5.5244,-5.5194,-5.5194,-5.5194,-5.5194,-5.5194,-5.5194,-5.5194,-5.5194,-5.5194,-5.4743,-5.3794,-5.3518,-5.2188,-5.0092,-4.9817,-4.8473,-4.6391,-4.6391,-4.5805,-4.4892,-4.446,-4.3846,-4.3167,-4.2735,-4.22,-4.1716,-4.1716,-4.1716,-4.1716,-4.1716,-4.1716,-4.1716,-4.1716,-4.233,-4.3023,-4.3023,-4.3023,-4.3049,-4.318,-4.3219,-4.3258,-4.3389,-4.3428,-4.3546,-4.3977,-4.4081,-4.4199,-4.4643,-4.4668,-4.4668,-4.4668,-4.4668,-4.4668,-4.4668,-4.4668,-4.4668,-4.4668,-4.4668,-4.4626,-4.4313,-4.4313,-4.4081,-4.3449,-4.3394,-4.3295,-4.303,-4.2974,-4.2974,-4.2974,-4.2974,-4.2974,-4.2974,-4.2037,-4.157,-4.1558,-3.9978,-3.8566,-3.7298,-3.7006,-3.6359,-4.8297,-4.7377,-4.6358,-4.5808,-4.6727,-4.7612,-4.7081,0.0,0.0,0.0,0.0,0.0,0.0,-5.0002,-5.0285,-5.0599,-5.0943,-5.1214,-5.1214,-5.1718,-5.2337,-5.3118,-5.3717,-5.4368,-5.514,-5.5345,-5.5345,-5.5194,-5.533,-5.533,-5.5194,-5.5194,-5.5194,-5.5194,-5.5194,-5.5194,-5.5194,-5.5194,-5.4911,-5.4355,-5.4355,-5.3756,-5.2591,-5.1771,-5.0557,-4.9047,-4.7967,-4.6639,-4.5218,-4.4931,-4.4317,-4.352,-4.3206,-4.2735,-4.22,-4.1886,-4.1585,-4.1311,-4.1311,-4.1311,-4.1311,-4.1311,-4.1311,-4.1311,-4.1311,-4.1742,-4.2239,-4.2239,-4.2239,-4.2291,-4.2565,-4.2631,-4.2696,-4.2958,-4.3023,-4.3101,-4.3415,-4.348,-4.365,-4.4225,-4.433,-4.4421,-4.4683,-4.4668,-4.4668,-4.4668,-4.4668,-4.4668,-4.4668,-4.4668,-4.4626,-4.4313,-4.4313,-4.4081,-4.3449,-4.3394,-4.3295,-4.303,-4.3141,-4.3129,-4.303,-4.2974,-4.2974,-4.2974,-4.2331,-4.1684,-4.11,-3.9803,-3.8566,-3.7298,-3.6714,-3.6063,-4.9344,-4.8461,-4.7608,-4.7608,-4.8027,-4.8431,-4.8431,0.0,0.0,0.0,0.0,0.0,0.0,-5.0345,-5.0524,-5.1124,-5.1214,-5.1259,-5.1349,-5.2062,-5.274,-5.3298,-5.4044,-5.4709,-5.5185,-5.5194,-5.5194,-5.5194,-5.5194,-5.5194,-5.5194,-5.5194,-5.5194,-5.5194,-5.5194,-5.5194,-5.5194,-5.5194,-5.4575,-5.3413,-5.3413,-5.2654,-5.1262,-4.9694,-4.8788,-4.8337,-4.6236,-4.4983,-4.4383,-4.3873,-4.3049,-4.2081,-4.2081,-4.1742,-4.1311,-4.1311,-4.1311,-4.1311,-4.1311,-4.1311,-4.1311,-4.1311,-4.1311,-4.1311,-4.1311,-4.1311,-4.1311,-4.1311,-4.1311,-4.1428,-4.1912,-4.2081,-4.216,-4.2644,-4.2762,-4.2788,-4.2879,-4.2892,-4.3062,-4.3637,-4.3742,-4.3899,-4.4382,-4.4539,-4.4604,-4.4604,-4.467,-4.4668,-4.4668,-4.4668,-4.4587,-4.4183,-4.4238,-4.3913,-4.3195,-4.325,-4.314,-4.2778,-4.3096,-4.324,-4.303,-4.2974,-4.2918,-4.2737,-4.2737,-4.2093,-4.0813,-3.9744,-3.8566,-3.7298,-3.6186,-3.5592,-4.9419,-4.9164,-4.9,-4.9,-4.909,-4.9164,-4.9164,0.0,0.0,0.0,0.0,0.0,0.0,-5.1065,-5.1094,-5.1199,-5.1214,-5.1409,-5.1977,-5.2189,-5.2714,-5.3907,-5.4196,-5.4511,-5.5119,-5.5194,-5.5194,-5.5194,-5.5194,-5.5194,-5.5194,-5.5194,-5.5194,-5.5194,-5.5194,-5.5194,-5.5194,-5.5194,-5.4575,-5.3413,-5.3413,-5.1999,-4.9459,-4.8681,-4.7256,-4.5347,-4.4529,-4.3546,-4.2617,-4.2512,-4.2043,-4.1442,-4.1442,-4.1389,-4.1311,-4.1311,-4.1311,-4.1311,-4.1311,-4.1311,-4.1311,-4.1311,-4.1311,-4.1311,-4.1311,-4.1311,-4.1311,-4.1311,-4.1311,-4.1337,-4.1415,-4.1442,-4.1468,-4.1559,-4.1572,-4.1703,-4.2186,-4.2291,-4.2461,-4.3036,-4.3154,-4.318,-4.3271,-4.3689,-4.4003,-4.4003,-4.4421,-4.4668,-4.4668,-4.4668,-4.4377,-4.3614,-4.3789,-4.3434,-4.209,-4.2413,-4.236,-4.1593,-4.2514,-4.303,-4.2974,-4.2974,-4.25,-4.1386,-4.1386,-4.0743,-3.9522,-3.9287,-3.8566,-3.7298,-3.7127,-3.642,-5.0406,-5.0331,-5.0331,-5.0331,-5.0047,-4.9793,-4.9793,0.0,0.0,0.0,0.0,0.0,-5.1154,-5.1214,-5.1214,-5.1214,-5.1214,-5.1454,-5.2112,-5.2501,-5.3099,-5.4087,-5.4521,-5.4865,-5.5164,-5.5194,-5.5194,-5.5194,-5.5194,-5.5194,-5.5194,-5.5194,-5.5194,-5.5194,-5.4575,-5.4237,-5.4237,-5.36,-5.3045,-5.2498,-5.1513,-4.9913,-4.7644,-4.6794,-4.5592,-4.4212,0.0,-4.2696,-4.2185,-4.1834,-4.1546,-4.1311,-4.1311,-4.1311,-4.1311,-4.1311,-4.1311,-4.1311,-4.1311,-4.1311,-4.1311,-4.1311,-4.1311,-4.1311,-4.1311,-4.1311,-4.1311,-4.1311,-4.1311,-4.1311,-4.1311,-4.1311,-4.1311,-4.1311,-4.1311,-4.1389,-4.1651,-4.1703,-4.1873,-4.2448,-4.2565,-4.2657,-4.2971,-4.3245,-4.3415,-4.3415,-4.3637,-4.3807,-4.3807,-4.3807,-4.3583,-4.3046,-4.3125,-4.2823,-4.1836,-4.2023,-4.197,-4.161,-4.1873,-4.2221,-4.2577,-4.259,-4.209,-4.1145,-4.11,-4.0454,-3.9216,-3.8495,-3.7839,-3.7298,-3.6592,-3.5951,-5.1214,-5.1214,-5.1214,-5.1214,0.0,-5.042,-5.042,-5.0808,-5.1214,-5.1214,-5.1214,-5.1214,-5.1214,-5.1214,-5.1274,-5.1424,-5.1454,-5.1738,-5.2546,-5.3099,-5.3668,-5.4356,-5.488,-5.5194,-5.5194,-5.5194,-5.5194,-5.5194,-5.5194,-5.5194,-5.5194,-5.5194,-5.5078,-5.4794,-5.386,-5.3183,-5.2814,-5.164,-5.1097,-5.1083,-4.957,-4.7884,-4.6029,-4.4892,-4.4042,-4.3468,-4.246,-4.1964,-4.1925,-4.1494,-4.1311,-4.1311,-4.1311,-4.1311,-4.1311,-4.1311,-4.1311,-4.1311,-4.1311,-4.1311,-4.1311,-4.1311,-4.1311,-4.1311,-4.1311,-4.1311,-4.1311,-4.1311,-4.1311,-4.1311,-4.1311,-4.1311,-4.1311,-4.1311,-4.1311,-4.1311,-4.1311,-4.1311,-4.1442,-4.1886,-4.1964,-4.2108,-4.2552,-4.2735,-4.2827,-4.2827,-4.2931,-4.3023,-4.3023,-4.3023,-4.2866,-4.2449,-4.2384,-4.2136,-4.1442,-4.1324,-4.1284,-4.1284,-4.1298,-4.153,-4.1944,-4.1969,-4.1472,-4.0316,-4.0316,-3.9557,-3.7991,-3.715,-3.6723,-3.6674,-3.5776,-3.5418,-5.1214,-5.1214,-5.1214,-5.1214,-5.1184,-5.1154,-5.1154,-5.1184,-5.1214,-5.1214,-5.1214,-5.1214,-5.1214,-5.1214,-5.1409,-5.2037,-5.2127,-5.2591,-5.3877,-5.4102,-5.4386,-5.5044,-5.5164,-5.5194,-5.5194,-5.5194,-5.5194,-5.5194,-5.5194,-5.5194,-5.5194,-5.5194,-5.4692,-5.3571,-5.3466,-5.2637,-5.1006,-4.9885,-4.9308,-4.9294,-4.8613,-4.7081,-4.4813,-4.3676,-4.2827,-4.2303,-4.1638,-4.1376,-4.1376,-4.1337,-4.1311,-4.1311,-4.1311,-4.1311,-4.1311,-4.1311,-4.1311,-4.1311,-4.1311,-4.1311,-4.1311,-4.1311,-4.1311,-4.1311,-4.1311,-4.1311,-4.1311,-4.1311,-4.1311,-4.1311,-4.1311,-4.1311,-4.1311,-4.1311,-4.1311,-4.1311,-4.1311,-4.1311,-4.1324,-4.1376,-4.1376,-4.1389,-4.1428,-4.1873,-4.2277,-4.2277,-4.2683,-4.3023,-4.3023,-4.3023,-4.2723,-4.1944,-4.1879,-4.1402,-4.0299,-4.0004,-3.9862,-3.9862,-4.0777,-4.13,-4.1338,-4.1338,-4.0282,-3.7986,-3.7929,-3.6786,-3.4452,-3.4831,-3.4979,-3.4999,-3.5293,-3.5418,-5.1214,-5.1214,-5.1214,-5.1214,-5.1214,-5.1214,-5.1214,-5.1214,-5.1214,-5.1214,-5.1214,-5.1349,-5.1753,-5.1828,-5.2037,-5.2695,-5.2815,-5.3129,-5.4087,-5.4206,-5.4461,-5.5119,-5.5194,-5.5194,-5.5194,-5.5194,-5.5194,-5.5194,-5.5194,-5.5194,-5.5194,-5.4473,-5.3722,-5.2951,-5.1488,-5.0239,-4.9184,-4.8022,-4.7134,-4.6336,-4.6111,-4.5378,-4.4147,-4.301,-4.2186,-4.1625,-4.1415,-4.1311,-4.1311,-4.1311,-4.1311,-4.1311,-4.1311,-4.1311,-4.1311,-4.1311,-4.1311,-4.1311,-4.1311,-4.1311,-4.1311,-4.1311,-4.1311,-4.1311,-4.1311,-4.1311,-4.1311,-4.1311,-4.1311,-4.1311,-4.1311,-4.1311,-4.1311,-4.1311,-4.1311,-4.1311,-4.1311,-4.1311,-4.1311,-4.1311,-4.1311,-4.1311,-4.1311,-4.1494,-4.1638,-4.1638,-4.1821,-4.1964,-4.1964,-4.1964,-4.167,-4.1054,-4.067,-4.0337,-3.9916,-3.9736,-3.9697,-3.9697,-4.0086,-4.0463,-4.0814,-4.0774,-3.9799,-3.7757,-3.7701,-3.6513,-3.4132,-3.4308,-3.4391,-3.4391,-3.4496,-3.4579,-5.1214,-5.1214,-5.1214,-5.1214,0.0,0.0,-5.1483,-5.1364,-5.1214,-5.1214,-5.1379,-5.1738,-5.2381,-5.2516,-5.274,-5.3399,-5.3503,-5.3743,-5.4416,-5.4521,-5.4685,-5.5149,-5.5194,-5.5194,-5.5194,-5.5194,-5.5194,-5.5194,-5.486,-5.4552,-5.4395,-5.3227,-5.2177,-5.1219,-4.9622,-4.8326,-4.7418,-4.6631,-4.5624,-4.446,-4.4278,-4.3885,-4.335,-4.2343,-4.169,-4.1311,-4.1311,-4.1311,-4.1311,-4.1311,-4.1311,-4.1311,-4.1311,-4.1311,-4.1311,-4.1311,-4.1311,-4.1311,-4.1311,-4.1311,-4.1311,-4.1311,-4.1311,-4.1311,-4.1311,-4.1311,-4.1311,-4.1311,-4.1311,-4.1311,-4.1311,-4.1311,-4.1311,-4.1311,-4.1311,-4.1311,-4.1311,-4.1311,-4.1311,-4.1311,-4.1311,-4.1311,-4.1311,-4.1311,-4.1311,-4.1311,-4.1311,-4.1311,-4.1311,-4.1311,-4.111,-4.0555,-3.9993,-3.9697,-3.9697,-3.9697,-3.9697,-3.9697,-3.9697,-3.986,-4.0237,-4.0262,-3.9262,-3.7275,-3.723,-3.6047,-3.3648,-3.3782,-3.3903,-3.3855,-3.4059,-3.4132,-5.1214,-5.1214,-5.1214,-5.1229,0.0,-5.1409,-5.2067,-5.1708,-5.1229,-5.1229,-5.1753,-5.2411,-5.3069,-5.3189,-5.3414,-5.4102,-5.4221,-5.4446,-5.5104,-5.5194,-5.5194,-5.5194,-5.5194,-5.5194,-5.5194,-5.5194,-5.5194,-5.5194,-5.4068,-5.319,-5.2602,-5.1451,-4.9999,-4.826,-4.8192,-4.7336,-4.5624,-4.5568,-4.5036,-4.3912,-4.3297,-4.2722,-4.2198,-4.1585,-4.1311,-4.1311,-4.1311,-4.1311,-4.1311,-4.1311,-4.1311,-4.1311,-4.1311,-4.1311,-4.1311,-4.1311,-4.1311,-4.1311,-4.1311,-4.1311,-4.1311,-4.1311,-4.1311,-4.1311,-4.1311,-4.1311,-4.1311,-4.1311,-4.1311,-4.1311,-4.1311,-4.1311,-4.1311,-4.1311,-4.1311,-4.1311,-4.1311,-4.1311,-4.1311,-4.1311,-4.1311,-4.1311,-4.1311,-4.1311,-4.1311,-4.1311,-4.1311,-4.1311,-4.1311,-4.1261,-4.106,-4.0555,-3.9993,-3.9697,-3.9697,-3.9697,-3.9697,-3.9697,-3.9697,-3.9697,-3.9697,-3.9697,-3.8594,-3.624,-3.6185,-3.5057,-3.2669,-3.3161,-3.3368,-3.3379,-3.3844,-3.4111,-5.1214,-5.1214,-5.1439,-5.2366,-5.2247,-5.2202,-5.3354,-5.2725,-5.2037,-5.2501,-5.2755,-5.3099,-5.3788,-5.3907,-5.4117,-5.479,-5.4895,-5.497,-5.5164,-5.5194,-5.5194,-5.5194,-5.5194,-5.5194,-5.5194,-5.5194,-5.486,-5.4016,-5.3267,-5.2399,-5.136,-4.982,-4.8557,-4.7648,-4.681,-4.5902,-4.4996,-4.4942,-4.4408,-4.3271,-4.3101,-4.2722,-4.2198,-4.1585,-4.1311,-4.1311,-4.1311,-4.1311,-4.1311,-4.1311,-4.1311,-4.1311,-4.1311,-4.1311,-4.1311,-4.1311,-4.1311,-4.1311,-4.1311,-4.1311,-4.1311,-4.1311,-4.1311,-4.1311,-4.1311,-4.1311,-4.1311,-4.1311,-4.1311,-4.1311,-4.1311,-4.1311,-4.1311,-4.1311,-4.1311,-4.1311,-4.1311,-4.1311,-4.1311,-4.1311,-4.1311,-4.1311,-4.1311,-4.1311,-4.1311,-4.1311,-4.1311,-4.1211,-4.1047,-4.0694,-4.0389,-4.0236,-3.989,-3.9697,-3.9697,-3.9697,-3.9697,-3.9697,-3.9697,-3.9697,-3.9697,-3.8868,-3.7725,-3.624,-3.5388,-3.4256,-3.2669,-3.2861,-3.2923,-3.2923,-3.3058,-3.313,-5.1618,-5.1798,-5.2187,-5.298,-5.289,-5.2875,-5.3967,-5.3369,-5.2785,-5.3443,-5.3593,-5.3788,-5.4476,-5.4596,-5.473,-5.5119,-5.5194,-5.5194,-5.5194,-5.5194,-5.5194,-5.5194,-5.5194,-5.5027,-5.4524,-5.4473,-5.3928,-5.2459,-5.1679,-5.071,-4.9528,-4.8002,-4.6905,-4.6357,-4.5627,-4.5101,-4.4668,-4.4668,-4.416,-4.3023,-4.3023,-4.2605,-4.1821,-4.1481,-4.1311,-4.1311,-4.1311,-4.1311,-4.1311,-4.1311,-4.1311,-4.1311,-4.1311,-4.1311,-4.1311,-4.1311,-4.1311,-4.1311,-4.1311,-4.1311,-4.1311,-4.1311,-4.1311,-4.1311,-4.1311,-4.1311,-4.1311,-4.1311,-4.1311,-4.1311,-4.1311,-4.1311,-4.1311,-4.1311,-4.1311,-4.1311,-4.1311,-4.1311,-4.1311,-4.1311,-4.1311,-4.1311,-4.1311,-4.1311,-4.1311,-4.1311,-4.1211,-4.1097,-4.0933,-4.0427,-4.007,-4.007,-3.9839,-3.9697,-3.9697,-3.9697,-3.9697,-3.9697,-3.9697,-3.9697,-3.9697,-3.8542,-3.7126,-3.5553,-3.4847,-3.3931,-3.2669,-3.2669,-3.2669,-3.2669,-3.2669,-3.2669,-5.2291,-5.2725,-5.3204,-5.3339,-5.3414,-5.3608,-5.4177,-5.3817,-5.3548,-5.4177,-5.4296,-5.4476,-5.5089,-5.5194,-5.5194,-5.5194,-5.5194,-5.5194,-5.5194,-5.5194,-5.5194,-5.5194,-5.5078,-5.4626,-5.3518,-5.325,-5.2449,-5.0764,-4.9611,-4.8436,-4.7323,-4.6136,-4.5297,-4.4748,-4.4668,-4.4668,-4.4668,-4.4668,-4.416,-4.3023,-4.3023,-4.2422,-4.1311,-4.1311,-4.1311,-4.1311,-4.1311,-4.1311,-4.1311,-4.1311,-4.1311,-4.1311,-4.1311,-4.1311,-4.1311,-4.1311,-4.1311,-4.1311,-4.1311,-4.1311,-4.1311,-4.1311,-4.1311,-4.1311,-4.1311,-4.1311,-4.1311,-4.1311,-4.1311,-4.1311,-4.1311,-4.1311,-4.1311,-4.1311,-4.1311,-4.1311,-4.1311,-4.1311,-4.1311,-4.1311,-4.1311,-4.1311,-4.1311,-4.1311,-4.1311,-4.1311,-4.1047,-4.0833,-4.0833,-4.0389,-4.0083,-4.0083,-3.9839,-3.9697,-3.9697,-3.9697,-3.9697,-3.9697,-3.9697,-3.9645,-3.953,-3.8384,-3.675,-3.4692,-3.4424,-3.3829,-3.2669,-3.2669,-3.2669,-3.2669,-3.2669,-3.2669,-5.2965,-5.3069,0.0,-5.4491,-5.5149,-5.5433,-5.5059,-5.4865,-5.4805,-5.4955,-5.4985,-5.5029,-5.5164,-5.5194,-5.5194,-5.5194,-5.5194,-5.5194,-5.5194,-5.5194,-5.5194,-5.5194,-5.4355,-5.369,-5.3413,-5.2162,-5.0808,-4.957,-4.8409,-4.7231,-4.6051,-4.5276,-4.4811,-4.4668,-4.4668,-4.4668,-4.4668,-4.4668,-4.416,-4.3023,-4.3023,-4.2422,-4.1311,-4.1311,-4.1311,-4.1311,-4.1311,-4.1311,-4.1311,-4.1311,-4.1311,-4.1311,-4.1311,-4.1311,-4.1311,-4.1311,-4.1311,-4.1311,-4.1311,-4.1311,-4.1311,-4.1311,-4.1311,-4.1311,-4.1311,-4.1311,-4.1311,-4.1311,-4.1311,-4.1311,-4.1311,-4.1311,-4.1311,-4.1311,-4.1311,-4.1311,-4.1311,-4.1311,-4.1311,-4.1311,-4.1311,-4.1311,-4.1311,-4.1311,-4.1311,-4.1311,-4.0909,-4.0605,-4.0605,-4.0147,-3.9788,-3.9788,-3.9749,-3.9697,-3.9697,-3.9697,-3.9697,-3.9697,-3.9697,-3.9258,-3.8332,-3.718,-3.636,-3.587,-3.4032,-3.2944,-3.2669,-3.2669,-3.2669,-3.2669,-3.2669,-3.2669,-5.3668,0.0,0.0,-5.5014,-5.5448,-5.5613,-5.5269,-5.5194,-5.5194,-5.5194,-5.5194,-5.5194,-5.5194,-5.5194,-5.5194,-5.5194,-5.5194,-5.5194,-5.5194,-5.4692,-5.4355,-5.4355,-5.3308,-5.2377,-5.1769,-5.0639,-4.9378,-4.7974,-4.7064,-4.6111,-4.5205,-4.4837,-4.4668,-4.4668,-4.4668,-4.4668,-4.4668,-4.4668,-4.416,-4.3023,-4.3023,-4.2422,-4.1311,-4.1311,-4.1311,-4.1311,-4.1311,-4.1311,-4.1311,-4.1311,-4.1311,-4.1311,-4.1311,-4.1311,-4.1311,-4.1311,-4.1311,-4.1311,-4.1311,-4.1311,-4.1311,-4.1311,-4.1311,-4.1311,-4.1311,-4.1311,-4.1311,-4.1311,-4.1311,-4.1311,-4.1311,-4.1311,-4.1311,-4.1311,-4.1311,-4.1311,-4.1311,-4.1311,-4.1311,-4.1311,-4.1311,-4.1311,-4.1311,-4.1311,-4.1311,-4.1311,-4.0959,-4.0643,-4.0504,-4.0147,-3.9839,-3.9697,-3.9697,-3.9697,-3.9697,-3.9697,-3.9697,-3.9697,-3.9697,-3.9413,-3.8764,-3.7115,-3.5925,-3.5388,-3.4201,-3.3275,-3.2669,-3.2669,-3.2669,-3.2669,-3.2669,-3.2669,-5.4386,0.0,-5.5194,-5.5194,-5.5194,-5.5194,-5.5194,-5.5194,-5.5194,-5.5194,-5.5194,-5.5194,-5.5194,-5.5194,-5.5194,-5.5194,-5.5194,-5.5194,-5.5194,-5.4186,-5.3413,-5.3413,-5.2216,-5.1017,-5.0028,-4.9151,-4.807,-4.6625,-4.5846,-4.5203,-4.4761,-4.4668,-4.4668,-4.4668,-4.4668,-4.4668,-4.4668,-4.4668,-4.416,-4.3023,-4.2827,-4.2226,-4.1311,-4.1311,-4.1311,-4.1311,-4.1311,-4.1311,-4.1311,-4.1311,-4.1311,-4.1311,-4.1311,-4.1311,-4.1311,-4.1311,-4.1311,-4.1311,-4.1311,-4.1411,-4.1547,-4.1547,-4.1547,-4.1547,-4.1547,-4.1448,-4.1311,-4.1311,-4.1311,-4.1311,-4.1311,-4.1311,-4.1311,-4.1311,-4.1311,-4.1311,-4.1311,-4.1311,-4.1311,-4.1311,-4.1311,-4.1311,-4.1311,-4.1311,-4.1311,-4.1311,-4.1047,-4.0744,-4.0555,-4.0249,-3.9929,-3.9749,-3.9697,-3.9697,-3.9697,-3.9697,-3.9697,-3.9697,-3.9697,-3.9697,-3.9697,-3.7619,-3.5979,-3.4803,-3.4424,-3.3717,-3.2669,-3.2669,-3.2669,-3.2669,-3.2669,-3.2669,0.0,0.0,-5.5194,0.0,-5.5194,-5.5194,-5.5194,-5.5194,-5.5194,-5.5194,-5.5194,-5.5194,-5.5194,-5.5194,-5.5194,-5.5194,-5.5194,-5.5194,-5.5194,-5.4186,-5.3413,-5.3413,-5.1442,-5.0084,-4.9915,-4.8073,-4.6777,-4.6542,-4.5467,-4.4813,-4.4668,-4.4668,-4.4668,-4.4668,-4.4668,-4.4668,-4.4668,-4.4668,-4.416,-4.301,-4.2017,-4.1468,-4.1311,-4.1311,-4.1311,-4.1311,-4.1311,-4.1311,-4.1311,-4.1311,-4.1311,-4.1311,-4.1311,-4.1311,-4.1311,-4.1311,-4.1311,-4.1311,-4.1311,-4.1868,-4.2598,-4.2598,-4.2598,-4.2598,-4.2598,-4.2003,-4.1311,-4.1311,-4.1311,-4.1311,-4.1311,-4.1311,-4.1311,-4.1311,-4.1311,-4.1311,-4.1311,-4.1311,-4.1311,-4.1311,-4.1311,-4.1311,-4.1311,-4.1311,-4.1311,-4.1311,-4.0858,-4.0555,-4.0504,-4.0044,-3.9736,-3.9697,-3.9697,-3.9697,-3.9697,-3.9697,-3.9697,-3.9697,-3.9697,-3.9697,-3.9697,-3.8384,-3.7126,-3.5979,-3.3976,-3.2841,-3.2669,-3.2669,-3.2669,-3.2669,-3.2669,-3.2669,-5.5194,-5.5194,-5.5194,0.0,-5.5194,-5.5194,-5.5194,-5.5194,-5.5194,-5.5194,-5.5194,-5.5194,-5.5194,-5.5194,-5.5194,-5.5194,-5.4626,-5.4186,-5.4186,-5.2591,-5.1442,-5.1442,-4.9971,-4.8811,-4.8492,-4.7284,-4.6342,-4.6029,-4.5205,-4.4668,-4.4668,-4.4668,-4.4668,-4.4668,-4.4668,-4.4626,-4.4463,-4.4626,-4.416,-4.301,-4.186,-4.1311,-4.1311,-4.1311,-4.1311,-4.1311,-4.1311,-4.1311,-4.1311,-4.1311,-4.1311,-4.1311,-4.1311,-4.1311,-4.1311,-4.1311,-4.1634,-4.215,-4.215,-4.2806,-4.3545,-4.2985,-4.2792,-4.2695,-4.215,-4.1634,-4.1311,-4.1311,-4.1311,-4.1311,-4.1311,-4.1311,-4.1311,-4.1311,-4.1311,-4.1311,-4.1311,-4.1311,-4.1311,-4.1311,-4.1311,-4.1311,-4.1311,-4.1311,-4.1311,-4.1311,-4.0946,-4.0643,-4.0504,-4.0147,-3.989,-3.9749,-3.9697,-3.9697,-3.9697,-3.9697,-3.9697,-3.9697,-3.9697,-3.9426,-3.8712,-3.7554,-3.6414,-3.5278,-3.4256,-3.3388,-3.2669,-3.2669,-3.2669,-3.2669,-3.2669,-3.2669,-5.5194,0.0,-5.5194,-5.5194,-5.5194,-5.5194,-5.5194,-5.5194,-5.5194,-5.5194,-5.5194,-5.5128,-5.4794,-5.4962,-5.5194,-5.5194,-5.4186,-5.3413,-5.3413,-5.1387,-4.9915,-4.9915,-4.8886,-4.8015,-4.7584,-4.6891,-4.6303,-4.5872,-4.5153,-4.4668,-4.4668,-4.4668,-4.4668,-4.4668,-4.4668,-4.4626,-4.4422,-4.4483,-4.4003,-4.301,-4.2004,-4.1455,-4.1311,-4.1311,-4.1311,-4.1311,-4.1311,-4.1311,-4.1311,-4.1311,-4.1311,-4.1311,-4.1311,-4.1311,-4.1311,-4.1597,-4.215,-4.284,-4.3081,-4.3829,-4.4531,-4.3497,-4.3163,-4.2985,-4.2016,-4.1498,-4.1311,-4.1311,-4.1311,-4.1311,-4.1311,-4.1311,-4.1311,-4.1311,-4.1311,-4.1311,-4.1311,-4.1311,-4.1311,-4.1311,-4.1311,-4.1311,-4.1311,-4.1261,-4.1211,-4.1211,-4.0896,-4.063,-4.044,-4.0134,-3.9929,-3.9749,-3.9697,-3.9697,-3.9697,-3.9697,-3.9697,-3.9697,-3.9413,-3.8816,-3.795,-3.6534,-3.5388,-3.4536,-3.4211,-3.3604,-3.2669,-3.2669,-3.2669,-3.2669,-3.2669,-3.2669,-5.5194,-5.5194,0.0,-5.5194,-5.5194,-5.5194,-5.5194,-5.5194,-5.5194,-5.5194,-5.5194,-5.486,-5.369,-5.4406,-5.5194,-5.5194,-5.4186,-5.3413,-5.3413,-5.1387,-4.9915,-4.9915,-4.8886,-4.8172,-4.8146,-4.7127,-4.6473,-4.6447,-4.5375,-4.4668,-4.4668,-4.4668,-4.4668,-4.4668,-4.4668,-4.4668,-4.4681,-4.4186,-4.3611,-4.301,-4.2409,-4.1834,-4.1311,-4.1311,-4.1311,-4.1311,-4.1311,-4.1311,-4.1311,-4.1311,-4.1311,-4.1311,-4.1311,-4.1311,-4.1411,-4.2382,-4.2744,-4.2937,-4.3876,-4.4854,-4.5553,-4.4531,-4.4219,-4.4031,-4.3033,-4.2052,-4.1311,-4.1311,-4.1311,-4.1311,-4.1311,-4.1311,-4.1311,-4.1311,-4.1311,-4.1311,-4.1311,-4.1311,-4.1311,-4.1311,-4.1311,-4.1311,-4.1311,-4.1097,-4.0933,-4.0933,-4.0478,-4.0134,-4.0121,-3.989,-3.9749,-3.9697,-3.9697,-3.9697,-3.9697,-3.9697,-3.9697,-3.9697,-3.8607,-3.795,-3.7897,-3.5783,-3.458,-3.448,-3.3388,-3.2784,-3.2669,-3.2669,-3.2669,-3.2669,-3.2669,-3.2669,-5.5194,0.0,0.0,-5.5718,-5.5508,-5.5299,-5.5718,-5.5493,-5.4962,-5.4186,-5.4641,-5.459,-5.2658,-5.3256,-5.3808,-5.3045,-5.1946,-5.1168,-5.1168,-4.9816,-4.8842,-4.8842,-4.8463,-4.8041,-4.7675,-4.727,-4.6721,-4.599,-4.5545,-4.514,-4.4748,-4.4668,-4.4668,-4.4668,-4.4518,-4.4409,-4.4409,-4.3676,-4.3214,-4.301,-4.2448,-4.2107,-4.1847,-4.1481,-4.152,-4.1847,-4.1481,-4.1311,-4.1361,-4.2016,-4.1868,-4.1411,-4.2722,-4.2854,-4.2382,-4.3416,-4.4158,-4.4808,-4.513,-4.5928,-4.6506,-4.4823,-4.4312,-4.3984,-4.2333,-4.1597,-4.1311,-4.1311,-4.1311,-4.1311,-4.1311,-4.1311,-4.1311,-4.1311,-4.1311,-4.1311,-4.1311,-4.1311,-4.1311,-4.1311,-4.1311,-4.1311,-4.1311,-4.1097,-4.0883,-4.0883,-4.0427,-4.007,-4.007,-3.989,-3.9697,-3.9697,-3.9697,-3.9697,-3.9697,-3.8985,-3.8542,-3.8542,-3.7447,-3.6468,-3.5729,-3.4914,-3.4155,-3.3388,-3.2887,-3.2669,-3.2669,-3.2669,-3.2669,-3.2669,-3.2669,-3.2669,-5.5523,-5.5673,-5.5927,-5.6376,-5.6152,-5.5882,-5.6122,-5.5888,-5.523,-5.423,-5.4626,-5.4473,-5.2122,-5.2337,-5.2605,-5.1797,-5.0685,-4.9915,-4.9915,-4.8944,-4.8185,-4.8185,-4.8185,-4.8028,-4.7649,-4.7453,-4.6887,-4.5976,-4.5728,-4.5362,-4.4707,-4.4668,-4.4681,-4.4572,-4.4463,-4.4367,-4.4313,-4.3816,-4.3499,-4.331,-4.2918,-4.2591,-4.2211,-4.1768,-4.1703,-4.186,-4.1481,-4.1498,-4.1819,-4.2137,-4.2297,-4.2395,-4.3416,-4.3592,-4.3402,-4.4438,-4.5235,-4.5779,-4.5779,-4.6255,-4.6447,-4.4438,-4.3782,-4.3464,-4.1832,-4.1311,-4.1311,-4.1311,-4.1311,-4.1311,-4.1311,-4.1311,-4.1311,-4.1311,-4.1311,-4.1311,-4.1311,-4.1311,-4.1311,-4.1311,-4.1311,-4.1311,-4.1311,-4.1097,-4.0883,-4.0795,-4.0389,-4.0083,-3.9981,-3.9788,-3.9697,-3.9697,-3.9697,-3.9697,-3.9697,-3.8985,-3.8332,-3.795,-3.6846,-3.5706,-3.4536,-3.4099,-3.3491,-3.2737,-3.2669,-3.2669,-3.2669,-3.2669,-3.2669,-3.2669,-3.2669,-3.2669,0.0,0.0,0.0,-5.7109,-5.7109,-5.6944,-5.6413,-5.6211,-5.6017,-5.5293,-5.5173,-5.4436,-5.2068,-5.1634,-5.1634,-5.1579,-5.0629,-4.9858,-4.9858,-4.8886,-4.8185,-4.8185,-4.8185,-4.8185,-4.8185,-4.7689,-4.7113,-4.6538,-4.5976,-4.5388,-4.4733,-4.4681,-4.4572,-4.4313,-4.4572,-4.4572,-4.4313,-4.4572,-4.4434,-4.3926,-4.3926,-4.3337,-4.2264,-4.2238,-4.1924,-4.1413,-4.1374,-4.1918,-4.2792,-4.1782,-4.2528,-4.4219,-4.3307,-4.3497,-4.4452,-4.5463,-4.5824,-4.5824,-4.5824,-4.5824,-4.5448,-4.3497,-4.284,-4.2598,-4.1584,-4.1311,-4.1311,-4.1311,-4.1311,-4.1311,-4.1311,-4.1311,-4.1311,-4.1311,-4.1311,-4.1311,-4.1311,-4.1311,-4.1311,-4.1311,-4.1311,-4.1311,-4.1311,-4.1047,-4.0795,-4.0555,-4.0287,-3.9981,-3.9749,-3.9697,-3.9697,-3.9697,-3.9697,-3.9697,-3.9697,-3.9697,-3.9141,-3.795,-3.6792,-3.5651,-3.4469,-3.3332,-3.2669,-3.2669,-3.2669,-3.2669,-3.2669,-3.2669,-3.2669,-3.2669,-3.2669,-3.2669,-5.672,0.0,0.0,0.0,0.0,0.0,-5.7513,-5.7199,-5.6422,-5.4957,-5.46,-5.3738,-5.0934,-5.0406,-5.014,-4.9274,-4.8899,-4.8669,-4.8669,-4.8405,-4.8185,-4.8185,-4.8185,-4.8185,-4.8185,-4.8041,-4.7715,-4.714,-4.6565,-4.599,-4.5359,-4.497,-4.4572,-4.4313,-4.4367,-4.4367,-4.4313,-4.4367,-4.4232,-4.3926,-4.3926,-4.3702,-4.3428,-4.2591,-4.2737,-4.3553,-4.2744,-4.3355,-4.4886,-4.3876,-4.3796,-4.4406,-4.5613,-4.5793,-4.5508,-4.6491,-4.6873,-4.6873,-4.6873,-4.6403,-4.5598,-4.4298,-4.3402,-4.2598,-4.1584,-4.1311,-4.1311,-4.1311,-4.1311,-4.1311,-4.1311,-4.1311,-4.1311,-4.1311,-4.1311,-4.1311,-4.1311,-4.1311,-4.1311,-4.1311,-4.1311,-4.1311,-4.1311,-4.0909,-4.0605,-4.0504,-4.0096,-3.9788,-3.9697,-3.9697,-3.9697,-3.9697,-3.9697,-3.9697,-3.9697,-3.8881,-3.7885,-3.6738,-3.5608,-3.4413,-3.3275,-3.2898,-3.2669,-3.2669,-3.2669,-3.2669,-3.2669,-3.2669,-3.2669,-3.2669,-3.2669,-3.2669,-5.7423,-5.7723,-5.8022,-5.8441,0.0,0.0,-5.8097,-5.7812,-5.7161,-5.583,-5.5153,-5.4021,-5.1502,-5.0621,-4.9842,-4.8444,-4.8185,-4.8185,-4.8185,-4.8185,-4.8185,-4.8185,-4.8185,-4.8185,-4.8185,-4.8185,-4.795,-4.7317,-4.68,-4.612,-4.5297,-4.4918,-4.4572,-4.4313,-4.4422,-4.4422,-4.4313,-4.4422,-4.4403,-4.4225,-4.4225,-4.4108,-4.3899,-4.3232,-4.3268,-4.3846,-4.3638,-4.4435,-4.5888,-4.5506,-4.5448,-4.5627,-4.6358,-4.6594,-4.6491,-4.7062,-4.7309,-4.7164,-4.6314,-4.5658,-4.4946,-4.3511,-4.2674,-4.2052,-4.1498,-4.1311,-4.1311,-4.1311,-4.1311,-4.1311,-4.1311,-4.1311,-4.1311,-4.1311,-4.1311,-4.1311,-4.1311,-4.1311,-4.1311,-4.1311,-4.1311,-4.1261,-4.1147,-4.0846,-4.0593,-4.0351,-4.0096,-3.9839,-3.9697,-3.9697,-3.9697,-3.9697,-3.9697,-3.9697,-3.9697,-3.9037,-3.8161,-3.6954,-3.5815,-3.4692,-3.3491,-3.2955,-3.2669,-3.2669,-3.2669,-3.2669,-3.2669,-3.2669,-3.2669,-3.2669,-3.2669,-3.2669,-5.8186,-5.8665,-5.9099,-5.9099,-5.9099,0.0,-5.8366,-5.8231,-5.8037,-5.7348,-5.6284,-5.4861,-5.3104,-5.1775,-5.0353,-4.8602,-4.829,-4.8264,-4.8198,-4.8185,-4.8185,-4.8185,-4.8185,-4.8185,-4.8185,-4.8185,-4.7976,-4.7466,-4.6839,-4.599,-4.4837,-4.4761,-4.4572,-4.4367,-4.4572,-4.4572,-4.4367,-4.4572,-4.4668,-4.4668,-4.4668,-4.446,-4.4017,-4.4058,-4.3848,-4.3504,-4.4509,-4.5552,-4.6498,-4.6914,-4.7213,-4.7312,-4.6329,-4.6491,-4.7309,-4.7309,-4.7309,-4.7019,-4.5144,-4.4406,-4.3984,-4.2065,-4.1411,-4.1311,-4.1311,-4.1311,-4.1311,-4.1311,-4.1311,-4.1311,-4.1311,-4.1311,-4.1311,-4.1311,-4.1311,-4.1311,-4.1311,-4.1311,-4.1261,-4.1261,-4.1261,-4.1161,-4.0933,-4.0833,-4.063,-4.0173,-4.0083,-3.9981,-3.9749,-3.9697,-3.9697,-3.9697,-3.9697,-3.9697,-3.9697,-3.9697,-3.9206,-3.8003,-3.6954,-3.5815,-3.4536,-3.3491,-3.2841,-3.2669,-3.2669,-3.2669,-3.2669,-3.2669,-3.2669,-3.2669,-3.2669,-3.2669,-5.862,-5.9009,-5.9099,-5.9099,-5.9099,0.0,-5.8934,-5.8904,-5.8725,-5.8052,-5.6976,-5.5579,-5.3683,-5.2396,-5.1031,-4.9232,-4.8904,-4.8734,-4.825,-4.8185,-4.8185,-4.8185,-4.8185,-4.8185,-4.8185,-4.8185,-4.8133,-4.8028,-4.7061,-4.6186,-4.548,-4.4929,-4.4681,-4.4626,-4.4681,-4.4681,-4.4626,-4.4681,-4.4668,-4.4668,-4.4668,-4.467,-4.4552,-4.4994,-4.5564,-4.6259,-4.6912,-4.7756,-4.8665,-4.8788,-4.8537,-4.8042,-4.7271,-4.7121,-4.7309,-4.7309,-4.7309,-4.7121,-4.5928,-4.5007,-4.4125,-4.2889,-4.1967,-4.1311,-4.1311,-4.1311,-4.1311,-4.1311,-4.1311,-4.1311,-4.1311,-4.1311,-4.1311,-4.1311,-4.1311,-4.1311,-4.1311,-4.1311,-4.1261,-4.1047,-4.0997,-4.0933,-4.0883,-4.0529,-4.0224,-4.0134,-3.9929,-3.9736,-3.9697,-3.9697,-3.9697,-3.9697,-3.9697,-3.9697,-3.9697,-3.9697,-3.9206,-3.8003,-3.7672,-3.6642,-3.4591,-3.4256,-3.3717,-3.2737,-3.2669,-3.2669,-3.2669,-3.2669,-3.2669,-3.2669,-3.2669,-3.2669,-5.883,-5.9099,-5.9099,-5.9099,-5.9099,0.0,0.0,-5.9099,-5.9009,-5.868,-5.7184,-5.5481,-5.4205,-5.2506,-5.0904,-4.969,-4.9257,-4.8969,-4.8682,-4.8368,-4.8185,-4.8185,-4.8185,-4.8185,-4.8185,-4.8185,-4.8068,-4.778,-4.6957,-4.6238,-4.565,-4.5049,-4.4668,-4.4668,-4.4668,-4.4668,-4.4668,-4.4668,-4.4668,-4.4668,-4.4668,-4.4979,-4.5542,-4.5814,-4.6531,-4.7552,-4.835,-4.8968,-4.9486,-4.9685,-4.9553,-4.9194,-4.8536,-4.8282,-4.8252,-4.7923,-4.7803,-4.7553,-4.5669,-4.4716,-4.4078,-4.2528,-4.1733,-4.1311,-4.1311,-4.1311,-4.1311,-4.1311,-4.1311,-4.1311,-4.1311,-4.1311,-4.1311,-4.1311,-4.1311,-4.1311,-4.1311,-4.1211,-4.1047,-4.0933,-4.0681,-4.0478,-4.0478,-4.0275,-4.0032,-3.9929,-3.9788,-3.9697,-3.9697,-3.9697,-3.9697,-3.9697,-3.9697,-3.9697,-3.9697,-3.9697,-3.9426,-3.8816,-3.7725,-3.6522,-3.5388,-3.4201,-3.3332,-3.2727,-3.2669,-3.2669,-3.2669,-3.2669,-3.2669,-3.2669,-3.2669,-3.2669,-5.889,-5.9099,-5.9099,-5.9099,-5.9099,-5.9099,0.0,0.0,0.0,-5.8798,-5.7133,-5.5461,-5.4478,-5.2672,-5.1014,-5.0062,-4.9531,-4.9165,-4.8943,-4.8486,-4.8185,-4.8185,-4.8185,-4.8185,-4.8185,-4.8185,-4.7989,-4.7532,-4.6957,-4.6395,-4.582,-4.5218,-4.4839,-4.4668,-4.4668,-4.4668,-4.4668,-4.4668,-4.4668,-4.4668,-4.4938,-4.5502,-4.6426,-4.6829,-4.7485,-4.8382,-4.945,-4.9917,-4.9936,-5.0258,-5.0375,-5.03,-4.9568,-4.9314,-4.9194,-4.8477,-4.8105,-4.7644,-4.5085,-4.4129,-4.3701,-4.1881,-4.1311,-4.1311,-4.1311,-4.1311,-4.1311,-4.1311,-4.1311,-4.1311,-4.1311,-4.1311,-4.1311,-4.1311,-4.1311,-4.1261,-4.1211,-4.1097,-4.0946,-4.0833,-4.0478,-4.0173,-4.0121,-4.0083,-3.9929,-3.9749,-3.9697,-3.9697,-3.9697,-3.9697,-3.9697,-3.9697,-3.9697,-3.9697,-3.9697,-3.9697,-3.9697,-3.9697,-3.7938,-3.6673,-3.624,-3.3976,-3.2669,-3.2669,-3.2669,-3.2669,-3.2669,-3.2669,-3.2669,-3.2669,-3.2669,-3.2669,-5.8755,-5.9099,-5.9099,-5.9099,-5.9099,-5.9099,-5.9099,0.0,-5.8798,-5.7678,0.0,-5.6308,-5.4048,0.0,0.0,-5.0236,-4.9832,-4.944,-4.842,-4.8224,-4.8185,-4.8185,-4.8185,-4.8185,-4.8185,-4.8185,-4.8159,-4.8094,-4.7558,-4.6983,-4.6408,-4.5846,-4.5271,-4.4748,-4.4668,-4.4668,-4.4668,-4.4668,-4.4668,-4.4722,-4.5702,-4.6269,-4.6478,-4.836,-4.9317,-4.9464,-5.057,-5.1026,-5.1011,-5.1092,-5.1109,-5.099,-4.9748,-4.9314,-4.9164,-4.8087,-4.7384,-4.6674,-4.4498,-4.34,-4.2806,-4.1683,-4.1311,-4.1311,-4.1311,-4.1311,-4.1311,-4.1311,-4.1311,-4.1311,-4.1311,-4.1311,-4.1311,-4.1311,-4.1311,-4.1211,-4.0997,-4.1097,-4.111,-4.0656,-4.0504,-4.0402,-4.0134,-3.989,-3.9736,-3.9697,-3.9697,-3.9697,-3.9697,-3.9697,-3.9697,-3.9697,-3.9697,-3.9697,-3.9697,-3.9697,-3.9697,-3.9697,-3.9478,-3.8372,-3.6294,-3.3976,-3.2669,-3.2669,-3.2669,-3.2669,-3.2669,-3.2669,-3.2669,-3.2669,-3.2669,-3.2669,-5.874,-5.9099,-5.9099,-5.9099,-5.9099,-5.9099,-5.9099,-5.9099,-5.8743,-5.744,0.0,0.0,0.0,0.0,0.0,0.0,-5.0315,-4.9714,-4.9244,-4.8603,-4.8185,-4.8185,-4.8185,-4.8185,-4.8185,-4.8185,-4.8185,-4.8185,-4.7649,-4.7087,-4.6512,-4.5937,-4.5294,-4.4748,-4.4668,-4.4668,-4.4668,-4.4668,-4.4668,-4.4722,-4.5861,-4.6725,-4.7383,-4.8908,-4.9917,-5.057,-5.1011,-5.1214,-5.1214,-5.1214,-5.1214,-5.1169,-5.0616,-5.0005,-4.9369,-4.8519,-4.763,-4.6583,-4.4439,-4.3552,-4.3084,-4.1752,-4.1311,-4.1311,-4.1311,-4.1311,-4.1311,-4.1311,-4.1311,-4.1311,-4.1311,-4.1311,-4.1311,-4.1311,-4.1161,-4.1047,-4.0933,-4.0744,-4.0542,-4.0287,-4.0147,-3.9993,-3.989,-3.9788,-3.9697,-3.9697,-3.9697,-3.9697,-3.9697,-3.9697,-3.9697,-3.9697,-3.9697,-3.9697,-3.9697,-3.9697,-3.9426,-3.8712,-3.7406,-3.5947,-3.4246,-3.3218,-3.2669,-3.2669,-3.2669,-3.2669,-3.2669,-3.2669,-3.2669,-3.2669,-3.2669,-3.2669,-5.8471,-5.8845,-5.8875,-5.9054,-5.9099,-5.8991,-5.8689,-5.8565,-5.8096,-5.6508,-5.5486,0.0,0.0,0.0,-5.1544,-5.14,0.0,-4.9832,-4.9688,-4.8812,-4.8185,-4.8185,-4.8185,-4.8185,-4.8185,-4.8185,-4.8185,-4.8185,-4.7793,-4.7244,-4.6512,-4.6081,-4.5506,-4.4694,-4.4668,-4.4668,-4.4668,-4.4668,-4.4668,-4.4722,-4.6164,-4.7229,-4.803,-4.9415,-5.046,-5.1214,-5.1214,-5.1214,-5.1214,-5.1214,-5.1214,-5.1214,-5.1214,-5.0364,-4.9098,-4.8623,-4.7834,-4.6713,-4.4312,-4.3322,-4.2824,-4.1692,-4.1311,-4.1311,-4.1311,-4.1311,-4.1311,-4.1311,-4.1311,-4.1311,-4.1311,-4.1311,-4.1261,-4.1211,-4.1047,-4.0833,-4.0732,-4.044,-4.0185,-4.0121,-3.9929,-3.9788,-3.9788,-3.9736,-3.9697,-3.9697,-3.9697,-3.9697,-3.9697,-3.9697,-3.9697,-3.9697,-3.9697,-3.9697,-3.9697,-3.9697,-3.931,-3.8437,-3.6263,-3.458,-3.3706,-3.3058,-3.2669,-3.2669,-3.2669,-3.2669,-3.2669,-3.2669,-3.2669,-3.2669,-3.2669,-3.2669,-5.7797,-5.8156,-5.8306,-5.8949,-5.9099,-5.8798,-5.7552,-5.7258,-5.6565,-5.413,-5.3617,-5.3146,-5.1895,-5.1659,-5.1426,-5.0903,-5.0289,0.0,0.0,-4.8577,-4.8185,-4.8185,-4.8185,-4.8185,-4.8185,-4.8185,-4.8185,-4.8185,-4.8159,-4.7662,-4.6538,-4.646,-4.5924,-4.4761,-4.4668,-4.4668,-4.4668,-4.4668,-4.4668,-4.4722,-4.6919,-4.7979,-4.808,-5.0206,-5.1167,-5.1214,-5.1214,-5.1214,-5.1214,-5.1214,-5.1214,-5.1214,-5.1214,-4.9902,-4.803,-4.8052,-4.7622,-4.672,-4.3983,-4.2316,-4.1387,-4.1324,-4.1311,-4.1311,-4.1311,-4.1311,-4.1311,-4.1311,-4.1311,-4.1311,-4.1311,-4.1311,-4.1211,-4.0984,-4.0896,-4.0782,-4.0224,-4.0338,-4.0402,-4.0121,-4.007,-4.007,-4.007,-3.989,-3.9697,-3.9697,-3.9697,-3.9697,-3.9697,-3.9697,-3.9697,-3.9697,-3.9697,-3.9697,-3.9697,-3.9697,-3.9685,-3.9633,-3.7447,-3.6131,-3.6077,-3.392,-3.2669,-3.2669,-3.2669,-3.2669,-3.2669,-3.2669,-3.2669,-3.2669,-3.2669,-3.2669,-5.7214,-5.7438,-5.7603,-5.8291,-5.8456,-5.8453,-5.8461,-5.7789,-5.675,-5.5091,-5.4098,-5.3086,-5.1833,-5.1309,-5.1008,-5.0825,-4.9989,-4.9296,0.0,-4.8564,-4.8185,-4.8185,-4.8185,-4.8185,-4.8185,-4.8185,-4.8185,-4.8185,-4.8185,-4.7858,-4.7087,-4.6682,-4.612,-4.5294,-4.4931,-4.4668,-4.4668,-4.4668,-4.5087,-4.5861,-4.7317,-4.8382,-4.9106,-5.057,-5.1214,-5.1214,-5.1214,-5.1214,-5.1214,-5.1214,-5.1214,-5.112,-5.0427,-4.9708,-4.8958,-4.8282,-4.6936,-4.526,-4.3598,-4.2526,-4.1821,-4.1442,-4.1311,-4.1311,-4.1311,-4.1311,-4.1311,-4.1311,-4.1311,-4.1261,-4.1097,-4.1047,-4.0997,-4.0933,-4.063,-4.0377,-4.0351,-4.0147,-3.9942,-3.9839,-3.9839,-3.9839,-3.9839,-3.9736,-3.9697,-3.9697,-3.9697,-3.9697,-3.9697,-3.9697,-3.9697,-3.9697,-3.9697,-3.9697,-3.9697,-3.8985,-3.8489,-3.8489,-3.7061,-3.587,-3.5124,-3.4312,-3.3491,-3.2737,-3.2669,-3.2669,-3.2669,-3.2669,-3.2669,-3.2669,-3.2669,-3.2669,-5.66,-5.6765,-5.693,-5.7588,-5.7752,-5.7826,-5.8036,-5.7467,-5.6532,-5.5292,-5.4065,-5.289,-5.1854,-5.1001,-5.0472,-5.0472,-4.9688,-4.9008,0.0,-4.8433,-4.8185,-4.8185,-4.8185,-4.8185,-4.8185,-4.8185,-4.8185,-4.8185,-4.8185,-4.7937,-4.7304,-4.6787,-4.6212,-4.565,-4.4981,-4.4668,-4.4668,-4.5087,-4.5648,-4.6426,-4.7878,-4.8944,-4.9625,-5.0713,-5.1214,-5.1214,-5.1214,-5.1214,-5.1167,-5.0775,-5.0618,-5.0522,-4.945,-4.8809,-4.841,-4.7689,-4.6172,-4.4291,-4.335,-4.2644,-4.212,-4.1507,-4.1311,-4.1311,-4.1311,-4.1311,-4.1261,-4.1161,-4.1161,-4.111,-4.0933,-4.0846,-4.0744,-4.0744,-4.044,-4.0134,-4.0198,-3.9942,-3.9697,-3.9697,-3.9697,-3.9697,-3.9697,-3.9697,-3.9697,-3.9697,-3.9697,-3.9697,-3.9697,-3.9697,-3.9697,-3.9697,-3.9697,-3.9697,-3.9697,-3.8985,-3.8542,-3.8542,-3.7447,-3.648,-3.5729,-3.5344,-3.4736,-3.3976,-3.3547,-3.3332,-3.3332,-3.2898,-3.2669,-3.2669,-3.2669,-3.2669]},{"header":{"parameterUnit":"m.s-1","parameterCategory":1,"la1":30.6,"la2":29.2853,"lo1":-89.7004,"lo2":-87.6739,"dy":0.0162,"dx":0.0183,"nx":112,"ny":82,"refTime":"2023-06-13T06:00:00:Z","depth":0,"parameterNumber":3,"parameterNumberName":"V-component_of_WINDS"},"data":[0.0,0.0,0.0,0.0,0.0,0.0,0.0,0.0,0.0,0.0,0.0,0.0,0.0,0.0,0.0,0.0,0.0,0.0,0.0,0.0,0.0,0.0,0.0,0.0,0.0,0.0,0.0,0.0,0.0,0.0,0.0,0.0,0.0,0.0,0.0,0.0,0.0,0.0,0.0,0.0,0.0,0.0,0.0,0.0,0.0,0.0,0.0,0.0,0.0,0.0,0.0,0.0,0.0,0.0,0.0,0.0,0.0,0.0,0.0,0.0,0.0,0.0,0.0,0.0,0.0,0.0,0.0,0.0,0.0,0.0,0.0,0.0,0.0,0.0,0.0,0.0,0.0,0.0,0.0,0.0,0.0,0.0,0.0,0.0,0.0,0.0,0.0,0.0,0.0,0.0,-4.8838,-4.6528,-4.4507,-4.3129,-4.2837,-4.4954,-4.6413,-4.6717,0.0,0.0,0.0,0.0,0.0,0.0,0.0,0.0,0.0,0.0,0.0,0.0,0.0,0.0,0.0,0.0,0.0,0.0,0.0,0.0,0.0,0.0,0.0,0.0,0.0,0.0,0.0,0.0,0.0,0.0,0.0,0.0,0.0,0.0,0.0,0.0,0.0,0.0,0.0,0.0,0.0,0.0,0.0,0.0,0.0,0.0,0.0,0.0,0.0,0.0,0.0,0.0,0.0,0.0,0.0,0.0,0.0,0.0,0.0,0.0,0.0,0.0,0.0,0.0,0.0,0.0,0.0,0.0,0.0,0.0,0.0,0.0,0.0,0.0,0.0,0.0,0.0,0.0,0.0,0.0,0.0,0.0,0.0,0.0,0.0,0.0,0.0,0.0,0.0,0.0,0.0,0.0,0.0,0.0,0.0,0.0,0.0,0.0,0.0,0.0,0.0,0.0,0.0,0.0,-4.8838,-4.6528,-4.5195,-4.4411,-4.4357,-4.5542,-4.6969,-4.8495,0.0,0.0,0.0,0.0,0.0,0.0,0.0,0.0,0.0,0.0,0.0,0.0,0.0,0.0,0.0,0.0,0.0,0.0,0.0,0.0,0.0,0.0,0.0,0.0,0.0,0.0,0.0,0.0,0.0,0.0,0.0,0.0,0.0,0.0,0.0,0.0,0.0,0.0,0.0,0.0,0.0,0.0,0.0,0.0,0.0,0.0,0.0,0.0,0.0,0.0,0.0,0.0,0.0,0.0,0.0,0.0,0.0,0.0,0.0,0.0,0.0,0.0,0.0,0.0,0.0,0.0,0.0,0.0,0.0,0.0,0.0,0.0,0.0,0.0,0.0,0.0,0.0,0.0,0.0,0.0,0.0,0.0,0.0,0.0,0.0,0.0,0.0,0.0,0.0,0.0,0.0,0.0,0.0,0.0,0.0,0.0,0.0,0.0,0.0,0.0,0.0,0.0,0.0,-4.8209,-4.7215,-4.5608,-4.4466,-4.4158,-4.5114,-4.6196,-4.7622,-4.9398,-5.0241,0.0,0.0,0.0,0.0,0.0,0.0,0.0,0.0,0.0,0.0,0.0,0.0,0.0,0.0,0.0,0.0,0.0,0.0,0.0,0.0,0.0,0.0,0.0,0.0,0.0,0.0,0.0,0.0,0.0,0.0,0.0,0.0,0.0,0.0,0.0,0.0,0.0,0.0,0.0,0.0,0.0,0.0,0.0,0.0,0.0,0.0,0.0,0.0,0.0,0.0,0.0,0.0,0.0,0.0,0.0,0.0,0.0,0.0,0.0,0.0,0.0,0.0,0.0,0.0,0.0,0.0,0.0,0.0,0.0,0.0,0.0,0.0,0.0,0.0,0.0,0.0,0.0,0.0,0.0,0.0,0.0,0.0,0.0,0.0,0.0,0.0,0.0,0.0,0.0,0.0,0.0,0.0,0.0,0.0,0.0,0.0,0.0,0.0,0.0,0.0,0.0,0.0,-4.7987,-4.7122,-4.6022,-4.5129,-4.519,-4.6486,-4.7406,-4.8678,-5.0426,-5.1342,0.0,0.0,0.0,0.0,0.0,0.0,0.0,0.0,0.0,0.0,0.0,0.0,0.0,0.0,0.0,0.0,0.0,0.0,0.0,0.0,0.0,0.0,0.0,0.0,0.0,0.0,0.0,0.0,0.0,0.0,0.0,0.0,0.0,0.0,0.0,0.0,0.0,0.0,0.0,0.0,0.0,0.0,0.0,0.0,0.0,0.0,0.0,0.0,0.0,0.0,0.0,0.0,0.0,0.0,0.0,0.0,0.0,0.0,0.0,0.0,0.0,0.0,0.0,0.0,0.0,0.0,0.0,0.0,0.0,0.0,0.0,0.0,0.0,0.0,0.0,0.0,0.0,0.0,0.0,0.0,0.0,0.0,0.0,0.0,0.0,0.0,0.0,0.0,0.0,0.0,0.0,0.0,0.0,0.0,0.0,0.0,0.0,0.0,0.0,0.0,0.0,0.0,-5.0955,-5.0777,-4.9669,-4.9445,-4.9473,-4.9567,-4.9687,-5.0493,-5.2301,-5.2499,0.0,0.0,0.0,0.0,0.0,0.0,0.0,0.0,0.0,0.0,0.0,0.0,0.0,0.0,0.0,0.0,0.0,0.0,0.0,0.0,0.0,0.0,0.0,0.0,0.0,0.0,0.0,0.0,0.0,0.0,0.0,0.0,0.0,0.0,0.0,0.0,0.0,0.0,0.0,0.0,0.0,0.0,0.0,0.0,0.0,0.0,0.0,0.0,0.0,0.0,0.0,0.0,0.0,0.0,0.0,0.0,0.0,0.0,0.0,0.0,0.0,0.0,0.0,0.0,0.0,0.0,0.0,0.0,0.0,0.0,0.0,0.0,0.0,0.0,0.0,0.0,0.0,0.0,0.0,0.0,0.0,0.0,0.0,0.0,0.0,0.0,0.0,0.0,0.0,0.0,0.0,0.0,0.0,0.0,0.0,0.0,0.0,0.0,0.0,0.0,0.0,0.0,-5.0374,-5.0138,-4.9,-4.8893,-4.9327,-5.0424,-5.0505,-5.1264,-5.3071,0.0,0.0,0.0,0.0,0.0,0.0,0.0,0.0,0.0,0.0,0.0,0.0,0.0,0.0,0.0,0.0,0.0,0.0,0.0,0.0,0.0,0.0,0.0,0.0,0.0,0.0,0.0,0.0,0.0,0.0,0.0,0.0,0.0,0.0,0.0,0.0,0.0,0.0,0.0,0.0,0.0,0.0,0.0,0.0,0.0,0.0,0.0,0.0,0.0,0.0,0.0,0.0,0.0,0.0,0.0,0.0,0.0,0.0,0.0,0.0,0.0,0.0,0.0,0.0,0.0,0.0,0.0,0.0,0.0,0.0,0.0,0.0,0.0,0.0,0.0,0.0,0.0,0.0,0.0,0.0,0.0,0.0,0.0,0.0,0.0,0.0,0.0,0.0,0.0,0.0,0.0,0.0,0.0,0.0,0.0,0.0,0.0,0.0,0.0,0.0,0.0,0.0,-5.0867,-5.0919,-5.077,-5.0025,-4.9957,-5.0407,-5.1619,-5.1715,-5.2219,-5.3433,0.0,0.0,0.0,0.0,0.0,0.0,0.0,0.0,0.0,0.0,0.0,0.0,0.0,0.0,0.0,0.0,0.0,0.0,0.0,0.0,0.0,0.0,0.0,0.0,0.0,0.0,0.0,0.0,0.0,0.0,0.0,0.0,0.0,0.0,0.0,0.0,0.0,0.0,0.0,0.0,0.0,0.0,0.0,0.0,0.0,0.0,0.0,0.0,0.0,0.0,0.0,0.0,0.0,0.0,0.0,0.0,0.0,0.0,0.0,0.0,0.0,0.0,0.0,0.0,0.0,0.0,0.0,0.0,0.0,0.0,0.0,0.0,0.0,0.0,0.0,0.0,0.0,0.0,0.0,0.0,0.0,0.0,0.0,0.0,0.0,0.0,0.0,0.0,0.0,0.0,0.0,0.0,0.0,0.0,0.0,0.0,0.0,0.0,0.0,0.0,0.0,0.0,-5.2638,-5.3123,-5.3515,-5.3515,-5.3515,-5.3515,-5.3515,-5.3515,-5.3515,0.0,0.0,0.0,0.0,0.0,0.0,0.0,0.0,0.0,0.0,0.0,0.0,0.0,0.0,0.0,0.0,0.0,0.0,0.0,0.0,0.0,0.0,0.0,0.0,0.0,0.0,0.0,0.0,0.0,0.0,0.0,0.0,0.0,0.0,0.0,0.0,0.0,0.0,0.0,0.0,0.0,0.0,0.0,0.0,0.0,0.0,0.0,0.0,0.0,0.0,0.0,0.0,0.0,0.0,0.0,0.0,0.0,0.0,0.0,0.0,0.0,0.0,0.0,0.0,0.0,0.0,0.0,0.0,0.0,0.0,0.0,0.0,0.0,0.0,0.0,0.0,0.0,0.0,0.0,0.0,0.0,0.0,0.0,0.0,0.0,0.0,0.0,0.0,0.0,0.0,0.0,0.0,0.0,0.0,0.0,0.0,0.0,0.0,0.0,0.0,0.0,0.0,0.0,-5.3225,-5.3399,-5.3515,-5.3515,-5.3515,-5.3515,-5.3515,-5.3515,-5.3515,-5.3515,0.0,0.0,0.0,0.0,0.0,0.0,0.0,0.0,0.0,0.0,0.0,0.0,0.0,0.0,0.0,0.0,0.0,0.0,0.0,0.0,0.0,0.0,0.0,0.0,0.0,0.0,0.0,0.0,0.0,0.0,0.0,0.0,0.0,0.0,0.0,0.0,0.0,0.0,0.0,0.0,0.0,0.0,0.0,0.0,0.0,0.0,0.0,0.0,0.0,0.0,0.0,0.0,0.0,0.0,0.0,0.0,0.0,0.0,0.0,0.0,0.0,0.0,0.0,0.0,0.0,0.0,0.0,0.0,0.0,0.0,0.0,0.0,0.0,0.0,0.0,0.0,0.0,0.0,0.0,0.0,0.0,0.0,0.0,0.0,0.0,0.0,0.0,0.0,0.0,0.0,0.0,0.0,0.0,0.0,0.0,0.0,0.0,0.0,0.0,0.0,0.0,0.0,-5.3515,-5.3515,-5.3515,-5.3515,-5.3515,-5.3515,-5.3515,-5.3515,-5.3515,-5.3515,0.0,0.0,0.0,0.0,0.0,0.0,0.0,0.0,0.0,0.0,0.0,0.0,0.0,0.0,0.0,0.0,0.0,0.0,0.0,0.0,0.0,0.0,0.0,0.0,0.0,0.0,0.0,0.0,0.0,0.0,0.0,0.0,0.0,0.0,0.0,0.0,0.0,0.0,0.0,0.0,0.0,0.0,0.0,0.0,0.0,0.0,0.0,0.0,0.0,0.0,0.0,0.0,0.0,0.0,0.0,0.0,0.0,0.0,0.0,0.0,0.0,0.0,0.0,0.0,0.0,0.0,0.0,0.0,0.0,0.0,0.0,0.0,0.0,0.0,0.0,0.0,0.0,0.0,0.0,0.0,0.0,0.0,0.0,0.0,0.0,0.0,0.0,0.0,0.0,0.0,0.0,0.0,0.0,0.0,0.0,0.0,0.0,0.0,0.0,0.0,0.0,0.0,-5.3515,-5.3515,-5.3515,-5.3515,-5.3515,-5.3515,-5.3515,-5.3515,-5.3515,-5.3515,0.0,0.0,0.0,0.0,0.0,0.0,0.0,0.0,0.0,0.0,0.0,0.0,0.0,0.0,0.0,0.0,0.0,0.0,0.0,0.0,0.0,0.0,0.0,0.0,0.0,0.0,0.0,0.0,0.0,0.0,0.0,0.0,0.0,0.0,0.0,0.0,0.0,0.0,0.0,0.0,0.0,0.0,0.0,0.0,0.0,0.0,0.0,0.0,0.0,0.0,0.0,0.0,0.0,0.0,0.0,0.0,0.0,0.0,0.0,0.0,-4.6964,-4.7145,0.0,0.0,0.0,0.0,0.0,0.0,0.0,0.0,0.0,0.0,0.0,0.0,0.0,0.0,0.0,0.0,0.0,0.0,0.0,0.0,0.0,0.0,0.0,0.0,0.0,0.0,0.0,0.0,0.0,0.0,0.0,0.0,0.0,0.0,0.0,0.0,0.0,0.0,0.0,0.0,-5.3515,-5.3515,-5.3515,-5.3515,-5.3515,-5.3515,-5.3515,-5.3515,-5.3515,-5.3515,-5.3515,0.0,0.0,0.0,0.0,0.0,0.0,0.0,0.0,0.0,0.0,0.0,0.0,0.0,0.0,0.0,0.0,0.0,0.0,0.0,0.0,0.0,0.0,0.0,0.0,0.0,0.0,0.0,0.0,0.0,0.0,0.0,0.0,0.0,0.0,0.0,0.0,0.0,0.0,0.0,0.0,0.0,0.0,0.0,0.0,0.0,0.0,0.0,0.0,0.0,0.0,0.0,0.0,0.0,0.0,0.0,0.0,0.0,0.0,0.0,-4.6597,-4.6782,0.0,0.0,0.0,0.0,0.0,0.0,0.0,0.0,0.0,0.0,0.0,0.0,0.0,0.0,0.0,0.0,0.0,0.0,0.0,0.0,0.0,0.0,0.0,0.0,0.0,0.0,0.0,0.0,0.0,0.0,0.0,0.0,0.0,0.0,0.0,0.0,0.0,0.0,0.0,0.0,-5.3515,-5.3515,-5.3515,-5.3515,-5.3515,-5.3515,-5.3515,-5.3515,-5.3515,-5.3515,-5.3515,0.0,0.0,0.0,0.0,0.0,0.0,0.0,0.0,0.0,0.0,0.0,0.0,0.0,0.0,0.0,0.0,0.0,0.0,0.0,0.0,0.0,0.0,0.0,0.0,0.0,0.0,0.0,0.0,0.0,0.0,0.0,0.0,0.0,0.0,0.0,0.0,0.0,0.0,0.0,0.0,0.0,0.0,0.0,0.0,0.0,0.0,0.0,0.0,0.0,0.0,0.0,0.0,0.0,-4.4933,-4.5161,-4.5633,-4.5137,-4.5363,-4.6027,-4.609,-4.6329,-4.6793,-4.7183,0.0,0.0,0.0,0.0,0.0,0.0,0.0,0.0,0.0,0.0,0.0,0.0,0.0,0.0,0.0,0.0,0.0,0.0,0.0,0.0,0.0,0.0,-5.3791,-5.4241,-5.3907,-5.3515,-5.3515,0.0,0.0,0.0,0.0,0.0,0.0,0.0,0.0,0.0,0.0,0.0,-5.3515,-5.3515,-5.3515,-5.3515,-5.3515,-5.3515,-5.3515,-5.3515,-5.3515,-5.3515,-5.3515,-5.3515,0.0,0.0,0.0,0.0,0.0,0.0,0.0,0.0,0.0,0.0,0.0,0.0,0.0,0.0,0.0,0.0,0.0,0.0,0.0,0.0,0.0,0.0,0.0,0.0,0.0,0.0,0.0,0.0,0.0,0.0,0.0,0.0,-4.5381,-4.4876,0.0,0.0,0.0,0.0,0.0,0.0,0.0,0.0,0.0,0.0,0.0,0.0,0.0,-4.2904,-4.3409,-4.3962,-4.4249,-4.4393,-4.4393,-4.4429,-4.4489,-4.4417,-4.4491,-4.4613,-4.4862,0.0,-4.624,-4.686,0.0,0.0,0.0,0.0,0.0,0.0,0.0,0.0,0.0,0.0,0.0,0.0,0.0,0.0,0.0,0.0,0.0,0.0,0.0,0.0,0.0,0.0,-5.4255,-5.3762,-5.3573,-5.3515,-5.3515,-5.3515,-5.3515,-5.3515,-5.3515,-5.3515,0.0,0.0,0.0,0.0,0.0,0.0,-5.3515,-5.3515,-5.3515,-5.3515,-5.3515,-5.3515,-5.3515,-5.3515,-5.3515,-5.3515,-5.3515,-5.3515,-5.3515,-5.3515,0.0,0.0,0.0,0.0,0.0,0.0,0.0,0.0,0.0,0.0,0.0,0.0,0.0,0.0,0.0,0.0,0.0,0.0,0.0,0.0,0.0,0.0,0.0,0.0,0.0,0.0,0.0,0.0,0.0,-4.5336,-4.4815,-4.3979,-4.3636,-4.321,0.0,0.0,0.0,0.0,0.0,0.0,0.0,0.0,0.0,-4.1954,-4.2542,-4.3,-4.3505,-4.4009,-4.4285,-4.4285,-4.4285,-4.4285,-4.4285,-4.4285,-4.4409,-4.4594,-4.4717,-4.522,-4.592,-4.6239,-4.6284,-4.6132,0.0,0.0,0.0,0.0,-4.6313,-4.6313,-4.6313,-4.6313,-4.6626,-4.8674,0.0,0.0,0.0,0.0,0.0,0.0,0.0,-5.485,-5.4589,-5.4241,-5.3965,-5.4052,-5.3791,-5.3515,-5.3515,-5.3515,-5.3515,-5.3515,-5.3515,-5.3515,-5.3515,-5.3515,0.0,0.0,0.0,-5.3515,-5.3515,-5.3515,-5.3515,-5.3515,-5.3515,-5.3515,-5.3515,-5.3515,-5.3515,-5.3515,-5.3515,-5.3515,-5.3515,-5.3515,-5.3515,0.0,0.0,0.0,0.0,0.0,0.0,0.0,0.0,0.0,0.0,0.0,0.0,0.0,0.0,0.0,0.0,0.0,0.0,0.0,0.0,0.0,0.0,0.0,0.0,0.0,0.0,0.0,0.0,-4.506,-4.4383,-4.3225,-4.3161,-4.2686,0.0,0.0,0.0,0.0,0.0,0.0,-4.1184,-4.1305,-4.1629,-4.2217,-4.2687,-4.3204,-4.3721,-4.4081,-4.4285,-4.4285,-4.4285,-4.4285,-4.4285,-4.4285,-4.447,-4.4779,-4.4779,-4.5208,-4.5817,-4.5817,-4.5999,-4.6313,-4.6313,-4.6313,-4.6313,-4.6313,-4.6313,-4.6313,-4.6313,-4.6313,-4.6528,-4.8048,-4.9576,-5.0975,-5.1866,0.0,0.0,0.0,0.0,-5.4255,-5.4255,-5.3892,-5.3646,-5.4139,-5.3878,-5.3515,-5.3515,-5.3515,-5.3515,-5.3515,-5.3515,-5.3515,-5.3515,-5.3515,0.0,-5.3515,-5.3515,-5.3515,-5.3515,-5.3515,-5.3515,-5.3515,-5.3515,-5.3515,-5.3515,-5.3515,-5.3515,-5.3515,-5.3515,-5.3515,-5.3515,-5.3515,-5.3515,-5.3515,0.0,0.0,0.0,0.0,0.0,0.0,0.0,0.0,0.0,0.0,0.0,0.0,0.0,0.0,0.0,0.0,0.0,0.0,0.0,0.0,0.0,0.0,0.0,0.0,0.0,0.0,0.0,0.0,0.0,-4.2985,-4.2369,0.0,0.0,0.0,0.0,-4.1148,-4.1184,-4.1184,-4.1184,-4.1653,-4.2241,-4.2759,-4.3216,-4.3746,-4.4237,-4.4273,-4.4285,-4.4285,-4.4285,-4.4285,-4.4285,-4.4285,-4.447,-4.4779,-4.4779,-4.5208,-4.5817,-4.5817,-4.5999,-4.6313,-4.6313,-4.6313,-4.6313,-4.6313,-4.6313,-4.6313,-4.6313,-4.6313,-4.6708,-4.9062,-5.1375,-5.3343,-5.3395,-5.3491,0.0,0.0,-5.353,-5.3573,-5.3573,-5.3544,-5.353,-5.3559,-5.353,-5.3515,-5.3515,-5.3515,-5.3515,-5.3515,-5.3515,-5.3515,-5.3515,0.0,-5.3515,-5.3515,-5.3515,-5.3515,-5.3515,-5.3515,-5.3515,-5.3515,-5.3515,-5.3515,-5.3515,-5.3515,-5.3515,-5.3515,-5.3515,-5.3515,-5.3515,-5.3515,-5.3515,-5.3515,-5.3515,0.0,0.0,0.0,0.0,0.0,0.0,0.0,0.0,0.0,0.0,0.0,0.0,0.0,0.0,0.0,0.0,0.0,0.0,0.0,0.0,0.0,0.0,0.0,0.0,0.0,0.0,0.0,0.0,-4.2012,-4.2195,0.0,-4.0305,-4.0604,-4.098,-4.1172,-4.1184,-4.1184,-4.1184,-4.1689,-4.2277,-4.2807,-4.3253,-4.3782,-4.4273,-4.4285,-4.4285,-4.4285,-4.4285,-4.4285,-4.4285,-4.4285,-4.4347,-4.447,-4.4717,-4.5086,-4.5514,-4.5696,-4.5999,-4.6313,-4.6313,-4.6313,-4.6313,-4.6313,-4.6313,-4.6313,-4.6313,-4.6815,-4.7873,-5.0281,-5.215,-5.3515,-5.3515,-5.3515,-5.3515,-5.3515,-5.3515,-5.3515,-5.3515,-5.3515,-5.3515,-5.3515,-5.3515,-5.3515,-5.3515,-5.3515,-5.3515,-5.3515,-5.3515,-5.3515,-5.3515,-5.3515,-5.3515,-5.3515,-5.3515,-5.3515,-5.3515,-5.3515,-5.3515,-5.3515,-5.3515,-5.3515,-5.3515,-5.3515,-5.3515,-5.3515,-5.3515,-5.3515,-5.3515,-5.3658,-5.3658,-5.3515,-5.3867,-5.3904,0.0,0.0,0.0,0.0,0.0,0.0,0.0,0.0,0.0,0.0,0.0,0.0,0.0,0.0,0.0,0.0,0.0,0.0,0.0,0.0,0.0,0.0,0.0,0.0,0.0,-4.463,-4.3614,-4.1468,-4.2136,-4.1947,-3.9818,-4.0559,-4.1184,-4.1184,-4.1184,-4.1256,-4.1437,-4.2012,-4.253,-4.3,-4.3517,-4.3913,-4.4285,-4.4285,-4.4285,-4.4285,-4.4285,-4.4285,-4.4285,-4.4409,-4.4532,-4.4656,-4.4963,-4.5331,-4.5635,-4.5878,-4.6132,-4.6313,-4.6313,-4.6313,-4.6313,-4.6313,-4.6313,-4.6313,-4.6313,-4.7383,-4.8992,-5.0573,-5.2204,-5.3515,-5.3515,-5.3515,-5.3515,-5.3515,-5.3515,-5.3515,-5.3515,-5.3515,-5.3515,-5.3515,-5.3515,-5.3515,-5.3515,-5.3515,-5.3515,-5.3515,-5.3515,-5.3515,-5.3515,-5.3515,-5.3515,-5.3515,-5.3515,-5.3515,-5.3515,-5.3515,-5.3515,-5.3515,-5.3515,-5.3515,-5.3515,-5.3515,-5.3515,-5.3515,-5.3515,-5.3515,-5.3515,-5.3658,-5.3658,-5.3515,-5.4008,-5.4112,-5.3762,0.0,0.0,0.0,0.0,0.0,0.0,0.0,0.0,0.0,0.0,0.0,0.0,0.0,0.0,0.0,0.0,0.0,0.0,0.0,0.0,0.0,0.0,0.0,-4.483,-4.4551,-4.3566,-4.1495,-4.2136,-4.1947,-3.9842,-4.0571,-4.1184,-4.1184,-4.1184,-4.1413,-4.1942,-4.253,-4.3,-4.3493,-4.3997,-4.4285,-4.4285,-4.4285,-4.4285,-4.4285,-4.4285,-4.4285,-4.4285,-4.4656,-4.4963,-4.5331,-4.5635,-4.5939,-4.6313,-4.6313,-4.6313,-4.6313,-4.6313,-4.6313,-4.6313,-4.6313,-4.6313,-4.6313,-4.6373,-4.7945,-4.9915,-4.9971,-5.1593,-5.3515,-5.3515,-5.3515,-5.3515,-5.3515,-5.3515,-5.3515,-5.3515,-5.3515,-5.3515,-5.3515,-5.3515,-5.3515,-5.3515,-5.3515,-5.3515,-5.3515,-5.3515,-5.3515,-5.3515,-5.3515,-5.3515,-5.3515,-5.3515,0.0,-5.3515,-5.3515,-5.3515,-5.3515,-5.3515,-5.3515,-5.3515,-5.3515,-5.3515,-5.3515,-5.3515,-5.3515,-5.3515,-5.3515,-5.3515,-5.3515,-5.4008,-5.4304,-5.4304,0.0,0.0,0.0,0.0,0.0,0.0,0.0,0.0,0.0,0.0,0.0,0.0,0.0,0.0,0.0,0.0,0.0,0.0,0.0,0.0,0.0,-4.5216,-4.5078,-4.5046,-4.3965,-4.2858,-4.1896,-4.1709,-4.1255,-4.0306,-4.0787,-4.1184,-4.1184,-4.1184,-4.1413,-4.1942,-4.253,-4.3,-4.3493,-4.3997,-4.4285,-4.4285,-4.4285,-4.4285,-4.4285,-4.4285,-4.4285,-4.4285,-4.4409,-4.4594,-4.4963,-4.527,-4.5635,-4.5939,-4.6193,-4.6313,-4.6313,-4.6313,-4.6313,-4.6313,-4.6313,-4.6313,-4.6541,-4.8281,-4.9348,-5.0196,-5.1934,-5.2957,-5.3515,-5.3515,-5.3515,-5.3515,-5.3515,-5.3515,-5.3515,-5.3515,-5.3515,-5.3515,-5.3515,-5.3515,-5.3515,-5.3515,-5.3515,-5.3515,-5.3515,-5.3515,-5.3515,-5.3515,-5.3515,-5.3515,-5.3515,-5.3515,-5.3515,-5.3515,-5.3515,-5.3515,-5.3515,-5.3515,-5.3515,-5.3515,-5.3515,-5.3515,-5.3515,-5.3515,-5.3515,-5.3515,-5.371,-5.3985,-5.4414,-5.4178,-5.423,0.0,0.0,0.0,0.0,0.0,0.0,0.0,0.0,0.0,0.0,0.0,0.0,0.0,0.0,0.0,0.0,0.0,0.0,0.0,0.0,0.0,0.0,-4.517,-4.5078,-4.5,-4.3729,-4.2619,-4.2054,-4.1537,-4.1005,-4.0455,-4.0872,-4.1184,-4.1184,-4.1184,-4.1413,-4.1942,-4.253,-4.3,-4.3493,-4.3997,-4.4285,-4.4285,-4.4285,-4.4285,-4.4285,-4.4285,-4.4285,-4.4285,-4.4594,-4.484,-4.5025,-4.5514,-4.5817,-4.5999,-4.6253,-4.6313,-4.6313,0.0,0.0,0.0,0.0,-4.6648,-4.7252,-4.8673,-4.9788,-5.092,-5.2272,-5.3117,-5.3515,-5.3515,-5.3515,-5.3515,-5.3515,-5.3515,-5.3515,-5.3515,-5.3515,-5.3515,-5.3515,-5.3515,-5.3515,-5.3515,-5.3515,-5.3515,-5.3515,-5.3515,0.0,-5.3515,-5.3515,-5.3515,-5.3515,-5.3515,-5.3515,-5.3515,-5.3515,-5.3515,-5.3515,-5.3515,-5.3515,-5.3515,-5.3515,0.0,0.0,0.0,-5.3515,-5.3515,-5.3658,0.0,0.0,0.0,-5.4385,-5.4941,-5.4758,0.0,0.0,-5.4491,-5.458,0.0,0.0,0.0,0.0,0.0,0.0,0.0,0.0,0.0,0.0,0.0,0.0,0.0,0.0,0.0,0.0,-4.523,-4.4954,-4.463,-4.3499,-4.2565,-4.2159,-4.1482,-4.0866,-4.0527,-4.0908,-4.1184,-4.1184,-4.1184,-4.1413,-4.1942,-4.253,0.0,0.0,0.0,-4.4285,-4.4285,-4.4285,-4.4285,-4.4285,-4.4285,-4.4347,-4.4409,-4.4963,-4.527,-4.5392,-4.5999,-4.6253,-4.6313,-4.6313,-4.6313,-4.6313,-4.6313,-4.6313,-4.6313,-4.6313,-4.6981,-4.7932,-4.821,0.0,0.0,-5.1797,-5.2648,-5.3515,-5.3515,-5.3515,-5.3515,-5.3515,-5.3515,-5.3515,-5.3515,-5.3515,-5.3515,-5.3515,-5.3515,-5.3515,-5.3515,-5.3515,-5.3515,-5.3515,-5.3515,-5.3515,-5.3515,-5.3515,-5.3515,-5.3515,-5.3515,-5.3515,-5.3515,-5.3515,-5.3515,-5.3515,-5.3515,0.0,-5.3515,-5.3515,-5.3515,-5.3515,-5.3515,-5.3515,-5.3515,-5.3515,-5.3719,-5.42,-5.4252,-5.4478,-5.497,-5.497,-5.467,-5.4117,-5.4524,-5.469,0.0,0.0,0.0,0.0,0.0,0.0,0.0,0.0,0.0,0.0,0.0,0.0,0.0,0.0,0.0,-4.5216,-4.5,-4.4476,-4.3334,-4.261,-4.2274,-4.2593,-4.1055,-4.0193,-4.0989,-4.1124,-4.1184,-4.1184,-4.1184,-4.1413,-4.1942,-4.253,-4.3,-4.3493,-4.3997,-4.4285,-4.4285,-4.4285,-4.4285,-4.4285,-4.4285,0.0,-4.4717,-4.484,-4.5208,-4.5696,-4.5817,-4.6059,-4.6313,-4.6313,-4.6313,-4.6313,-4.6313,-4.6313,-4.6313,-4.6313,-4.6481,-4.6921,-4.8904,-4.9858,-5.0587,-5.2502,-5.329,-5.3515,-5.3515,-5.3515,0.0,-5.3515,-5.3515,-5.3515,-5.3515,-5.3515,-5.3515,-5.3515,-5.3515,-5.3515,-5.3515,-5.3515,-5.3515,-5.3515,-5.3515,-5.3515,-5.3515,-5.3515,-5.3515,-5.3515,-5.3515,-5.3515,-5.3515,-5.3515,-5.3515,-5.3515,-5.3515,-5.3515,-5.3515,-5.3515,-5.3515,-5.3515,-5.3515,-5.3515,-5.3515,-5.371,-5.3722,-5.3581,-5.3805,-5.3789,-5.3578,-5.3578,-5.3503,-5.3399,-5.4037,-5.4003,0.0,0.0,0.0,0.0,0.0,0.0,0.0,0.0,0.0,0.0,0.0,-4.588,-4.588,0.0,-4.5413,-4.5124,-4.4922,-4.4504,-4.3695,-4.2667,-4.1983,-4.1976,-4.0836,-4.0319,-4.11,-4.1184,-4.1184,-4.1184,-4.1184,-4.1305,-4.1569,-4.2386,-4.294,-4.3132,-4.3926,-4.4285,-4.4285,-4.4285,-4.4285,-4.4285,-4.4285,-4.4409,-4.4532,-4.4902,-4.5208,-4.5574,-4.5878,-4.6132,-4.6313,-4.6313,-4.6313,-4.6313,-4.6313,-4.6313,-4.6313,-4.6313,-4.704,-4.8281,-4.9462,-5.0698,-5.188,-5.3117,-5.3515,-5.3515,-5.3515,-5.3515,-5.3515,-5.3515,-5.3515,-5.3515,-5.3515,-5.3515,-5.3515,-5.3515,-5.3515,-5.3515,-5.3515,-5.3515,-5.3515,-5.3515,-5.3515,-5.3515,-5.3515,-5.3515,-5.3515,-5.3515,-5.3515,-5.3515,-5.3515,-5.3515,-5.3515,-5.3515,-5.3515,-5.3515,-5.3515,-5.3515,-5.3515,-5.3515,-5.3225,-5.3103,-5.3258,-5.2938,-5.2858,-5.3103,-5.3103,-5.3124,-5.3174,-5.3174,-5.301,-5.2695,-5.3039,-5.3189,0.0,0.0,0.0,0.0,0.0,0.0,0.0,-4.588,-4.588,-4.588,-4.588,-4.588,-4.588,-4.57,-4.5413,-4.5124,-4.4922,-4.4644,-4.4162,-4.2973,-4.1892,-4.1298,-4.0752,-4.0595,-4.1136,-4.1184,-4.1184,-4.1184,-4.1184,-4.1184,-4.1184,-4.2241,-4.2819,-4.2819,-4.3794,-4.4285,-4.4285,-4.4285,-4.4285,-4.4285,-4.4285,-4.4347,-4.4532,-4.5025,-4.5392,-4.5514,-4.6072,-4.6313,-4.6313,-4.6313,-4.6313,-4.6313,-4.6313,-4.6313,-4.6313,-4.6313,-4.7665,-4.9576,-4.9802,-5.132,-5.317,-5.3395,-5.3515,-5.3515,-5.3515,-5.3515,-5.3515,-5.3515,-5.3515,-5.3515,-5.3515,-5.3515,-5.3515,-5.3515,-5.3515,-5.3515,-5.3515,-5.3515,-5.3515,-5.3515,-5.3515,-5.3515,-5.3515,-5.3515,-5.3515,-5.3515,-5.3515,-5.3515,-5.3515,-5.3515,-5.3515,-5.3515,-5.3515,-5.3457,-5.3341,-5.3341,-5.3268,-5.3204,-5.271,-5.2552,-5.2807,-5.2158,-5.2009,-5.2506,-5.2423,-5.2496,-5.28,-5.28,-5.2531,-5.2007,-5.2007,-5.2291,-5.1183,-5.064,-4.9789,-4.8759,-4.7773,-4.6828,0.0,-4.588,-4.588,-4.588,-4.588,-4.588,-4.588,-4.57,-4.5413,-4.5124,-4.4922,-4.4383,-4.3143,-4.2807,-4.2331,-4.1295,-4.0752,-4.0595,-4.1136,-4.1184,-4.1184,-4.1184,-4.1184,-4.1184,-4.1184,-4.2241,-4.2819,-4.2819,-4.3794,-4.4285,-4.4285,-4.4285,-4.4285,-4.4285,-4.4285,-4.4594,-4.5208,-4.527,-4.5635,-4.6193,-4.6253,-4.6313,-4.6313,-4.6313,-4.6313,-4.6313,-4.6313,-4.6313,-4.6313,-4.6313,-4.7146,-4.8429,-4.9519,-5.0809,-5.2082,-5.317,-5.3515,-5.3515,-5.3515,-5.3515,-5.3515,-5.3515,-5.3515,-5.3515,-5.3515,-5.3515,-5.3515,-5.3515,-5.3515,-5.3515,-5.3515,-5.3515,-5.3515,-5.3515,-5.3515,-5.3515,-5.3515,-5.3515,-5.3515,-5.3515,-5.3515,-5.3515,-5.3515,-5.3515,-5.3515,-5.3515,-5.3515,-5.3283,-5.2731,-5.2673,-5.2529,-5.2201,-5.186,-5.1817,-5.2105,-5.2247,-5.2087,-5.1581,-5.197,-5.1974,-5.1439,-5.1439,-5.1409,-5.1334,-5.1334,-5.1364,-5.0563,-4.9773,-4.8856,-4.7969,-4.7075,-4.6343,-4.597,-4.588,-4.588,-4.588,-4.588,-4.588,-4.588,-4.57,-4.5413,-4.5124,-4.4922,-4.4415,-4.3413,-4.2971,-4.2525,-4.1747,-4.1218,-4.0944,-4.116,-4.1184,-4.1184,-4.1184,-4.1184,-4.1184,-4.1184,-4.2241,-4.2819,-4.2819,-4.3794,-4.4285,-4.4285,-4.4285,-4.4285,-4.4285,-4.447,-4.4717,-4.5025,-4.5392,-4.5817,-4.6313,-4.6313,-4.6313,-4.6313,-4.6313,-4.6313,-4.6313,-4.6313,-4.6313,-4.6361,-4.7087,-4.8094,-4.9335,-5.0518,-5.1757,-5.2822,-5.3343,-5.3515,-5.3515,-5.3515,-5.3515,-5.3515,-5.3515,-5.3515,-5.3515,-5.3515,-5.3515,-5.3515,-5.3515,-5.3515,-5.3515,-5.3515,-5.3515,-5.3515,-5.3515,-5.3515,-5.3515,-5.3515,-5.321,-5.2963,-5.2963,-5.3283,-5.3515,-5.3515,-5.3196,-5.2833,-5.2455,-5.2412,-5.231,-5.2035,-5.202,-5.1991,-5.2017,-5.1552,-5.1397,-5.163,-5.1439,-5.1212,-5.1032,-5.1271,-5.1342,-5.1214,-5.1214,-5.1214,-5.1214,-5.1214,-5.1214,-5.0081,-4.9019,-4.7969,-4.7362,-4.6535,-4.588,-4.588,-4.588,-4.588,-4.588,-4.588,-4.588,-4.588,-4.5745,-4.5504,-4.517,-4.5,-4.4593,-4.3691,-4.313,-4.2615,-4.2062,-4.156,-4.1184,-4.1184,-4.1184,-4.1184,-4.1184,-4.1184,-4.1244,-4.1389,-4.2325,-4.2879,-4.2964,-4.3866,-4.4285,-4.4285,-4.4285,-4.4285,-4.4285,-4.4656,-4.484,-4.4963,-4.5635,-4.6059,-4.6313,-4.6313,-4.6313,-4.6313,-4.6313,-4.6313,-4.6313,-4.6313,-4.6313,-4.6481,-4.8048,-4.9177,-5.0084,-5.1292,-5.2487,-5.3515,-5.3515,-5.3515,-5.3515,-5.3515,-5.3515,-5.3515,-5.3515,-5.3515,-5.3471,-5.3297,-5.3254,-5.321,-5.3036,-5.2992,-5.2992,-5.2992,-5.2992,-5.2992,-5.2992,-5.2992,-5.2992,-5.2992,-5.2615,-5.231,-5.231,-5.2702,-5.2992,-5.2992,-5.2586,-5.2136,-5.1672,-5.1614,-5.1541,-5.1381,-5.1352,-5.138,-5.1476,-5.1037,-5.0872,-5.1164,-5.077,-5.0647,-5.0807,-5.0855,-5.1011,-5.1214,-5.1214,-5.1214,-5.1214,-5.1214,-5.1214,-4.9908,-4.8625,-4.7233,-4.7204,-4.6535,-4.588,-4.588,-4.588,-4.588,-4.588,-4.588,-4.588,-4.588,-4.588,-4.57,-4.517,-4.5078,-4.4753,-4.374,-4.313,-4.2615,-4.2062,-4.156,-4.1184,-4.1184,-4.1184,-4.1184,-4.1184,-4.1184,-4.1401,-4.1976,-4.2518,-4.2988,-4.3469,-4.3985,-4.4285,-4.4285,-4.4285,-4.4285,-4.4285,-4.4656,-4.4963,-4.5331,-4.6012,-4.6313,-4.6313,-4.6313,-4.6313,-4.6313,-4.6313,-4.6313,-4.6313,-4.6313,-4.6313,-4.6588,-4.8961,-4.9858,-5.0084,-5.1292,-5.2487,-5.3515,-5.3515,-5.3515,-5.3515,-5.3515,-5.3515,-5.3515,-5.3515,-5.3515,-5.3384,-5.276,-5.2652,-5.2441,-5.1831,-5.1672,-5.1672,-5.1672,-5.1672,-5.1672,-5.1672,-5.1672,-5.1672,-5.1672,-5.1657,-5.1643,-5.1643,-5.1672,-5.1672,-5.1672,-5.1657,-5.1643,-5.1614,-5.1614,-5.1367,-5.0757,-5.0699,-5.0572,-5.0189,-5.013,-5.0275,-5.053,-5.071,-5.0807,-5.0807,-5.1058,-5.1167,-5.1214,-5.1214,-5.1214,-5.1214,-5.1214,-5.1214,-4.8444,-4.7661,-4.7075,-4.6462,-4.6135,-4.588,-4.588,-4.588,-4.588,-4.588,-4.588,-4.588,-4.588,-4.588,-4.5745,-4.517,-4.5124,-4.4597,-4.3267,-4.2904,-4.2452,-4.1568,-4.1293,-4.1184,-4.1184,-4.1184,-4.1184,-4.1184,-4.1184,-4.1413,-4.1942,-4.253,-4.3,-4.3493,-4.3997,-4.4285,-4.4285,-4.4285,-4.4285,-4.4285,-4.484,-4.5453,-4.5939,-4.6193,-4.6313,-4.6313,-4.6313,-4.6313,-4.6313,-4.6313,-4.6313,-4.6313,-4.6313,-4.6815,-4.771,-4.9291,-5.0406,-5.1251,-5.2487,-5.317,-5.3515,-5.3515,-5.3515,-5.3442,-5.3007,-5.2891,-5.2804,-5.2368,-5.2252,-5.2209,-5.1991,-5.1947,-5.1889,-5.1672,-5.1614,-5.1614,-5.1614,-5.1614,-5.1614,-5.1614,-5.1614,-5.1614,-5.1614,-5.128,-5.0844,-5.0394,-5.1062,-5.1468,-5.1048,-5.0989,-5.088,-5.0641,-5.0583,-5.051,-5.034,-5.0325,-5.0223,-5.0101,-5.0294,-5.0405,-5.0501,-5.0852,-5.0964,-5.0807,-5.1058,-5.1214,-5.1214,-5.1214,-5.1214,-5.1214,-5.1214,-5.1214,-4.7533,-4.6944,-4.658,-4.606,-4.588,-4.588,-4.588,-4.588,-4.588,-4.588,-4.588,-4.588,-4.588,-4.588,-4.5745,-4.517,-4.4957,-4.4366,-4.2995,-4.2629,-4.2207,-4.1293,-4.1184,-4.1184,-4.1184,-4.1184,-4.1184,-4.1184,-4.1184,-4.1497,-4.2277,-4.2639,-4.3084,-4.3782,-4.4093,-4.4285,-4.4285,-4.4285,-4.4409,-4.4656,-4.5208,-4.5757,-4.6313,-4.6313,-4.6313,-4.6313,-4.6313,-4.6313,-4.6313,-4.6313,-4.6313,-4.6313,-4.6313,-4.7027,-4.8268,-4.9448,-5.0505,-5.1584,-5.2992,-5.337,-5.3181,-5.3181,-5.3022,-5.276,-5.2354,-5.2223,-5.2136,-5.173,-5.1614,-5.157,-5.1338,-5.128,-5.1222,-5.0989,-5.0931,-5.0931,-5.0931,-5.0931,-5.0931,-5.0931,-5.0931,-5.0931,-5.0931,-5.0583,-5.0226,-4.9741,-5.0394,-5.0836,-5.0528,-5.0421,-5.0261,-5.013,-5.0086,-5.0086,-5.0086,-5.0086,-5.0086,-5.0086,-5.0342,-5.0501,-5.0501,-5.0947,-5.112,-5.0964,-5.112,-5.1214,-5.1214,-5.1214,-5.1214,-5.1214,-5.1214,-5.1214,-4.7161,-4.655,-4.588,-4.588,-4.588,-4.588,-4.588,-4.588,-4.588,-4.588,-4.588,-4.588,-4.588,-4.588,-4.5745,-4.5216,-4.4724,-4.4034,-4.2995,-4.2419,-4.1854,-4.1284,-4.1184,-4.1184,-4.1184,-4.1184,-4.1196,-4.122,-4.122,-4.1677,-4.2759,-4.2843,-4.3277,-4.4261,-4.4285,-4.4285,-4.4285,-4.4347,-4.4656,-4.5331,-4.5635,-4.6012,-4.6313,-4.6313,-4.6313,-4.6313,-4.6313,-4.6313,-4.6313,-4.6313,-4.6313,-4.6313,-4.6361,-4.7133,-4.8274,-4.9522,-5.034,-5.1087,-5.2828,-5.3022,-5.258,-5.258,-5.2107,-5.1614,-5.1585,-5.157,-5.157,-5.1527,-5.1527,-5.1381,-5.0786,-5.0676,-5.0516,-4.9828,-4.9717,-4.9717,-4.9717,-4.9717,-4.9717,-4.9717,-4.9717,-4.9717,-4.9717,-4.9717,-4.9717,-4.9717,-4.9717,-4.9781,-5.0038,-4.9878,-4.9829,-5.0086,-5.0135,-5.0135,-5.0135,-5.0135,-5.0135,-5.0135,-5.039,-5.0501,-5.0501,-5.0947,-5.1214,-5.1214,-5.1214,-5.1214,-5.1214,-5.1214,-5.1214,-5.1214,-5.1214,-5.1214,-4.6417,-4.6046,-4.588,-4.588,-4.588,-4.588,-4.588,-4.588,-4.588,-4.588,-4.588,-4.588,-4.588,-4.588,-4.579,-4.5458,-4.5559,-4.5045,-4.3343,-4.3204,-4.2763,-4.1329,-4.1184,-4.1184,-4.1184,-4.1184,-4.1353,-4.1749,-4.1774,-4.2121,-4.2783,-4.3108,-4.3637,-4.4261,-4.4285,-4.4285,-4.4285,-4.4532,-4.5025,-4.5696,-4.5757,-4.6012,-4.6313,-4.6313,-4.6313,-4.6313,-4.6313,-4.6313,-4.6313,-4.6313,-4.6313,-4.6361,-4.7311,-4.8121,-4.8915,-5.016,-5.0929,-5.1451,-5.1932,-5.1991,-5.186,-5.186,-5.1744,-5.1541,-5.1062,-5.0917,-5.0815,-5.0322,-5.0162,-5.0133,-4.9973,-4.993,-4.9886,-4.9712,-4.9717,-4.9717,-4.9717,-4.9717,-4.9717,-4.9717,-4.9717,-4.9717,-4.9717,-4.9717,-4.9717,-4.9717,-4.9717,-4.9732,-4.9781,-4.9926,-5.0086,-5.0342,-5.0552,-5.0632,-5.0632,-5.0632,-5.0552,-5.0405,-5.06,-5.0728,-5.0728,-5.1026,-5.1214,-5.1214,-5.1214,-5.1214,-5.1214,-5.1214,-5.1214,-5.1214,-5.1214,-5.1557,-4.6015,-4.588,-4.588,-4.588,-4.588,-4.588,-4.588,-4.588,-4.588,-4.588,-4.588,-4.588,-4.588,-4.588,-4.579,-4.5549,-4.518,-4.4573,-4.3383,-4.2838,-4.2239,-4.1308,-4.098,-4.0932,-4.116,-4.0968,-4.1148,-4.1918,-4.1978,-4.2303,-4.3048,-4.3361,-4.377,-4.4273,-4.4285,-4.4347,-4.4532,-4.5025,-4.5453,-4.5817,-4.5939,-4.6132,-4.6313,-4.6313,-4.6313,-4.6313,-4.6313,-4.6313,-4.6313,-4.6313,-4.6175,-4.6056,-4.7218,-4.8033,-4.8736,-4.9955,-5.0711,-5.1207,-5.1207,-5.1004,-5.0815,-5.1106,-5.1004,-5.0699,-5.0336,-5.0235,-5.0197,-4.9785,-4.9717,-4.9717,-4.9717,-4.9717,-4.9717,-4.9717,-4.9717,-4.9717,-4.9717,-4.9717,-4.9717,-4.9717,-4.9717,-4.9717,-4.9717,-4.9717,-4.9717,-4.9717,-4.9717,-4.9732,-4.9878,-4.9878,-5.0086,-5.0453,-5.0614,-5.068,-5.0807,-5.0807,-5.0775,-5.0662,-5.0728,-5.0807,-5.0807,-5.1058,-5.1214,-5.1214,-5.1214,-5.1214,-5.1214,-5.1214,-5.1214,-5.1214,-5.1603,-5.2078,-4.588,-4.588,-4.588,-4.588,-4.588,-4.588,-4.588,-4.588,-4.588,-4.588,-4.588,-4.588,-4.588,-4.588,-4.5864,-4.571,-4.4581,-4.3666,-4.3425,-4.2258,-4.1344,-4.1242,-4.0715,-4.0595,-4.1136,-4.0763,-4.0944,-4.2061,-4.2134,-4.2567,-4.3457,-4.3577,-4.3842,-4.4335,-4.4347,-4.4532,-4.4902,-4.5514,-4.5817,-4.5878,-4.6193,-4.6313,-4.6313,-4.6313,-4.6313,-4.6313,-4.6313,-4.6313,-4.6301,-4.6225,-4.5971,-4.5813,-4.6822,-4.7647,-4.8313,-4.9511,-5.0209,-5.0589,-5.0589,-5.0211,-4.9819,-5.04,-5.0148,-4.9717,-4.9717,-4.9717,-4.9717,-4.9717,-4.9717,-4.9717,-4.9717,-4.9717,-4.9717,-4.9717,-4.9717,-4.9717,-4.9717,-4.9717,-4.9717,-4.9717,-4.9717,-4.9717,-4.9717,-4.9717,-4.9717,-4.9717,-4.9717,-4.9781,-5.0086,-4.9878,-4.9975,-5.0486,-5.0534,-5.0614,-5.0855,-5.0855,-5.0855,-5.0855,-5.0855,-5.0855,-5.0855,-5.1073,-5.1214,-5.1214,-5.1214,-5.1214,-5.1214,-5.1214,-5.1261,-5.1386,-5.2215,-5.2725,-4.588,-4.588,-4.588,-4.588,-4.588,-4.588,-4.588,-4.588,-4.588,-4.588,-4.588,-4.588,-4.588,-4.588,-4.6055,-4.6485,-4.5689,-4.4806,-4.4318,-4.3336,-4.225,-4.1287,-4.0715,-4.0595,-4.1136,-4.11,-4.1485,-4.2602,-4.3012,-4.3325,-4.3505,-4.3889,-4.4312,-4.4705,-4.4717,-4.5025,-4.5635,-4.5757,-4.5939,-4.6193,-4.6253,-4.6313,-4.6313,-4.6313,-4.6313,-4.6313,-4.6313,-4.6313,-4.6276,-4.5811,-4.6124,-4.6918,-4.7636,-4.8217,-4.883,-5.0082,-5.026,-4.9843,-4.9843,-4.9819,-4.9698,-4.9863,-4.977,-4.9717,-4.9717,-4.9717,-4.9717,-4.9717,-4.9717,-4.9717,-4.9717,-4.9717,-4.9717,-4.9717,-4.9717,-4.9717,-4.9717,-4.9717,-4.9717,-4.9717,-4.9717,-4.9717,-4.9717,-4.9717,-4.9717,-4.9717,-4.9717,-4.9781,-5.0086,-5.0038,-5.0216,-5.068,-5.0728,-5.087,-5.112,-5.112,-5.112,-5.112,-5.112,-5.112,-5.112,-5.1167,-5.1214,-5.1214,-5.1214,-5.1214,-5.1214,-5.1214,-5.1603,-5.2336,-5.2516,-5.3399,-4.588,-4.588,-4.588,-4.588,-4.588,-4.588,-4.588,-4.588,-4.588,-4.588,-4.588,-4.588,-4.588,-4.5444,-4.5249,-4.5859,-4.4609,-4.3569,-4.3623,-4.2713,-4.1724,-4.0856,-4.0306,-4.0294,-4.11,-4.0932,-4.1437,-4.3036,-4.3373,-4.3637,-4.3926,-4.4141,-4.4347,-4.4532,-4.4902,-4.5208,-4.5514,-4.5878,-4.6132,-4.6313,-4.6313,-4.6313,-4.6313,-4.6313,-4.6313,-4.6313,-4.6313,-4.6313,-4.6323,-4.6323,-4.6469,-4.6791,-4.7988,-4.8406,-4.8522,-4.9737,-5.0008,-4.9717,-4.9717,-4.9717,-4.9717,-4.9717,-4.9717,-4.9717,-4.9717,-4.9717,-4.9717,-4.9717,-4.9717,-4.9717,-4.9717,-4.9717,-4.9717,-4.9717,-4.9717,-4.9717,-4.9717,-4.9717,-4.9717,-4.9717,-4.9717,-4.9717,-4.9717,-4.9717,-4.9717,-4.9717,-4.9717,-4.9781,-5.0086,-5.0086,-5.0264,-5.076,-5.0807,-5.0917,-5.1167,-5.1214,-5.1214,-5.1214,-5.1214,-5.1214,-5.1214,-5.1214,-5.1214,-5.1214,-5.1214,-5.1214,-5.1214,-5.1696,-5.217,-5.2606,-5.3573,-5.4453,-4.588,-4.588,-4.588,-4.588,-4.588,-4.588,-4.588,-4.588,-4.588,-4.588,-4.588,-4.5835,-4.5595,-4.4851,-4.4471,-4.5002,-4.3336,-4.2217,-4.2907,-4.1991,-4.0992,-4.0451,-4.0126,-4.027,-4.11,-4.1016,-4.1629,-4.3385,-4.3625,-4.389,-4.4261,-4.4285,-4.4347,-4.4532,-4.5025,-4.5392,-4.5514,-4.6072,-4.6313,-4.6313,-4.6313,-4.6313,-4.6313,-4.6313,-4.6313,-4.6313,-4.6313,-4.6481,-4.6717,-4.703,-4.7197,-4.738,-4.8431,-4.8742,-4.8673,-4.9418,-4.9717,-4.9717,-4.9717,-4.9717,-4.9717,-4.9717,-4.9717,-4.9717,-4.9717,-4.9717,-4.9717,-4.9717,-4.9717,-4.9717,-4.9717,-4.9717,-4.9717,-4.9717,-4.9717,-4.9717,-4.9717,-4.9717,-4.9717,-4.9717,-4.9717,-4.9717,-4.9717,-4.9717,-4.9717,-4.9717,-4.9717,-4.9781,-5.0086,-5.0135,-5.0327,-5.068,-5.076,-5.0917,-5.1167,-5.1214,-5.1214,-5.1214,-5.1214,-5.1214,-5.1214,-5.1214,-5.1214,-5.1214,-5.1214,-5.1214,-5.1214,-5.2124,-5.268,-5.2947,-5.4537,-5.5434,-4.588,-4.588,-4.588,-4.588,-4.588,-4.588,-4.588,-4.588,-4.588,-4.588,-4.588,-4.5595,-4.4652,-4.4359,-4.4361,-4.4647,-4.3138,-4.2411,-4.3528,-4.2282,-4.0992,-4.0451,-4.0775,-4.1076,-4.1172,-4.2014,-4.282,-4.3457,-4.3925,-4.4237,-4.4285,-4.4285,-4.4594,-4.5208,-4.527,-4.5574,-4.6193,-4.6253,-4.6313,-4.6313,-4.6313,-4.6313,-4.6313,-4.6313,-4.6313,-4.6313,-4.6313,-4.6921,-4.788,-4.7479,-4.8492,-5.0286,-4.936,-4.9549,-5.0397,-4.9901,-4.9717,-4.9717,-4.9717,-4.9717,-4.9717,-4.9717,-4.9717,-4.9717,-4.9717,-4.9717,-4.9717,-4.9717,-4.9717,-4.9717,-4.9717,-4.9717,-4.9717,-4.9717,-4.9717,-4.9717,-4.9717,-4.9717,-4.9717,-4.9717,-4.9717,-4.9717,-4.9717,-4.9717,-4.9717,-4.9717,-4.9717,-4.9781,-5.0086,-5.0294,-5.0501,-5.0534,-5.0695,-5.0917,-5.1167,-5.1214,-5.1214,-5.1214,-5.1214,-5.1214,-5.1214,-5.1214,-5.1214,-5.1214,-5.1214,-5.1214,-5.1214,-5.2124,-5.3035,-5.3891,-5.4845,-5.5772,-4.588,-4.588,-4.588,-4.588,-4.588,-4.588,-4.588,-4.588,-4.588,-4.588,-4.5398,-4.4805,-4.4359,-4.3293,-4.2619,-4.3173,-4.204,-4.1384,-4.2314,-4.172,-4.0992,-4.0451,-4.086,-4.1305,-4.1629,-4.2386,-4.3108,-4.3889,-4.4153,-4.4409,-4.4594,-4.4594,-4.4717,-4.4963,-4.5392,-4.5757,-4.5999,-4.6193,-4.6313,-4.6313,-4.6313,-4.6313,-4.6313,-4.6313,-4.6313,-4.6313,-4.6313,-4.6981,-4.81,-4.8266,-4.9309,-5.0786,-5.062,-5.0854,-5.1164,-5.0511,-5.0328,-5.022,-4.9814,-4.9717,-4.9717,-4.9717,-4.9717,-4.9717,-4.9717,-4.9717,-4.9717,-4.9717,-4.9717,-4.9717,-4.9717,-4.9717,-4.9717,-4.9717,-4.9717,-4.9717,-4.9717,-4.9717,-4.9717,-4.9717,-4.9717,-4.9717,-4.9717,-4.9717,-4.9717,-4.9717,-4.9717,-4.9732,-4.9829,-5.0086,-5.0246,-5.0246,-5.0742,-5.0979,-5.0819,-5.1041,-5.112,-5.0964,-5.112,-5.1214,-5.1214,-5.1214,-5.1214,-5.1214,-5.1214,-5.1214,-5.1214,-5.2124,-5.308,-5.4019,-5.4886,-5.5812,-4.588,-4.588,-4.588,-4.588,-4.588,-4.5835,-4.5489,-4.5444,-4.5338,-4.5064,-4.4373,-4.3782,-4.3436,-4.2181,-4.1396,0.0,-4.1118,-4.0722,-4.1631,-4.1459,-4.104,-4.0667,-4.1232,-4.1798,-4.2229,-4.2832,-4.3541,-4.4237,-4.4409,-4.4532,-4.4779,-4.4963,-4.5086,-4.5086,-4.5574,-4.5817,-4.5939,-4.618,-4.6313,-4.6313,-4.6313,-4.6313,-4.6313,-4.6313,-4.6313,-4.6313,-4.6313,-4.7205,-4.8691,-4.9061,-5.0188,-5.163,-5.1828,-5.1788,-5.1541,-5.0902,-5.0554,-5.0357,-4.9843,-4.9717,-4.9717,-4.9717,-4.9717,-4.9717,-4.9717,-4.9717,-4.9717,-4.9717,-4.9717,-4.9717,-4.9717,-4.9717,-4.9717,-4.9717,-4.9717,-4.9717,-4.9717,-4.9717,-4.9717,-4.9717,-4.9717,-4.9717,-4.9717,-4.9717,-4.9717,-4.9717,-4.9717,-4.9717,-4.9717,-4.9926,-5.0086,-4.999,-5.0614,-5.0899,-5.0614,-5.0885,-5.1011,-5.0917,-5.112,-5.1214,-5.1214,-5.1214,-5.1214,-5.1214,-5.1214,-5.1214,-5.1214,-5.2124,-5.308,-5.4019,-5.4886,-5.5812,-4.588,-4.588,-4.588,-4.588,-4.588,-4.564,-4.4559,-4.4312,-4.4031,-4.3033,-4.284,-4.2501,-4.1419,-4.1219,-4.1207,0.0,0.0,-4.0789,-4.195,-4.1586,-4.1184,-4.1172,-4.2098,-4.2807,-4.2807,-4.3709,-4.4273,-4.4285,-4.4594,-4.4779,-4.4779,-4.5453,-4.5757,-4.5757,-4.5817,-4.5939,-4.6313,-4.6313,-4.6313,-4.6313,-4.6313,-4.6313,-4.6313,-4.6313,-4.6313,-4.6313,-4.6313,-4.7665,-4.9858,-4.9915,-5.132,-5.339,-5.2804,-5.218,-5.1541,-5.0902,-5.0299,-4.9732,-4.9717,-4.9717,-4.9717,-4.9717,-4.9717,-4.9717,-4.9717,-4.9717,-4.9717,-4.9717,-4.9717,-4.9717,-4.9717,-4.9717,-4.9717,-4.9717,-4.9717,-4.9717,-4.9717,-4.9717,-4.9717,-4.9717,-4.9717,-4.9717,-4.9717,-4.9717,-4.9717,-4.9717,-4.9717,-4.9717,-4.9717,-4.9926,-4.999,-4.9732,-5.0183,-5.0581,-5.076,-5.0807,-5.0917,-5.1167,-5.1214,-5.1214,-5.1214,-5.1214,-5.1214,-5.1214,-5.1214,-5.1214,-5.1214,-5.2124,-5.308,-5.4019,-5.4886,-5.5812,-4.588,-4.5338,-4.4989,-4.573,-4.4819,-4.389,-4.4219,-4.3782,-4.3163,-4.2889,-4.2208,-4.1604,-4.1269,-4.0913,-4.0778,0.0,0.0,-4.1484,-4.2,-4.194,-4.1745,-4.1504,-4.2438,-4.3443,-4.4439,-4.4585,-4.4717,-4.4963,-4.4902,-4.5025,-4.5453,-4.5696,-4.5817,-4.5817,-4.5999,-4.6193,-4.6313,-4.6313,-4.6313,-4.6313,-4.6313,-4.6313,-4.6313,-4.6313,-4.6755,-4.7534,-4.7534,-4.889,-5.1127,-5.1127,-5.2096,-5.3457,-5.2818,-5.218,-5.1483,-5.0394,-4.9582,-4.8957,-4.8522,-4.8377,-4.8377,-4.8377,-4.8377,-4.8377,-4.8377,-4.9035,-4.9717,-4.9717,-4.9717,-4.9717,-4.9717,-4.9717,-4.9717,-4.9717,-4.9717,-4.9717,-4.9717,-4.9717,-4.9717,-4.9717,-4.9717,-4.9717,-4.9717,-4.9717,-4.9717,-4.9717,-4.9717,-4.9717,-4.9717,-4.9781,-4.9781,-4.9717,-5.0038,-5.0231,-5.0313,-5.0632,-5.0855,-5.0917,-5.112,-5.1214,-5.1214,-5.1214,-5.1214,-5.1214,-5.1214,-5.1526,-5.217,-5.2471,-5.3415,-5.4927,-5.5829,-5.643,-4.4727,-4.4233,-4.389,-4.4573,-4.3748,-4.284,-4.3054,-4.2633,-4.211,0.0,0.0,0.0,0.0,-4.0731,-4.0711,-4.1301,-4.1537,-4.1849,-4.2182,-4.2155,-4.2189,-4.2351,-4.3039,-4.3976,-4.5171,-4.5086,-4.5086,-4.527,-4.5208,-4.5392,-4.5757,-4.5939,-4.5999,-4.5999,-4.6193,-4.6313,-4.6313,-4.6313,-4.6313,-4.6313,-4.6313,-4.6313,-4.6313,-4.6755,-4.737,-4.8152,-4.8602,-4.9779,0.0,-5.1365,-5.1807,-5.2412,-5.2006,-5.1309,-5.0423,-4.9625,-4.8914,-4.8319,-4.7912,-4.7782,-4.7782,-4.7782,-4.7782,-4.7782,-4.7782,-4.8333,-4.8957,-4.8957,-4.8957,-4.9016,-4.9248,-4.932,-4.9378,-4.9611,-4.9717,-4.9717,-4.9717,-4.9717,-4.9717,-4.9717,-4.9717,-4.9717,-4.9717,-4.9717,-4.9717,-4.9717,-4.9717,-4.9717,-4.9717,-4.9717,-4.9732,-4.9829,-4.999,-5.0183,-5.0361,-5.0632,-5.0855,-5.0964,-5.112,-5.1214,-5.1214,-5.1214,-5.1214,-5.1214,-5.1214,-5.1479,-5.2078,-5.2769,-5.3875,-5.5296,-5.6241,-5.668,0.0,-4.2647,-4.2695,-4.2792,-4.2695,-4.2355,-4.1419,0.0,0.0,0.0,0.0,0.0,0.0,-4.0614,-4.0965,-4.2049,-4.1963,-4.1941,-4.2451,-4.2312,-4.2561,-4.3644,-4.3888,-4.4353,-4.5269,-4.5331,-4.5331,-4.5392,-4.5635,-4.5817,-4.5817,-4.6132,-4.6313,-4.6313,-4.6313,-4.6313,-4.6313,-4.6313,-4.6313,-4.6313,-4.6313,-4.6373,-4.6481,-4.7593,-4.8184,-4.8376,-4.9508,-5.0285,-5.0798,-5.0798,-5.0748,-5.0598,-5.0604,-4.977,-4.8653,-4.8561,-4.8188,-4.7637,-4.7637,-4.7637,-4.7637,-4.7637,-4.7637,-4.7637,-4.7637,-4.7709,-4.7782,-4.7782,-4.7782,-4.7912,-4.8508,-4.8667,-4.8798,-4.9407,-4.9538,-4.9601,-4.9596,-4.9611,-4.9611,-4.9717,-4.9717,-4.9717,-4.9717,-4.9717,-4.9717,-4.9717,-4.9717,-4.9717,-4.9717,-4.9717,-4.9781,-5.0086,-5.0086,-5.0264,-5.076,-5.0807,-5.0917,-5.1167,-5.1214,-5.1214,-5.1214,-5.1214,-5.1214,-5.1214,-5.1261,-5.1308,-5.1308,-5.3124,-5.4443,-5.5296,-5.6202,-5.6641,-4.053,0.0,-4.1752,-4.2598,-4.1581,-4.0567,0.0,0.0,0.0,0.0,0.0,0.0,0.0,-4.1492,-4.1911,-4.2162,-4.2509,-4.2712,-4.2837,-4.2581,-4.2878,-4.4203,-4.4231,-4.463,-4.5912,-4.5817,-4.5757,-4.6059,-4.5878,-4.5878,-4.618,-4.6253,-4.6313,-4.6313,-4.6313,-4.6313,-4.6313,-4.6313,-4.6313,-4.6313,-4.6313,-4.6755,-4.7697,-4.7977,-4.8879,-5.0201,-5.0474,-5.0636,-5.0738,-5.0738,-5.0427,-4.9857,-4.9378,-4.8696,-4.7941,-4.7462,-4.6867,-4.633,-4.633,-4.633,-4.633,-4.633,-4.633,-4.633,-4.633,-4.7013,-4.7782,-4.7782,-4.7782,-4.7811,-4.7956,-4.7999,-4.8043,-4.8188,-4.8232,-4.8362,-4.8841,-4.8957,-4.9088,-4.9582,-4.9717,-4.9717,-4.9717,-4.9717,-4.9717,-4.9717,-4.9717,-4.9717,-4.9717,-4.9717,-4.9781,-5.0086,-5.0086,-5.0264,-5.076,-5.0807,-5.0917,-5.1167,-5.1214,-5.1214,-5.1214,-5.1214,-5.1214,-5.1214,-5.1911,-5.226,-5.2245,-5.3415,-5.4443,-5.5296,-5.5515,-5.5988,-4.0526,-4.0464,-4.0655,-4.1246,-4.0709,-4.0217,-4.0747,0.0,0.0,0.0,0.0,0.0,0.0,-4.1957,-4.2288,-4.2552,-4.2841,-4.2974,-4.2974,-4.2918,-4.3335,-4.4473,-4.4577,-4.5017,-4.6165,-4.6132,-4.6132,-4.6313,-4.612,-4.612,-4.6313,-4.6313,-4.6313,-4.6313,-4.6313,-4.6313,-4.6313,-4.6313,-4.6588,-4.7146,-4.7146,-4.7769,-4.8935,-4.9236,-4.99,-5.0789,-5.0768,-5.0564,-5.022,-4.9901,-4.9219,-4.8333,-4.7985,-4.7462,-4.6867,-4.6519,-4.6185,-4.588,-4.588,-4.588,-4.588,-4.588,-4.588,-4.588,-4.588,-4.6359,-4.6911,-4.6911,-4.6911,-4.6969,-4.7274,-4.7346,-4.7419,-4.7709,-4.7782,-4.7869,-4.8217,-4.829,-4.8478,-4.9117,-4.9233,-4.9335,-4.9625,-4.9717,-4.9717,-4.9717,-4.9717,-4.9717,-4.9717,-4.9717,-4.9781,-5.0086,-5.0086,-5.0264,-5.076,-5.0807,-5.0917,-5.1167,-5.1073,-5.1058,-5.1167,-5.1214,-5.1214,-5.1214,-5.1696,-5.217,-5.2606,-5.3545,-5.4443,-5.5296,-5.5732,-5.6202,-4.1313,-4.0664,-3.9948,-3.9948,-4.03,-4.0639,-4.0639,0.0,0.0,0.0,0.0,0.0,0.0,-4.2338,-4.2489,-4.2898,-4.2974,-4.3011,-4.3087,-4.3299,-4.3766,-4.4623,-4.4948,-4.54,-4.6203,-4.6313,-4.6313,-4.6313,-4.6313,-4.6313,-4.6313,-4.6313,-4.6313,-4.6313,-4.6313,-4.6313,-4.6313,-4.6313,-4.6921,-4.8094,-4.8094,-4.878,-5.0046,-5.0458,-5.0632,-5.0604,-5.0457,-4.9959,-4.9185,-4.8619,-4.7706,-4.6633,-4.6633,-4.6359,-4.588,-4.588,-4.588,-4.588,-4.588,-4.588,-4.588,-4.588,-4.588,-4.588,-4.588,-4.588,-4.588,-4.588,-4.588,-4.6011,-4.6548,-4.6633,-4.6824,-4.7361,-4.7491,-4.7521,-4.7622,-4.7637,-4.7825,-4.8464,-4.858,-4.8754,-4.9291,-4.9465,-4.9538,-4.9538,-4.9611,-4.9717,-4.9717,-4.9717,-4.9737,-4.994,-4.9892,-5.0074,-5.0463,-5.0416,-5.051,-5.0868,-5.0907,-5.0964,-5.1167,-5.1214,-5.1261,-5.1386,-5.1386,-5.1865,-5.2829,-5.3589,-5.4443,-5.5296,-5.6123,-5.6547,-4.1467,-4.1163,-4.1025,-4.1025,-4.11,-4.1163,-4.1163,0.0,0.0,0.0,0.0,0.0,0.0,-4.2848,-4.2873,-4.2961,-4.2974,-4.3137,-4.3614,-4.3695,-4.4134,-4.5234,-4.5375,-4.5639,-4.625,-4.6313,-4.6313,-4.6313,-4.6313,-4.6313,-4.6313,-4.6313,-4.6313,-4.6313,-4.6313,-4.6313,-4.6313,-4.6313,-4.6921,-4.8094,-4.8094,-4.9023,-5.0661,-5.0191,-4.9907,-4.9814,-4.9238,-4.8362,-4.7227,-4.7111,-4.6693,-4.6026,-4.6026,-4.5967,-4.588,-4.588,-4.588,-4.588,-4.588,-4.588,-4.588,-4.588,-4.588,-4.588,-4.588,-4.588,-4.588,-4.588,-4.588,-4.5909,-4.5996,-4.6026,-4.6055,-4.6156,-4.6171,-4.6316,-4.6853,-4.6969,-4.7158,-4.7796,-4.7927,-4.7956,-4.8058,-4.8522,-4.887,-4.887,-4.9335,-4.9717,-4.9717,-4.9717,-4.9611,-4.9296,-4.9062,-4.8986,-4.9172,-4.8791,-4.8837,-4.9568,-5.0554,-5.1167,-5.1214,-5.1214,-5.1557,-5.2381,-5.2381,-5.2858,-5.3778,-5.3949,-5.4443,-5.5296,-5.5434,-5.5948,-4.2296,-4.2233,-4.2233,-4.2233,-4.1995,-4.1781,-4.1781,0.0,0.0,0.0,0.0,0.0,-4.2924,-4.2974,-4.2974,-4.2974,-4.2974,-4.3175,-4.3727,-4.4053,-4.4556,-4.5384,-4.5748,-4.6037,-4.6288,-4.6313,-4.6313,-4.6313,-4.6313,-4.6313,-4.6313,-4.6313,-4.6313,-4.6313,-4.6921,-4.7252,-4.7252,-4.7945,-4.85,-4.9062,-4.9421,-5.0131,-5.1204,-5.018,-4.9537,-4.9103,0.0,-4.7314,-4.6749,-4.6461,-4.6142,-4.588,-4.588,-4.588,-4.588,-4.588,-4.588,-4.588,-4.588,-4.588,-4.588,-4.588,-4.588,-4.588,-4.588,-4.588,-4.588,-4.588,-4.588,-4.588,-4.588,-4.588,-4.588,-4.588,-4.588,-4.5967,-4.6258,-4.6316,-4.6505,-4.7143,-4.7274,-4.7375,-4.7724,-4.8029,-4.8217,-4.8217,-4.8464,-4.8653,-4.8653,-4.8653,-4.8617,-4.8547,-4.8424,-4.8509,-4.8876,-4.8663,-4.8709,-4.9043,-4.9792,-5.0316,-5.0629,-5.0644,-5.1287,-5.2546,-5.2606,-5.308,-5.3976,-5.4469,-5.4927,-5.5296,-5.5812,-5.6297,-4.2974,-4.2974,-4.2974,-4.2974,0.0,-4.2401,-4.2401,-4.2728,-4.2974,-4.2974,-4.2974,-4.2974,-4.2974,-4.2974,-4.3024,-4.315,-4.3175,-4.3413,-4.4091,-4.4556,-4.5033,-4.561,-4.605,-4.6313,-4.6313,-4.6313,-4.6313,-4.6313,-4.6313,-4.6313,-4.6313,-4.6313,-4.6421,-4.6695,-4.7652,-4.8203,-4.8289,-4.9543,-5.0103,-5.0089,-5.0443,-5.0791,-5.112,-4.9857,-4.8914,-4.817,-4.7053,-4.6606,-4.6563,-4.6084,-4.588,-4.588,-4.588,-4.588,-4.588,-4.588,-4.588,-4.588,-4.588,-4.588,-4.588,-4.588,-4.588,-4.588,-4.588,-4.588,-4.588,-4.588,-4.588,-4.588,-4.588,-4.588,-4.588,-4.588,-4.588,-4.588,-4.588,-4.588,-4.6026,-4.6519,-4.6606,-4.6766,-4.7259,-4.7462,-4.7564,-4.7564,-4.768,-4.7782,-4.7782,-4.7782,-4.7817,-4.7875,-4.7907,-4.8047,-4.8416,-4.8491,-4.8551,-4.8551,-4.9,-4.9494,-4.9987,-5.0017,-5.0759,-5.2423,-5.2423,-5.2973,-5.4131,-5.4948,-5.5351,-5.5408,-5.6292,-5.668,-4.2974,-4.2974,-4.2974,-4.2974,-4.2949,-4.2924,-4.2924,-4.2949,-4.2974,-4.2974,-4.2974,-4.2974,-4.2974,-4.2974,-4.3137,-4.3664,-4.374,-4.4129,-4.5208,-4.5397,-4.5635,-4.6188,-4.6288,-4.6313,-4.6313,-4.6313,-4.6313,-4.6313,-4.6313,-4.6313,-4.6313,-4.6313,-4.6815,-4.7919,-4.8035,-4.8338,-4.8934,-5.0103,-5.0726,-5.0712,-5.0121,-4.9831,-4.977,-4.8508,-4.7564,-4.6879,-4.6243,-4.5953,-4.5953,-4.5909,-4.588,-4.588,-4.588,-4.588,-4.588,-4.588,-4.588,-4.588,-4.588,-4.588,-4.588,-4.588,-4.588,-4.588,-4.588,-4.588,-4.588,-4.588,-4.588,-4.588,-4.588,-4.588,-4.588,-4.588,-4.588,-4.588,-4.588,-4.588,-4.5895,-4.5953,-4.5953,-4.5967,-4.6011,-4.6505,-4.685,-4.685,-4.7404,-4.7782,-4.7782,-4.7782,-4.7657,-4.7305,-4.7232,-4.721,-4.708,-4.7255,-4.74,-4.74,-4.8596,-4.9329,-4.9374,-4.9374,-5.019,-5.1925,-5.1966,-5.2781,-5.4472,-5.5203,-5.5572,-5.5605,-5.6343,-5.668,-4.2974,-4.2974,-4.2974,-4.2974,-4.2974,-4.2974,-4.2974,-4.2974,-4.2974,-4.2974,-4.2974,-4.3087,-4.3426,-4.3489,-4.3664,-4.4217,-4.4317,-4.4581,-4.5384,-4.5485,-4.5698,-4.625,-4.6313,-4.6313,-4.6313,-4.6313,-4.6313,-4.6313,-4.6313,-4.6313,-4.6313,-4.704,-4.7425,-4.7469,-4.8967,-4.9694,-4.9507,-5.0715,-5.0878,-5.0126,-4.9882,-4.9521,-4.903,-4.7767,-4.6853,-4.6229,-4.5996,-4.588,-4.588,-4.588,-4.588,-4.588,-4.588,-4.588,-4.588,-4.588,-4.588,-4.588,-4.588,-4.588,-4.588,-4.588,-4.588,-4.588,-4.588,-4.588,-4.588,-4.588,-4.588,-4.588,-4.588,-4.588,-4.588,-4.588,-4.588,-4.588,-4.588,-4.588,-4.588,-4.588,-4.588,-4.588,-4.588,-4.6084,-4.6243,-4.6243,-4.6446,-4.6606,-4.6606,-4.6606,-4.6687,-4.6814,-4.7096,-4.7228,-4.715,-4.7251,-4.7309,-4.7309,-4.7773,-4.8222,-4.8641,-4.87,-4.97,-5.185,-5.1891,-5.2757,-5.449,-5.4771,-5.4903,-5.4903,-5.5206,-5.5338,-4.2974,-4.2974,-4.2974,-4.2974,0.0,0.0,-4.32,-4.3099,-4.2974,-4.2974,-4.3112,-4.3413,-4.3953,-4.4066,-4.4254,-4.4807,-4.4895,-4.5095,-4.566,-4.5748,-4.5886,-4.6276,-4.6313,-4.6313,-4.6313,-4.6313,-4.6313,-4.6313,-4.6648,-4.6798,-4.6561,-4.7716,-4.8232,-4.7972,-4.9622,-5.0372,-5.0077,-5.0889,-5.067,-4.9378,-4.9175,-4.874,-4.8039,-4.7027,-4.6301,-4.588,-4.588,-4.588,-4.588,-4.588,-4.588,-4.588,-4.588,-4.588,-4.588,-4.588,-4.588,-4.588,-4.588,-4.588,-4.588,-4.588,-4.588,-4.588,-4.588,-4.588,-4.588,-4.588,-4.588,-4.588,-4.588,-4.588,-4.588,-4.588,-4.588,-4.588,-4.588,-4.588,-4.588,-4.588,-4.588,-4.588,-4.588,-4.588,-4.588,-4.588,-4.588,-4.588,-4.588,-4.588,-4.606,-4.655,-4.7033,-4.7309,-4.7309,-4.7309,-4.7309,-4.7309,-4.7309,-4.7504,-4.7952,-4.7982,-4.9029,-5.1186,-5.1243,-5.2082,-5.3848,-5.4063,-5.4125,-5.4179,-5.4374,-5.449,-4.2974,-4.2974,-4.2974,-4.2986,0.0,-4.3137,-4.3689,-4.3388,-4.2986,-4.2986,-4.3426,-4.3978,-4.4531,-4.4631,-4.4819,-4.5397,-4.5497,-4.5686,-4.6238,-4.6313,-4.6313,-4.6313,-4.6313,-4.6313,-4.6313,-4.6313,-4.6313,-4.6313,-4.7416,-4.7787,-4.7156,-4.8295,-4.9241,-4.9757,-4.9795,-5.01,-5.067,-5.072,-5.0017,-4.8663,-4.8087,-4.7448,-4.6763,-4.6185,-4.588,-4.588,-4.588,-4.588,-4.588,-4.588,-4.588,-4.588,-4.588,-4.588,-4.588,-4.588,-4.588,-4.588,-4.588,-4.588,-4.588,-4.588,-4.588,-4.588,-4.588,-4.588,-4.588,-4.588,-4.588,-4.588,-4.588,-4.588,-4.588,-4.588,-4.588,-4.588,-4.588,-4.588,-4.588,-4.588,-4.588,-4.588,-4.588,-4.588,-4.588,-4.588,-4.588,-4.588,-4.588,-4.5925,-4.6105,-4.655,-4.7033,-4.7309,-4.7309,-4.7309,-4.7309,-4.7309,-4.7309,-4.7309,-4.7309,-4.7309,-4.8088,-4.9765,-4.9805,-5.0653,-5.2409,-5.3069,-5.34,-5.3417,-5.4162,-5.4456,-4.2974,-4.2974,-4.3162,-4.394,-4.384,-4.3802,-4.4769,-4.4242,-4.3664,-4.4053,-4.4267,-4.4556,-4.5133,-4.5234,-4.5409,-4.5974,-4.6062,-4.6125,-4.6288,-4.6313,-4.6313,-4.6313,-4.6313,-4.6313,-4.6313,-4.6313,-4.6648,-4.7475,-4.7438,-4.7701,-4.842,-4.9172,-4.9412,-4.9126,-4.9978,-5.0313,-4.9973,-5.0023,-4.932,-4.8058,-4.7869,-4.7448,-4.6763,-4.6185,-4.588,-4.588,-4.588,-4.588,-4.588,-4.588,-4.588,-4.588,-4.588,-4.588,-4.588,-4.588,-4.588,-4.588,-4.588,-4.588,-4.588,-4.588,-4.588,-4.588,-4.588,-4.588,-4.588,-4.588,-4.588,-4.588,-4.588,-4.588,-4.588,-4.588,-4.588,-4.588,-4.588,-4.588,-4.588,-4.588,-4.588,-4.588,-4.588,-4.588,-4.588,-4.588,-4.588,-4.597,-4.609,-4.6403,-4.6668,-4.68,-4.7121,-4.7309,-4.7309,-4.7309,-4.7309,-4.7309,-4.7309,-4.7309,-4.7309,-4.7892,-4.8723,-4.9765,-5.0422,-5.1268,-5.2409,-5.2589,-5.2688,-5.2688,-5.2904,-5.3019,-4.3313,-4.3463,-4.379,-4.4455,-4.438,-4.4367,-4.5284,-4.4782,-4.4292,-4.4844,-4.497,-4.5133,-4.5711,-4.5811,-4.5924,-4.625,-4.6313,-4.6313,-4.6313,-4.6313,-4.6313,-4.6313,-4.6313,-4.6481,-4.6981,-4.704,-4.7398,-4.8387,-4.8509,-4.865,-4.8884,-4.9707,-4.9862,-4.9171,-4.9902,-5.009,-4.9717,-4.9717,-4.9045,-4.7782,-4.7782,-4.7317,-4.6446,-4.6069,-4.588,-4.588,-4.588,-4.588,-4.588,-4.588,-4.588,-4.588,-4.588,-4.588,-4.588,-4.588,-4.588,-4.588,-4.588,-4.588,-4.588,-4.588,-4.588,-4.588,-4.588,-4.588,-4.588,-4.588,-4.588,-4.588,-4.588,-4.588,-4.588,-4.588,-4.588,-4.588,-4.588,-4.588,-4.588,-4.588,-4.588,-4.588,-4.588,-4.588,-4.588,-4.588,-4.597,-4.6046,-4.6165,-4.6609,-4.6916,-4.6916,-4.7164,-4.7309,-4.7309,-4.7309,-4.7309,-4.7309,-4.7309,-4.7309,-4.7309,-4.813,-4.9157,-5.0306,-5.0821,-5.1508,-5.2409,-5.2409,-5.2409,-5.2409,-5.2409,-5.2409,-4.3878,-4.4242,-4.4644,-4.4756,-4.4819,-4.4982,-4.546,-4.5158,-4.4932,-4.546,-4.556,-4.5711,-4.6225,-4.6313,-4.6313,-4.6313,-4.6313,-4.6313,-4.6313,-4.6313,-4.6313,-4.6313,-4.6421,-4.6862,-4.7977,-4.8158,-4.8484,-4.9129,-5.0046,-5.0157,-4.9005,-5.0019,-5.0307,-4.9698,-4.9717,-4.9717,-4.9717,-4.9717,-4.9045,-4.7782,-4.7782,-4.7114,-4.588,-4.588,-4.588,-4.588,-4.588,-4.588,-4.588,-4.588,-4.588,-4.588,-4.588,-4.588,-4.588,-4.588,-4.588,-4.588,-4.588,-4.588,-4.588,-4.588,-4.588,-4.588,-4.588,-4.588,-4.588,-4.588,-4.588,-4.588,-4.588,-4.588,-4.588,-4.588,-4.588,-4.588,-4.588,-4.588,-4.588,-4.588,-4.588,-4.588,-4.588,-4.588,-4.588,-4.588,-4.609,-4.6254,-4.6254,-4.6668,-4.6931,-4.6931,-4.7164,-4.7309,-4.7309,-4.7309,-4.7309,-4.7309,-4.7309,-4.7352,-4.7424,-4.8256,-4.9439,-5.0951,-5.1156,-5.1598,-5.2409,-5.2409,-5.2409,-5.2409,-5.2409,-5.2409,-4.4443,-4.4531,0.0,-4.5723,-4.6276,-4.6514,-4.62,-4.6037,-4.5987,-4.6112,-4.6137,-4.6175,-4.6288,-4.6313,-4.6313,-4.6313,-4.6313,-4.6313,-4.6313,-4.6313,-4.6313,-4.6313,-4.7146,-4.7815,-4.8094,-4.8535,-4.928,-5.0333,-4.9693,-4.9554,-5.0256,-5.0064,-4.9877,-4.9717,-4.9717,-4.9717,-4.9717,-4.9717,-4.9045,-4.7782,-4.7782,-4.7114,-4.588,-4.588,-4.588,-4.588,-4.588,-4.588,-4.588,-4.588,-4.588,-4.588,-4.588,-4.588,-4.588,-4.588,-4.588,-4.588,-4.588,-4.588,-4.588,-4.588,-4.588,-4.588,-4.588,-4.588,-4.588,-4.588,-4.588,-4.588,-4.588,-4.588,-4.588,-4.588,-4.588,-4.588,-4.588,-4.588,-4.588,-4.588,-4.588,-4.588,-4.588,-4.588,-4.588,-4.588,-4.6239,-4.6506,-4.6506,-4.6902,-4.7207,-4.7207,-4.7266,-4.7309,-4.7309,-4.7309,-4.7309,-4.7309,-4.7309,-4.7624,-4.8297,-4.9116,-4.9702,-5.0057,-5.1417,-5.2214,-5.2409,-5.2409,-5.2409,-5.2409,-5.2409,-5.2409,-4.5033,0.0,0.0,-4.6163,-4.6527,-4.6665,-4.6376,-4.6313,-4.6313,-4.6313,-4.6313,-4.6313,-4.6313,-4.6313,-4.6313,-4.6313,-4.6313,-4.6313,-4.6313,-4.6815,-4.7146,-4.7146,-4.821,-4.9164,-4.9775,-4.9872,-5.0248,-5.1109,-5.0249,-4.9882,-5.0206,-4.9906,-4.9717,-4.9717,-4.9717,-4.9717,-4.9717,-4.9717,-4.9045,-4.7782,-4.7782,-4.7114,-4.588,-4.588,-4.588,-4.588,-4.588,-4.588,-4.588,-4.588,-4.588,-4.588,-4.588,-4.588,-4.588,-4.588,-4.588,-4.588,-4.588,-4.588,-4.588,-4.588,-4.588,-4.588,-4.588,-4.588,-4.588,-4.588,-4.588,-4.588,-4.588,-4.588,-4.588,-4.588,-4.588,-4.588,-4.588,-4.588,-4.588,-4.588,-4.588,-4.588,-4.588,-4.588,-4.588,-4.588,-4.6194,-4.6447,-4.6594,-4.6902,-4.7164,-4.7309,-4.7309,-4.7309,-4.7309,-4.7309,-4.7309,-4.7309,-4.7309,-4.7495,-4.7976,-4.9141,-5.0017,-5.0422,-5.1306,-5.198,-5.2409,-5.2409,-5.2409,-5.2409,-5.2409,-5.2409,-4.5635,0.0,-4.6313,-4.6313,-4.6313,-4.6313,-4.6313,-4.6313,-4.6313,-4.6313,-4.6313,-4.6313,-4.6313,-4.6313,-4.6313,-4.6313,-4.6313,-4.6313,-4.6313,-4.7311,-4.8094,-4.8094,-4.9335,-5.0573,-5.1579,-5.1231,-5.11,-5.1556,-5.0917,-5.0313,-4.9712,-4.9717,-4.9717,-4.9717,-4.9717,-4.9717,-4.9717,-4.9717,-4.9045,-4.7782,-4.7564,-4.6896,-4.588,-4.588,-4.588,-4.588,-4.588,-4.588,-4.588,-4.588,-4.588,-4.588,-4.588,-4.588,-4.588,-4.588,-4.588,-4.588,-4.588,-4.579,-4.564,-4.564,-4.564,-4.564,-4.564,-4.573,-4.588,-4.588,-4.588,-4.588,-4.588,-4.588,-4.588,-4.588,-4.588,-4.588,-4.588,-4.588,-4.588,-4.588,-4.588,-4.588,-4.588,-4.588,-4.588,-4.588,-4.609,-4.6358,-4.655,-4.6815,-4.7062,-4.7266,-4.7309,-4.7309,-4.7309,-4.7309,-4.7309,-4.7309,-4.7309,-4.7309,-4.7309,-4.8805,-4.9978,-5.0876,-5.1156,-5.1672,-5.2409,-5.2409,-5.2409,-5.2409,-5.2409,-5.2409,0.0,0.0,-4.6313,0.0,-4.6313,-4.6313,-4.6313,-4.6313,-4.6313,-4.6313,-4.6313,-4.6313,-4.6313,-4.6313,-4.6313,-4.6313,-4.6313,-4.6313,-4.6313,-4.7311,-4.8094,-4.8094,-5.0113,-5.1525,-5.1688,-5.1552,-5.1497,-5.1577,-5.0496,-4.977,-4.9717,-4.9717,-4.9717,-4.9717,-4.9717,-4.9717,-4.9717,-4.9717,-4.9045,-4.7767,-4.6664,-4.6055,-4.588,-4.588,-4.588,-4.588,-4.588,-4.588,-4.588,-4.588,-4.588,-4.588,-4.588,-4.588,-4.588,-4.588,-4.588,-4.588,-4.588,-4.5293,-4.4499,-4.4499,-4.4499,-4.4499,-4.4499,-4.5141,-4.588,-4.588,-4.588,-4.588,-4.588,-4.588,-4.588,-4.588,-4.588,-4.588,-4.588,-4.588,-4.588,-4.588,-4.588,-4.588,-4.588,-4.588,-4.588,-4.588,-4.6284,-4.655,-4.6594,-4.699,-4.7251,-4.7309,-4.7309,-4.7309,-4.7309,-4.7309,-4.7309,-4.7309,-4.7309,-4.7309,-4.7309,-4.8256,-4.9157,-4.9978,-5.1455,-5.2302,-5.2409,-5.2409,-5.2409,-5.2409,-5.2409,-5.2409,-4.6313,-4.6313,-4.6313,0.0,-4.6313,-4.6313,-4.6313,-4.6313,-4.6313,-4.6313,-4.6313,-4.6313,-4.6313,-4.6313,-4.6313,-4.6313,-4.6862,-4.7311,-4.7311,-4.8935,-5.0113,-5.0113,-5.1634,-5.2573,-5.2229,-5.1828,-5.1468,-5.112,-5.0206,-4.9717,-4.9717,-4.9717,-4.9717,-4.9717,-4.9717,-4.9781,-4.9926,-4.9781,-4.9045,-4.7767,-4.649,-4.588,-4.588,-4.588,-4.588,-4.588,-4.588,-4.588,-4.588,-4.588,-4.588,-4.588,-4.588,-4.588,-4.588,-4.588,-4.5535,-4.5003,-4.5003,-4.4326,-4.3545,-4.4125,-4.4312,-4.4406,-4.5003,-4.5535,-4.588,-4.588,-4.588,-4.588,-4.588,-4.588,-4.588,-4.588,-4.588,-4.588,-4.588,-4.588,-4.588,-4.588,-4.588,-4.588,-4.588,-4.588,-4.588,-4.588,-4.618,-4.6447,-4.6594,-4.6902,-4.7121,-4.7266,-4.7309,-4.7309,-4.7309,-4.7309,-4.7309,-4.7309,-4.7309,-4.751,-4.8019,-4.8831,-4.9662,-5.0499,-5.1268,-5.1908,-5.2409,-5.2409,-5.2409,-5.2409,-5.2409,-5.2409,-4.6313,0.0,-4.6313,-4.6313,-4.6313,-4.6313,-4.6313,-4.6313,-4.6313,-4.6313,-4.6313,-4.6361,-4.6695,-4.6528,-4.6313,-4.6313,-4.7311,-4.8094,-4.8094,-5.0169,-5.1688,-5.1688,-5.2769,-5.3326,-5.2847,-5.2078,-5.1425,-5.0946,-5.0148,-4.9717,-4.9717,-4.9717,-4.9717,-4.9717,-4.9717,-4.9781,-4.999,-4.9621,-4.887,-4.7767,-4.665,-4.604,-4.588,-4.588,-4.588,-4.588,-4.588,-4.588,-4.588,-4.588,-4.588,-4.588,-4.588,-4.588,-4.588,-4.5595,-4.5003,-4.4266,-4.4031,-4.3259,-4.2536,-4.3592,-4.3923,-4.4125,-4.5155,-4.5685,-4.588,-4.588,-4.588,-4.588,-4.588,-4.588,-4.588,-4.588,-4.588,-4.588,-4.588,-4.588,-4.588,-4.588,-4.588,-4.588,-4.588,-4.5925,-4.597,-4.597,-4.6225,-4.6432,-4.6624,-4.6887,-4.7062,-4.7266,-4.7309,-4.7309,-4.7309,-4.7309,-4.7309,-4.7309,-4.7495,-4.7934,-4.8573,-4.9599,-5.0422,-5.1081,-5.1322,-5.1745,-5.2409,-5.2409,-5.2409,-5.2409,-5.2409,-5.2409,-4.6313,-4.6313,0.0,-4.6313,-4.6313,-4.6313,-4.6313,-4.6313,-4.6313,-4.6313,-4.6313,-4.6648,-4.7815,-4.7087,-4.6313,-4.6313,-4.7311,-4.8094,-4.8094,-5.0169,-5.1688,-5.1688,-5.2769,-5.35,-5.3471,-5.2339,-5.1614,-5.1585,-5.0394,-4.9717,-4.9717,-4.9717,-4.9717,-4.9717,-4.9717,-4.9717,-4.9732,-4.9074,-4.8435,-4.7767,-4.71,-4.6461,-4.588,-4.588,-4.588,-4.588,-4.588,-4.588,-4.588,-4.588,-4.588,-4.588,-4.588,-4.588,-4.579,-4.4759,-4.4359,-4.4172,-4.3211,-4.2195,-4.1468,-4.2536,-4.2889,-4.3081,-4.4078,-4.5095,-4.588,-4.588,-4.588,-4.588,-4.588,-4.588,-4.588,-4.588,-4.588,-4.588,-4.588,-4.588,-4.588,-4.588,-4.588,-4.588,-4.588,-4.6046,-4.6165,-4.6165,-4.6565,-4.6887,-4.6873,-4.7121,-4.7266,-4.7309,-4.7309,-4.7309,-4.7309,-4.7309,-4.7309,-4.7309,-4.8103,-4.8573,-4.8615,-5.0167,-5.1027,-5.1118,-5.1908,-5.2338,-5.2409,-5.2409,-5.2409,-5.2409,-5.2409,-5.2409,-4.6313,0.0,0.0,-4.6753,-4.6577,-4.6401,-4.6753,-4.6564,-4.6528,-4.7311,-4.6874,-4.6934,-4.889,-4.8268,-4.771,-4.85,-4.9619,-5.0393,-5.0393,-5.1811,-5.2837,-5.2837,-5.3237,-5.3355,-5.2949,-5.2499,-5.1889,-5.1077,-5.0583,-5.0133,-4.9698,-4.9717,-4.9717,-4.9717,-4.9878,-4.9975,-4.9975,-4.9476,-4.8737,-4.7767,-4.7143,-4.6662,-4.6475,-4.6069,-4.6113,-4.6475,-4.6069,-4.588,-4.5835,-4.5155,-4.5293,-4.579,-4.4434,-4.428,-4.4759,-4.3701,-4.2923,-4.2244,-4.19,-4.1082,-4.0516,-4.2257,-4.2792,-4.3129,-4.4805,-4.5595,-4.588,-4.588,-4.588,-4.588,-4.588,-4.588,-4.588,-4.588,-4.588,-4.588,-4.588,-4.588,-4.588,-4.588,-4.588,-4.588,-4.588,-4.6046,-4.621,-4.621,-4.6609,-4.6916,-4.6916,-4.7121,-4.7309,-4.7309,-4.7309,-4.7309,-4.7309,-4.7822,-4.813,-4.813,-4.8913,-4.9623,-5.0206,-5.08,-5.1359,-5.1908,-5.225,-5.2409,-5.2409,-5.2409,-5.2409,-5.2409,-5.2409,-5.2409,-4.6589,-4.6715,-4.6928,-4.7305,-4.7117,-4.6891,-4.7092,-4.6792,-4.6756,-4.7349,-4.6862,-4.704,-4.9462,-4.9234,-4.8948,-4.9802,-5.0906,-5.1688,-5.1688,-5.2716,-5.3515,-5.3515,-5.3515,-5.3341,-5.292,-5.2702,-5.2187,-5.1062,-5.0786,-5.038,-4.9761,-4.9717,-4.9732,-4.9829,-4.9926,-5.0038,-5.0086,-4.9743,-4.9059,-4.8101,-4.7666,-4.7198,-4.6778,-4.6388,-4.6316,-4.649,-4.6069,-4.5685,-4.5338,-4.4989,-4.4865,-4.4773,-4.3701,-4.3497,-4.3687,-4.2633,-4.1815,-4.1219,-4.1219,-4.0743,-4.0554,-4.2633,-4.3307,-4.3654,-4.5353,-4.588,-4.588,-4.588,-4.588,-4.588,-4.588,-4.588,-4.588,-4.588,-4.588,-4.588,-4.588,-4.588,-4.588,-4.588,-4.588,-4.588,-4.588,-4.6046,-4.621,-4.6314,-4.6668,-4.6931,-4.7019,-4.7207,-4.7309,-4.7309,-4.7309,-4.7309,-4.7309,-4.7822,-4.8297,-4.8573,-4.9343,-5.0174,-5.1081,-5.1397,-5.1818,-5.239,-5.2409,-5.2409,-5.2409,-5.2409,-5.2409,-5.2409,-5.2409,-5.2409,0.0,0.0,0.0,-4.792,-4.792,-4.7782,-4.7231,-4.7167,-4.7004,-4.6499,-4.6399,-4.7112,-4.9519,-4.9971,-4.9971,-5.0028,-5.0962,-5.1743,-5.1743,-5.2769,-5.3515,-5.3515,-5.3515,-5.3515,-5.3515,-5.2963,-5.2325,-5.1686,-5.1062,-5.0409,-4.979,-4.9732,-4.9829,-5.0086,-4.9829,-4.9829,-5.0086,-4.9829,-4.9349,-4.8677,-4.8677,-4.8025,-4.6836,-4.6807,-4.6459,-4.5893,-4.585,-4.5247,-4.4312,-4.5398,-4.462,-4.2889,-4.3782,-4.3592,-4.2647,-4.1568,-4.1169,-4.1169,-4.1169,-4.1169,-4.1555,-4.3592,-4.4266,-4.4499,-4.558,-4.588,-4.588,-4.588,-4.588,-4.588,-4.588,-4.588,-4.588,-4.588,-4.588,-4.588,-4.588,-4.588,-4.588,-4.588,-4.588,-4.588,-4.588,-4.609,-4.6314,-4.655,-4.6756,-4.7019,-4.7266,-4.7309,-4.7309,-4.7309,-4.7309,-4.7309,-4.7309,-4.7309,-4.7694,-4.8573,-4.9383,-5.0213,-5.1102,-5.1944,-5.2409,-5.2409,-5.2409,-5.2409,-5.2409,-5.2409,-5.2409,-5.2409,-5.2409,-5.2409,-4.7594,0.0,0.0,0.0,0.0,0.0,-4.8259,-4.7996,-4.7765,-4.809,-4.82,-4.8812,-5.0823,-5.1182,-5.147,-5.238,-5.2783,-5.2996,-5.2996,-5.329,-5.3515,-5.3515,-5.3515,-5.3515,-5.3515,-5.3355,-5.2992,-5.2354,-5.1715,-5.1077,-5.0487,-4.9944,-4.9829,-5.0086,-5.0038,-5.0038,-5.0086,-5.0038,-4.9557,-4.8677,-4.8677,-4.8537,-4.8126,-4.7198,-4.6537,-4.6097,-4.5142,-4.3735,-4.2133,-4.3211,-4.3321,-4.2695,-4.1432,-4.1232,-4.1518,-4.0503,-4.0121,-4.0121,-4.0121,-4.0605,-4.1419,-4.2778,-4.3687,-4.4499,-4.558,-4.588,-4.588,-4.588,-4.588,-4.588,-4.588,-4.588,-4.588,-4.588,-4.588,-4.588,-4.588,-4.588,-4.588,-4.588,-4.588,-4.588,-4.588,-4.6239,-4.6506,-4.6594,-4.6946,-4.7207,-4.7309,-4.7309,-4.7309,-4.7309,-4.7309,-4.7309,-4.7309,-4.7907,-4.8599,-4.9423,-5.0267,-5.114,-5.198,-5.2266,-5.2409,-5.2409,-5.2409,-5.2409,-5.2409,-5.2409,-5.2409,-5.2409,-5.2409,-5.2409,-4.8184,-4.8435,-4.8686,-4.9038,0.0,0.0,-4.8749,-4.851,-4.8283,-4.8426,-4.8902,-4.9718,-5.1055,-5.1738,-5.2408,-5.3333,-5.3515,-5.3515,-5.3515,-5.3515,-5.3515,-5.3515,-5.3515,-5.3515,-5.3515,-5.3515,-5.3254,-5.2667,-5.1976,-5.1222,-5.0307,-4.9886,-4.9829,-5.0086,-4.999,-4.999,-5.0086,-4.999,-4.964,-4.9117,-4.9117,-4.8986,-4.8648,-4.7909,-4.7322,-4.6814,-4.5585,-4.4146,-4.2605,-4.2528,-4.2103,-4.1445,-4.0655,-4.0415,-4.0503,-3.9929,-3.9697,-3.9839,-4.0706,-4.1382,-4.2097,-4.3606,-4.448,-4.5095,-4.5685,-4.588,-4.588,-4.588,-4.588,-4.588,-4.588,-4.588,-4.588,-4.588,-4.588,-4.588,-4.588,-4.588,-4.588,-4.588,-4.588,-4.5925,-4.6001,-4.6269,-4.6491,-4.6727,-4.6946,-4.7164,-4.7309,-4.7309,-4.7309,-4.7309,-4.7309,-4.7309,-4.7309,-4.7779,-4.8407,-4.9262,-5.0096,-5.0951,-5.1818,-5.223,-5.2409,-5.2409,-5.2409,-5.2409,-5.2409,-5.2409,-5.2409,-5.2409,-5.2409,-5.2409,-4.8824,-4.9226,-4.959,-4.959,-4.959,0.0,-4.8975,-4.8862,-4.8699,-4.8121,-4.9035,-5.0161,-5.0725,-5.1888,-5.2945,-5.3507,-5.3631,-5.3602,-5.353,-5.3515,-5.3515,-5.3515,-5.3515,-5.3515,-5.3515,-5.3515,-5.3283,-5.2717,-5.202,-5.1077,-4.9906,-4.9712,-4.9829,-5.0038,-4.9829,-4.9829,-5.0038,-4.9829,-4.9717,-4.9717,-4.9717,-4.9378,-4.8779,-4.861,-4.8167,-4.7477,-4.6292,-4.5156,-4.4125,-4.2614,-4.1132,-3.9876,-4.0719,-4.0503,-3.9697,-3.9697,-3.9697,-3.9981,-4.1914,-4.2695,-4.3129,-4.511,-4.579,-4.588,-4.588,-4.588,-4.588,-4.588,-4.588,-4.588,-4.588,-4.588,-4.588,-4.588,-4.588,-4.588,-4.588,-4.588,-4.5925,-4.5925,-4.5925,-4.6015,-4.6165,-4.6254,-4.6432,-4.6829,-4.6931,-4.7019,-4.7266,-4.7309,-4.7309,-4.7309,-4.7309,-4.7309,-4.7309,-4.7309,-4.7666,-4.8532,-4.9262,-5.0096,-5.1081,-5.1818,-5.2302,-5.2409,-5.2409,-5.2409,-5.2409,-5.2409,-5.2409,-5.2409,-5.2409,-5.2409,-4.9188,-4.9515,-4.959,-4.959,-4.959,0.0,-4.9452,-4.9427,-4.9276,-4.8711,-4.9638,-5.0706,-5.1391,-5.251,-5.3541,-5.4201,-5.4313,-5.4125,-5.3588,-5.3515,-5.3515,-5.3515,-5.3515,-5.3515,-5.3515,-5.3515,-5.3457,-5.3341,-5.2267,-5.1294,-5.0511,-5.0008,-4.9732,-4.9781,-4.9732,-4.9732,-4.9781,-4.9732,-4.9717,-4.9717,-4.9717,-4.9611,-4.948,-4.804,-4.6875,-4.5857,-4.4227,-4.2905,-4.1932,-4.1577,-4.0999,-4.0312,-4.0106,-3.989,-3.9697,-3.9697,-3.9697,-3.989,-4.1082,-4.2061,-4.2985,-4.4219,-4.5201,-4.588,-4.588,-4.588,-4.588,-4.588,-4.588,-4.588,-4.588,-4.588,-4.588,-4.588,-4.588,-4.588,-4.588,-4.588,-4.5925,-4.609,-4.6135,-4.6165,-4.621,-4.6521,-4.6785,-4.6887,-4.7062,-4.7251,-4.7309,-4.7309,-4.7309,-4.7309,-4.7309,-4.7309,-4.7309,-4.7309,-4.7666,-4.8532,-4.8764,-4.9519,-5.1043,-5.1268,-5.1672,-5.239,-5.2409,-5.2409,-5.2409,-5.2409,-5.2409,-5.2409,-5.2409,-5.2409,-4.9364,-4.959,-4.959,-4.959,-4.959,0.0,0.0,-4.959,-4.9515,-4.9238,-5.0704,-5.2078,-5.2117,-5.3664,-5.4947,-5.4945,-5.4705,-5.4386,-5.4067,-5.3718,-5.3515,-5.3515,-5.3515,-5.3515,-5.3515,-5.3515,-5.3384,-5.3065,-5.2151,-5.1352,-5.0699,-5.0032,-4.9717,-4.9717,-4.9717,-4.9717,-4.9717,-4.9717,-4.9717,-4.9717,-4.9717,-4.941,-4.8838,-4.7963,-4.6939,-4.582,-4.4401,-4.3514,-4.2923,-4.2061,-4.158,-4.1279,-4.0727,-4.0513,-4.0488,-4.0212,-4.0111,-4.0256,-4.1574,-4.2341,-4.3033,-4.462,-4.5444,-4.588,-4.588,-4.588,-4.588,-4.588,-4.588,-4.588,-4.588,-4.588,-4.588,-4.588,-4.588,-4.588,-4.588,-4.597,-4.609,-4.6165,-4.6388,-4.6565,-4.6565,-4.6741,-4.6975,-4.7062,-4.7207,-4.7309,-4.7309,-4.7309,-4.7309,-4.7309,-4.7309,-4.7309,-4.7309,-4.7309,-4.751,-4.7934,-4.8723,-4.9583,-5.0422,-5.1306,-5.1944,-5.2373,-5.2409,-5.2409,-5.2409,-5.2409,-5.2409,-5.2409,-5.2409,-5.2409,-4.9414,-4.959,-4.959,-4.959,-4.959,-4.959,0.0,0.0,0.0,-4.9886,-5.1669,-5.3092,-5.307,-5.4782,-5.6039,-5.5478,-5.501,-5.4604,-5.4357,-5.3849,-5.3515,-5.3515,-5.3515,-5.3515,-5.3515,-5.3515,-5.3297,-5.2789,-5.2151,-5.1527,-5.0888,-5.022,-4.9799,-4.9717,-4.9717,-4.9717,-4.9717,-4.9717,-4.9717,-4.9717,-4.9473,-4.8902,-4.7971,-4.755,-4.6867,-4.5913,-4.4819,-4.4357,-4.4277,-4.2924,-4.2363,-4.2301,-4.1593,-4.1288,-4.1279,-4.1039,-4.0904,-4.1052,-4.2691,-4.3177,-4.3416,-4.5307,-4.588,-4.588,-4.588,-4.588,-4.588,-4.588,-4.588,-4.588,-4.588,-4.588,-4.588,-4.588,-4.588,-4.5925,-4.597,-4.6046,-4.618,-4.6254,-4.6565,-4.6829,-4.6873,-4.6931,-4.7062,-4.7266,-4.7309,-4.7309,-4.7309,-4.7309,-4.7309,-4.7309,-4.7309,-4.7309,-4.7309,-4.7309,-4.7309,-4.7309,-4.8558,-4.9447,-4.9765,-5.1455,-5.2409,-5.2409,-5.2409,-5.2409,-5.2409,-5.2409,-5.2409,-5.2409,-5.2409,-5.2409,-4.9301,-4.959,-4.959,-4.959,-4.959,-4.959,-4.959,0.0,-4.9886,-5.1029,0.0,-5.2394,-5.464,0.0,0.0,-5.5426,-5.5344,-5.4908,-5.3776,-5.3559,-5.3515,-5.3515,-5.3515,-5.3515,-5.3515,-5.3515,-5.3486,-5.3413,-5.2818,-5.218,-5.1541,-5.0917,-5.0278,-4.9698,-4.9717,-4.9717,-4.9717,-4.9717,-4.9717,-4.9669,-4.8688,-4.8122,-4.792,-4.5992,-4.4993,-4.4832,-4.367,-4.3197,-4.3184,-4.2967,-4.2886,-4.2785,-4.1743,-4.1288,-4.1436,-4.2357,-4.2385,-4.221,-4.4304,-4.4648,-4.4326,-4.5489,-4.588,-4.588,-4.588,-4.588,-4.588,-4.588,-4.588,-4.588,-4.588,-4.588,-4.588,-4.588,-4.588,-4.597,-4.6135,-4.6046,-4.606,-4.6462,-4.6594,-4.6683,-4.6887,-4.7121,-4.7251,-4.7309,-4.7309,-4.7309,-4.7309,-4.7309,-4.7309,-4.7309,-4.7309,-4.7309,-4.7309,-4.7309,-4.7309,-4.7309,-4.7467,-4.824,-4.9726,-5.1455,-5.2409,-5.2409,-5.2409,-5.2409,-5.2409,-5.2409,-5.2409,-5.2409,-5.2409,-5.2409,-4.9289,-4.959,-4.959,-4.959,-4.959,-4.959,-4.959,-4.959,-4.995,-5.1268,0.0,0.0,0.0,0.0,0.0,0.0,-5.5881,-5.5213,-5.4691,-5.3979,-5.3515,-5.3515,-5.3515,-5.3515,-5.3515,-5.3515,-5.3515,-5.3515,-5.292,-5.2296,-5.1657,-5.1019,-5.0415,-4.9698,-4.9717,-4.9717,-4.9717,-4.9717,-4.9717,-4.9669,-4.8539,-4.7652,-4.6971,-4.5409,-4.4357,-4.367,-4.3184,-4.2974,-4.2974,-4.2974,-4.2974,-4.2936,-4.2472,-4.2709,-4.3295,-4.34,-4.3741,-4.4205,-4.5025,-4.5099,-4.5007,-4.5664,-4.588,-4.588,-4.588,-4.588,-4.588,-4.588,-4.588,-4.588,-4.588,-4.588,-4.588,-4.588,-4.6015,-4.609,-4.6165,-4.6358,-4.6535,-4.6756,-4.6902,-4.7033,-4.7121,-4.7207,-4.7309,-4.7309,-4.7309,-4.7309,-4.7309,-4.7309,-4.7309,-4.7309,-4.7309,-4.7309,-4.7309,-4.7309,-4.751,-4.8019,-4.8969,-5.0049,-5.1252,-5.2017,-5.2409,-5.2409,-5.2409,-5.2409,-5.2409,-5.2409,-5.2409,-5.2409,-5.2409,-5.2409,-4.9063,-4.9377,-4.9402,-4.9552,-4.959,-4.9719,-5.0014,-5.013,-5.0613,-5.2236,-5.3349,0.0,0.0,0.0,-5.7245,-5.7086,0.0,-5.5344,-5.5184,-5.4212,-5.3515,-5.3515,-5.3515,-5.3515,-5.3515,-5.3515,-5.3515,-5.3515,-5.308,-5.247,-5.1657,-5.1178,-5.054,-4.9746,-4.9717,-4.9717,-4.9717,-4.9717,-4.9717,-4.9669,-4.8223,-4.7126,-4.6281,-4.4886,-4.3768,-4.2974,-4.2974,-4.2974,-4.2974,-4.2974,-4.2974,-4.2974,-4.2974,-4.3878,-4.5088,-4.4652,-4.4899,-4.5506,-4.5886,-4.5751,-4.5523,-4.5799,-4.588,-4.588,-4.588,-4.588,-4.588,-4.588,-4.588,-4.588,-4.588,-4.588,-4.5925,-4.597,-4.609,-4.6254,-4.6343,-4.6624,-4.6844,-4.6873,-4.7062,-4.7207,-4.7207,-4.7251,-4.7309,-4.7309,-4.7309,-4.7309,-4.7309,-4.7309,-4.7309,-4.7309,-4.7309,-4.7309,-4.7309,-4.7309,-4.7581,-4.8214,-4.9797,-5.1027,-5.1655,-5.2142,-5.2409,-5.2409,-5.2409,-5.2409,-5.2409,-5.2409,-5.2409,-5.2409,-5.2409,-5.2409,-4.8498,-4.8799,-4.8925,-4.9464,-4.959,-4.9886,-5.1142,-5.1442,-5.2174,-5.4724,-5.5281,-5.5761,-5.7007,-5.7247,-5.7115,-5.6534,-5.5852,0.0,0.0,-5.395,-5.3515,-5.3515,-5.3515,-5.3515,-5.3515,-5.3515,-5.3515,-5.3515,-5.3486,-5.2934,-5.1686,-5.1599,-5.1004,-4.9712,-4.9717,-4.9717,-4.9717,-4.9717,-4.9717,-4.9669,-4.7434,-4.6333,-4.6228,-4.4029,-4.303,-4.2974,-4.2974,-4.2974,-4.2974,-4.2974,-4.2974,-4.2974,-4.2974,-4.4344,-4.6281,-4.6201,-4.5888,-4.5612,-4.7166,-4.6894,-4.5864,-4.5895,-4.588,-4.588,-4.588,-4.588,-4.588,-4.588,-4.588,-4.588,-4.588,-4.588,-4.597,-4.6121,-4.6225,-4.6299,-4.6785,-4.6712,-4.6683,-4.6873,-4.6916,-4.6916,-4.6916,-4.7121,-4.7309,-4.7309,-4.7309,-4.7309,-4.7309,-4.7309,-4.7309,-4.7309,-4.7309,-4.7309,-4.7309,-4.7309,-4.7294,-4.7337,-4.8913,-4.9844,-4.9884,-5.1492,-5.2409,-5.2409,-5.2409,-5.2409,-5.2409,-5.2409,-5.2409,-5.2409,-5.2409,-5.2409,-4.8008,-4.8196,-4.8335,-4.8912,-4.905,-4.9266,-5.0041,-5.0903,-5.2002,-5.3784,-5.4811,-5.5818,-5.7063,-5.6984,-5.665,-5.6447,-5.5518,-5.4749,0.0,-5.3936,-5.3515,-5.3515,-5.3515,-5.3515,-5.3515,-5.3515,-5.3515,-5.3515,-5.3515,-5.3152,-5.2296,-5.1846,-5.1222,-5.0415,-4.9901,-4.9717,-4.9717,-4.9717,-4.9311,-4.8539,-4.7009,-4.5913,-4.5195,-4.367,-4.2974,-4.2974,-4.2974,-4.2974,-4.2974,-4.2974,-4.2974,-4.3085,-4.3835,-4.4561,-4.5355,-4.6018,-4.7142,-4.8219,-4.7893,-4.723,-4.6446,-4.6026,-4.588,-4.588,-4.588,-4.588,-4.588,-4.588,-4.588,-4.5925,-4.6046,-4.609,-4.6135,-4.6165,-4.6432,-4.6653,-4.6727,-4.6902,-4.7077,-4.7164,-4.7164,-4.7164,-4.7164,-4.7251,-4.7309,-4.7309,-4.7309,-4.7309,-4.7309,-4.7309,-4.7309,-4.7309,-4.7309,-4.7309,-4.7309,-4.7822,-4.8172,-4.8172,-4.9181,-5.0057,-5.0631,-5.1231,-5.1818,-5.239,-5.2409,-5.2409,-5.2409,-5.2409,-5.2409,-5.2409,-5.2409,-5.2409,-4.7493,-4.7631,-4.777,-4.8322,-4.846,-4.8737,-4.9787,-5.0619,-5.1575,-5.293,-5.4183,-5.5249,-5.585,-5.6024,-5.6055,-5.6055,-5.5184,-5.4429,0.0,-5.3791,-5.3515,-5.3515,-5.3515,-5.3515,-5.3515,-5.3515,-5.3515,-5.3515,-5.3515,-5.3239,-5.2652,-5.1962,-5.1323,-5.0699,-5.0066,-4.9717,-4.9717,-4.9311,-4.8738,-4.7971,-4.6438,-4.5342,-4.4683,-4.3504,-4.2974,-4.2974,-4.2974,-4.2974,-4.303,-4.3462,-4.3615,-4.3725,-4.4819,-4.5515,-4.5939,-4.666,-4.7917,-4.919,-4.8145,-4.7361,-4.6676,-4.6098,-4.588,-4.588,-4.588,-4.588,-4.5925,-4.6015,-4.6015,-4.606,-4.6165,-4.6269,-4.6358,-4.6358,-4.6624,-4.6887,-4.6858,-4.7077,-4.7309,-4.7309,-4.7309,-4.7309,-4.7309,-4.7309,-4.7309,-4.7309,-4.7309,-4.7309,-4.7309,-4.7309,-4.7309,-4.7309,-4.7309,-4.7309,-4.7309,-4.7822,-4.813,-4.813,-4.8913,-4.9638,-5.0206,-5.0477,-5.0897,-5.1455,-5.1782,-5.1944,-5.1944,-5.2266,-5.2409,-5.2409,-5.2409,-5.2409]}]]